<?xml version="1.0" encoding="UTF-8" standalone="no" ?>
<gpx xmlns="http://www.topografix.com/GPX/1/1" xmlns:xsi="http://www.w3.org/2001/XMLSchema-instance" xsi:schemaLocation="http://www.topografix.com/GPX/1/1 http://www.topografix.com/GPX/1/1/gpx.xsd" version="1.1" creator="VisuGPX - https://www.visugpx.com">
  <metadata>
    <name>La sauve - Camiac - St Quentin - Le Pout</name>
    <desc><![CDATA[Randonnée VTT]]></desc>
  </metadata>
  <trk>
    <name><![CDATA[La sauve camiac st quentin creon]]></name>
    <trkseg>
      <trkpt lat="44.75547" lon="-0.31235">
        <ele>103</ele>
        <time>2012-07-29T12:52:29Z</time>
      </trkpt>
      <trkpt lat="44.75556" lon="-0.31243">
        <ele>103</ele>
        <time>2012-07-29T12:52:34Z</time>
      </trkpt>
      <trkpt lat="44.75557" lon="-0.31256">
        <ele>103</ele>
        <time>2012-07-29T12:52:41Z</time>
      </trkpt>
      <trkpt lat="44.75566" lon="-0.31263">
        <ele>103</ele>
        <time>2012-07-29T12:52:45Z</time>
      </trkpt>
      <trkpt lat="44.75575" lon="-0.3127">
        <ele>103</ele>
        <time>2012-07-29T12:52:48Z</time>
      </trkpt>
      <trkpt lat="44.75585" lon="-0.31276">
        <ele>102</ele>
        <time>2012-07-29T12:52:52Z</time>
      </trkpt>
      <trkpt lat="44.75596" lon="-0.31281">
        <ele>102</ele>
        <time>2012-07-29T12:52:55Z</time>
      </trkpt>
      <trkpt lat="44.75609" lon="-0.31287">
        <ele>102</ele>
        <time>2012-07-29T12:52:58Z</time>
      </trkpt>
      <trkpt lat="44.75622" lon="-0.31293">
        <ele>102</ele>
        <time>2012-07-29T12:53:01Z</time>
      </trkpt>
      <trkpt lat="44.75632" lon="-0.31296">
        <ele>102</ele>
        <time>2012-07-29T12:53:03Z</time>
      </trkpt>
      <trkpt lat="44.7564" lon="-0.313">
        <ele>102</ele>
        <time>2012-07-29T12:53:06Z</time>
      </trkpt>
      <trkpt lat="44.75649" lon="-0.31304">
        <ele>102</ele>
        <time>2012-07-29T12:53:09Z</time>
      </trkpt>
      <trkpt lat="44.7566" lon="-0.31304">
        <ele>102</ele>
        <time>2012-07-29T12:53:12Z</time>
      </trkpt>
      <trkpt lat="44.75671" lon="-0.31305">
        <ele>103</ele>
        <time>2012-07-29T12:53:15Z</time>
      </trkpt>
      <trkpt lat="44.7568" lon="-0.31308">
        <ele>103</ele>
        <time>2012-07-29T12:53:17Z</time>
      </trkpt>
      <trkpt lat="44.75692" lon="-0.31307">
        <ele>104</ele>
        <time>2012-07-29T12:53:21Z</time>
      </trkpt>
      <trkpt lat="44.75702" lon="-0.31308">
        <ele>104</ele>
        <time>2012-07-29T12:53:24Z</time>
      </trkpt>
      <trkpt lat="44.75712" lon="-0.3131">
        <ele>104</ele>
        <time>2012-07-29T12:53:27Z</time>
      </trkpt>
      <trkpt lat="44.75724" lon="-0.31314">
        <ele>105</ele>
        <time>2012-07-29T12:53:31Z</time>
      </trkpt>
      <trkpt lat="44.75734" lon="-0.31316">
        <ele>105</ele>
        <time>2012-07-29T12:53:34Z</time>
      </trkpt>
      <trkpt lat="44.75744" lon="-0.31319">
        <ele>105</ele>
        <time>2012-07-29T12:53:37Z</time>
      </trkpt>
      <trkpt lat="44.75754" lon="-0.31321">
        <ele>105</ele>
        <time>2012-07-29T12:53:40Z</time>
      </trkpt>
      <trkpt lat="44.75765" lon="-0.31322">
        <ele>106</ele>
        <time>2012-07-29T12:53:43Z</time>
      </trkpt>
      <trkpt lat="44.75775" lon="-0.31322">
        <ele>106</ele>
        <time>2012-07-29T12:53:46Z</time>
      </trkpt>
      <trkpt lat="44.75785" lon="-0.31323">
        <ele>107</ele>
        <time>2012-07-29T12:53:49Z</time>
      </trkpt>
      <trkpt lat="44.75796" lon="-0.31323">
        <ele>107</ele>
        <time>2012-07-29T12:53:52Z</time>
      </trkpt>
      <trkpt lat="44.75807" lon="-0.31325">
        <ele>108</ele>
        <time>2012-07-29T12:53:55Z</time>
      </trkpt>
      <trkpt lat="44.75817" lon="-0.31327">
        <ele>108</ele>
        <time>2012-07-29T12:53:58Z</time>
      </trkpt>
      <trkpt lat="44.75827" lon="-0.31328">
        <ele>109</ele>
        <time>2012-07-29T12:54:01Z</time>
      </trkpt>
      <trkpt lat="44.75838" lon="-0.31329">
        <ele>109</ele>
        <time>2012-07-29T12:54:04Z</time>
      </trkpt>
      <trkpt lat="44.75849" lon="-0.31331">
        <ele>109</ele>
        <time>2012-07-29T12:54:07Z</time>
      </trkpt>
      <trkpt lat="44.7586" lon="-0.31332">
        <ele>110</ele>
        <time>2012-07-29T12:54:10Z</time>
      </trkpt>
      <trkpt lat="44.75871" lon="-0.31335">
        <ele>110</ele>
        <time>2012-07-29T12:54:13Z</time>
      </trkpt>
      <trkpt lat="44.75882" lon="-0.31337">
        <ele>110</ele>
        <time>2012-07-29T12:54:16Z</time>
      </trkpt>
      <trkpt lat="44.75893" lon="-0.31339">
        <ele>110</ele>
        <time>2012-07-29T12:54:19Z</time>
      </trkpt>
      <trkpt lat="44.75904" lon="-0.3134">
        <ele>110</ele>
        <time>2012-07-29T12:54:22Z</time>
      </trkpt>
      <trkpt lat="44.75914" lon="-0.31342">
        <ele>110</ele>
        <time>2012-07-29T12:54:25Z</time>
      </trkpt>
      <trkpt lat="44.75925" lon="-0.31344">
        <ele>110</ele>
        <time>2012-07-29T12:54:28Z</time>
      </trkpt>
      <trkpt lat="44.75936" lon="-0.31347">
        <ele>110</ele>
        <time>2012-07-29T12:54:31Z</time>
      </trkpt>
      <trkpt lat="44.75949" lon="-0.31353">
        <ele>110</ele>
        <time>2012-07-29T12:54:34Z</time>
      </trkpt>
      <trkpt lat="44.75961" lon="-0.31357">
        <ele>110</ele>
        <time>2012-07-29T12:54:37Z</time>
      </trkpt>
      <trkpt lat="44.75973" lon="-0.31358">
        <ele>110</ele>
        <time>2012-07-29T12:54:40Z</time>
      </trkpt>
      <trkpt lat="44.75983" lon="-0.31361">
        <ele>110</ele>
        <time>2012-07-29T12:54:43Z</time>
      </trkpt>
      <trkpt lat="44.75994" lon="-0.31363">
        <ele>110</ele>
        <time>2012-07-29T12:54:46Z</time>
      </trkpt>
      <trkpt lat="44.76004" lon="-0.31364">
        <ele>110</ele>
        <time>2012-07-29T12:54:49Z</time>
      </trkpt>
      <trkpt lat="44.76014" lon="-0.31366">
        <ele>110</ele>
        <time>2012-07-29T12:54:52Z</time>
      </trkpt>
      <trkpt lat="44.76023" lon="-0.31373">
        <ele>110</ele>
        <time>2012-07-29T12:54:56Z</time>
      </trkpt>
      <trkpt lat="44.76024" lon="-0.31388">
        <ele>109</ele>
        <time>2012-07-29T12:54:59Z</time>
      </trkpt>
      <trkpt lat="44.76024" lon="-0.31404">
        <ele>109</ele>
        <time>2012-07-29T12:55:03Z</time>
      </trkpt>
      <trkpt lat="44.76022" lon="-0.3142">
        <ele>108</ele>
        <time>2012-07-29T12:55:06Z</time>
      </trkpt>
      <trkpt lat="44.7602" lon="-0.31437">
        <ele>108</ele>
        <time>2012-07-29T12:55:09Z</time>
      </trkpt>
      <trkpt lat="44.76018" lon="-0.31451">
        <ele>108</ele>
        <time>2012-07-29T12:55:11Z</time>
      </trkpt>
      <trkpt lat="44.76017" lon="-0.31464">
        <ele>107</ele>
        <time>2012-07-29T12:55:13Z</time>
      </trkpt>
      <trkpt lat="44.76015" lon="-0.31479">
        <ele>107</ele>
        <time>2012-07-29T12:55:15Z</time>
      </trkpt>
      <trkpt lat="44.76014" lon="-0.31492">
        <ele>107</ele>
        <time>2012-07-29T12:55:17Z</time>
      </trkpt>
      <trkpt lat="44.76012" lon="-0.31506">
        <ele>107</ele>
        <time>2012-07-29T12:55:19Z</time>
      </trkpt>
      <trkpt lat="44.76011" lon="-0.31519">
        <ele>107</ele>
        <time>2012-07-29T12:55:21Z</time>
      </trkpt>
      <trkpt lat="44.76009" lon="-0.31534">
        <ele>107</ele>
        <time>2012-07-29T12:55:23Z</time>
      </trkpt>
      <trkpt lat="44.76007" lon="-0.31547">
        <ele>107</ele>
        <time>2012-07-29T12:55:25Z</time>
      </trkpt>
      <trkpt lat="44.75986" lon="-0.31635">
        <ele>108</ele>
        <time>2012-07-29T12:55:28Z</time>
      </trkpt>
      <trkpt lat="44.75931" lon="-0.31775">
        <ele>108</ele>
        <time>2012-07-29T12:55:30Z</time>
      </trkpt>
      <trkpt lat="44.75929" lon="-0.31945">
        <ele>107</ele>
        <time>2012-07-29T12:55:33Z</time>
      </trkpt>
      <trkpt lat="44.75918" lon="-0.32134">
        <ele>107</ele>
        <time>2012-07-29T12:55:35Z</time>
      </trkpt>
      <trkpt lat="44.75986" lon="-0.32197">
        <ele>106</ele>
        <time>2012-07-29T12:55:38Z</time>
      </trkpt>
      <trkpt lat="44.76044" lon="-0.32216">
        <ele>106</ele>
      </trkpt>
      <trkpt lat="44.76111" lon="-0.32235">
        <ele>105</ele>
      </trkpt>
      <trkpt lat="44.76174" lon="-0.32153">
        <ele>105</ele>
      </trkpt>
      <trkpt lat="44.76228" lon="-0.32054">
        <ele>106</ele>
      </trkpt>
      <trkpt lat="44.76316" lon="-0.32052">
        <ele>105</ele>
      </trkpt>
      <trkpt lat="44.76425" lon="-0.32089">
        <ele>103</ele>
      </trkpt>
      <trkpt lat="44.76504" lon="-0.32105">
        <ele>102</ele>
      </trkpt>
      <trkpt lat="44.76529" lon="-0.32084">
        <ele>103</ele>
      </trkpt>
      <trkpt lat="44.7655" lon="-0.32028">
        <ele>99</ele>
      </trkpt>
      <trkpt lat="44.76589" lon="-0.32018">
        <ele>95</ele>
      </trkpt>
      <trkpt lat="44.76662" lon="-0.31993">
        <ele>87</ele>
      </trkpt>
      <trkpt lat="44.76667" lon="-0.31952">
        <ele>84</ele>
      </trkpt>
      <trkpt lat="44.76676" lon="-0.31867">
        <ele>81</ele>
      </trkpt>
      <trkpt lat="44.76742" lon="-0.31823">
        <ele>85</ele>
        <time>2012-07-29T12:55:41Z</time>
      </trkpt>
      <trkpt lat="44.76773" lon="-0.31764">
        <ele>95</ele>
        <time>2012-07-29T12:55:44Z</time>
      </trkpt>
      <trkpt lat="44.76821" lon="-0.3171">
        <ele>101</ele>
        <time>2012-07-29T12:55:46Z</time>
      </trkpt>
      <trkpt lat="44.76838" lon="-0.31714">
        <ele>102</ele>
        <time>2012-07-29T13:03:28Z</time>
      </trkpt>
      <trkpt lat="44.76848" lon="-0.31689">
        <ele>101</ele>
        <time>2012-07-29T13:04:43Z</time>
      </trkpt>
      <trkpt lat="44.76853" lon="-0.31676">
        <ele>101</ele>
        <time>2012-07-29T13:04:48Z</time>
      </trkpt>
      <trkpt lat="44.76858" lon="-0.31664">
        <ele>101</ele>
        <time>2012-07-29T13:04:51Z</time>
      </trkpt>
      <trkpt lat="44.76863" lon="-0.31652">
        <ele>101</ele>
        <time>2012-07-29T13:04:53Z</time>
      </trkpt>
      <trkpt lat="44.76868" lon="-0.31639">
        <ele>100</ele>
        <time>2012-07-29T13:04:55Z</time>
      </trkpt>
      <trkpt lat="44.76872" lon="-0.31624">
        <ele>99</ele>
        <time>2012-07-29T13:04:57Z</time>
      </trkpt>
      <trkpt lat="44.76875" lon="-0.3161">
        <ele>98</ele>
        <time>2012-07-29T13:04:59Z</time>
      </trkpt>
      <trkpt lat="44.76876" lon="-0.31595">
        <ele>97</ele>
        <time>2012-07-29T13:05:01Z</time>
      </trkpt>
      <trkpt lat="44.76876" lon="-0.31577">
        <ele>96</ele>
        <time>2012-07-29T13:05:04Z</time>
      </trkpt>
      <trkpt lat="44.76878" lon="-0.31561">
        <ele>94</ele>
        <time>2012-07-29T13:05:07Z</time>
      </trkpt>
      <trkpt lat="44.76878" lon="-0.31544">
        <ele>93</ele>
        <time>2012-07-29T13:05:10Z</time>
      </trkpt>
      <trkpt lat="44.76878" lon="-0.31528">
        <ele>92</ele>
        <time>2012-07-29T13:05:13Z</time>
      </trkpt>
      <trkpt lat="44.76877" lon="-0.3151">
        <ele>91</ele>
        <time>2012-07-29T13:05:16Z</time>
      </trkpt>
      <trkpt lat="44.76878" lon="-0.31496">
        <ele>90</ele>
        <time>2012-07-29T13:05:18Z</time>
      </trkpt>
      <trkpt lat="44.76878" lon="-0.3148">
        <ele>89</ele>
        <time>2012-07-29T13:05:20Z</time>
      </trkpt>
      <trkpt lat="44.7688" lon="-0.31463">
        <ele>88</ele>
        <time>2012-07-29T13:05:22Z</time>
      </trkpt>
      <trkpt lat="44.76881" lon="-0.31445">
        <ele>87</ele>
        <time>2012-07-29T13:05:24Z</time>
      </trkpt>
      <trkpt lat="44.76883" lon="-0.31426">
        <ele>85</ele>
        <time>2012-07-29T13:05:26Z</time>
      </trkpt>
      <trkpt lat="44.76885" lon="-0.31408">
        <ele>84</ele>
        <time>2012-07-29T13:05:28Z</time>
      </trkpt>
      <trkpt lat="44.76888" lon="-0.31393">
        <ele>83</ele>
        <time>2012-07-29T13:05:30Z</time>
      </trkpt>
      <trkpt lat="44.76894" lon="-0.31383">
        <ele>81</ele>
        <time>2012-07-29T13:05:32Z</time>
      </trkpt>
      <trkpt lat="44.76908" lon="-0.31384">
        <ele>81</ele>
        <time>2012-07-29T13:05:35Z</time>
      </trkpt>
      <trkpt lat="44.76919" lon="-0.3139">
        <ele>80</ele>
        <time>2012-07-29T13:05:38Z</time>
      </trkpt>
      <trkpt lat="44.76929" lon="-0.31393">
        <ele>80</ele>
        <time>2012-07-29T13:05:41Z</time>
      </trkpt>
      <trkpt lat="44.7694" lon="-0.31396">
        <ele>80</ele>
        <time>2012-07-29T13:05:44Z</time>
      </trkpt>
      <trkpt lat="44.76952" lon="-0.314">
        <ele>80</ele>
        <time>2012-07-29T13:05:47Z</time>
      </trkpt>
      <trkpt lat="44.76964" lon="-0.31401">
        <ele>80</ele>
        <time>2012-07-29T13:05:50Z</time>
      </trkpt>
      <trkpt lat="44.76976" lon="-0.31402">
        <ele>80</ele>
        <time>2012-07-29T13:05:53Z</time>
      </trkpt>
      <trkpt lat="44.76986" lon="-0.31402">
        <ele>80</ele>
        <time>2012-07-29T13:05:56Z</time>
      </trkpt>
      <trkpt lat="44.76999" lon="-0.31403">
        <ele>80</ele>
        <time>2012-07-29T13:05:59Z</time>
      </trkpt>
      <trkpt lat="44.77013" lon="-0.31405">
        <ele>81</ele>
        <time>2012-07-29T13:06:02Z</time>
      </trkpt>
      <trkpt lat="44.77023" lon="-0.31405">
        <ele>80</ele>
        <time>2012-07-29T13:06:04Z</time>
      </trkpt>
      <trkpt lat="44.77033" lon="-0.31406">
        <ele>80</ele>
        <time>2012-07-29T13:06:06Z</time>
      </trkpt>
      <trkpt lat="44.77045" lon="-0.31404">
        <ele>80</ele>
        <time>2012-07-29T13:06:08Z</time>
      </trkpt>
      <trkpt lat="44.77056" lon="-0.31402">
        <ele>79</ele>
        <time>2012-07-29T13:06:10Z</time>
      </trkpt>
      <trkpt lat="44.77068" lon="-0.31398">
        <ele>78</ele>
        <time>2012-07-29T13:06:12Z</time>
      </trkpt>
      <trkpt lat="44.77079" lon="-0.31393">
        <ele>77</ele>
        <time>2012-07-29T13:06:14Z</time>
      </trkpt>
      <trkpt lat="44.77089" lon="-0.31389">
        <ele>76</ele>
        <time>2012-07-29T13:06:17Z</time>
      </trkpt>
      <trkpt lat="44.77098" lon="-0.31383">
        <ele>75</ele>
        <time>2012-07-29T13:06:28Z</time>
      </trkpt>
      <trkpt lat="44.77108" lon="-0.3138">
        <ele>75</ele>
        <time>2012-07-29T13:06:31Z</time>
      </trkpt>
      <trkpt lat="44.77118" lon="-0.31377">
        <ele>74</ele>
        <time>2012-07-29T13:06:33Z</time>
      </trkpt>
      <trkpt lat="44.77131" lon="-0.31372">
        <ele>73</ele>
        <time>2012-07-29T13:06:35Z</time>
      </trkpt>
      <trkpt lat="44.77144" lon="-0.31368">
        <ele>72</ele>
        <time>2012-07-29T13:06:37Z</time>
      </trkpt>
      <trkpt lat="44.77159" lon="-0.31364">
        <ele>71</ele>
        <time>2012-07-29T13:06:39Z</time>
      </trkpt>
      <trkpt lat="44.77173" lon="-0.31358">
        <ele>70</ele>
        <time>2012-07-29T13:06:41Z</time>
      </trkpt>
      <trkpt lat="44.77187" lon="-0.31351">
        <ele>70</ele>
        <time>2012-07-29T13:06:43Z</time>
      </trkpt>
      <trkpt lat="44.77197" lon="-0.31346">
        <ele>69</ele>
        <time>2012-07-29T13:06:45Z</time>
      </trkpt>
      <trkpt lat="44.77206" lon="-0.3134">
        <ele>68</ele>
        <time>2012-07-29T13:06:47Z</time>
      </trkpt>
      <trkpt lat="44.77218" lon="-0.31335">
        <ele>68</ele>
        <time>2012-07-29T13:06:50Z</time>
      </trkpt>
      <trkpt lat="44.77228" lon="-0.31331">
        <ele>67</ele>
        <time>2012-07-29T13:06:52Z</time>
      </trkpt>
      <trkpt lat="44.7724" lon="-0.31324">
        <ele>66</ele>
        <time>2012-07-29T13:06:55Z</time>
      </trkpt>
      <trkpt lat="44.7725" lon="-0.31322">
        <ele>66</ele>
        <time>2012-07-29T13:06:57Z</time>
      </trkpt>
      <trkpt lat="44.77263" lon="-0.31318">
        <ele>65</ele>
        <time>2012-07-29T13:07:00Z</time>
      </trkpt>
      <trkpt lat="44.77273" lon="-0.31315">
        <ele>65</ele>
        <time>2012-07-29T13:07:02Z</time>
      </trkpt>
      <trkpt lat="44.77283" lon="-0.31314">
        <ele>65</ele>
        <time>2012-07-29T13:07:04Z</time>
      </trkpt>
      <trkpt lat="44.77294" lon="-0.31314">
        <ele>66</ele>
        <time>2012-07-29T13:07:07Z</time>
      </trkpt>
      <trkpt lat="44.77303" lon="-0.31319">
        <ele>66</ele>
        <time>2012-07-29T13:07:09Z</time>
      </trkpt>
      <trkpt lat="44.77309" lon="-0.31336">
        <ele>65</ele>
        <time>2012-07-29T13:07:12Z</time>
      </trkpt>
      <trkpt lat="44.77315" lon="-0.31353">
        <ele>65</ele>
        <time>2012-07-29T13:07:15Z</time>
      </trkpt>
      <trkpt lat="44.7732" lon="-0.3137">
        <ele>64</ele>
        <time>2012-07-29T13:07:18Z</time>
      </trkpt>
      <trkpt lat="44.77322" lon="-0.31386">
        <ele>64</ele>
        <time>2012-07-29T13:07:21Z</time>
      </trkpt>
      <trkpt lat="44.77326" lon="-0.31399">
        <ele>65</ele>
        <time>2012-07-29T13:07:24Z</time>
      </trkpt>
      <trkpt lat="44.77331" lon="-0.31415">
        <ele>65</ele>
        <time>2012-07-29T13:07:27Z</time>
      </trkpt>
      <trkpt lat="44.77337" lon="-0.31432">
        <ele>66</ele>
        <time>2012-07-29T13:07:30Z</time>
      </trkpt>
      <trkpt lat="44.7734" lon="-0.31446">
        <ele>66</ele>
        <time>2012-07-29T13:07:32Z</time>
      </trkpt>
      <trkpt lat="44.77346" lon="-0.31459">
        <ele>66</ele>
        <time>2012-07-29T13:07:34Z</time>
      </trkpt>
      <trkpt lat="44.77351" lon="-0.31472">
        <ele>66</ele>
        <time>2012-07-29T13:07:36Z</time>
      </trkpt>
      <trkpt lat="44.77356" lon="-0.31486">
        <ele>66</ele>
        <time>2012-07-29T13:07:38Z</time>
      </trkpt>
      <trkpt lat="44.77365" lon="-0.31499">
        <ele>67</ele>
        <time>2012-07-29T13:07:40Z</time>
      </trkpt>
      <trkpt lat="44.77372" lon="-0.31508">
        <ele>67</ele>
        <time>2012-07-29T13:07:42Z</time>
      </trkpt>
      <trkpt lat="44.77382" lon="-0.31516">
        <ele>68</ele>
        <time>2012-07-29T13:07:44Z</time>
      </trkpt>
      <trkpt lat="44.77391" lon="-0.3152">
        <ele>69</ele>
        <time>2012-07-29T13:07:46Z</time>
      </trkpt>
      <trkpt lat="44.774" lon="-0.31526">
        <ele>70</ele>
        <time>2012-07-29T13:07:48Z</time>
      </trkpt>
      <trkpt lat="44.77412" lon="-0.31531">
        <ele>70</ele>
        <time>2012-07-29T13:07:51Z</time>
      </trkpt>
      <trkpt lat="44.77424" lon="-0.31536">
        <ele>70</ele>
        <time>2012-07-29T13:07:54Z</time>
      </trkpt>
      <trkpt lat="44.77436" lon="-0.31542">
        <ele>70</ele>
        <time>2012-07-29T13:07:57Z</time>
      </trkpt>
      <trkpt lat="44.77448" lon="-0.31548">
        <ele>70</ele>
        <time>2012-07-29T13:08:00Z</time>
      </trkpt>
      <trkpt lat="44.77459" lon="-0.31555">
        <ele>70</ele>
        <time>2012-07-29T13:08:03Z</time>
      </trkpt>
      <trkpt lat="44.77471" lon="-0.31564">
        <ele>69</ele>
        <time>2012-07-29T13:08:06Z</time>
      </trkpt>
      <trkpt lat="44.77483" lon="-0.31575">
        <ele>69</ele>
        <time>2012-07-29T13:08:09Z</time>
      </trkpt>
      <trkpt lat="44.77491" lon="-0.31585">
        <ele>69</ele>
        <time>2012-07-29T13:08:11Z</time>
      </trkpt>
      <trkpt lat="44.77498" lon="-0.31596">
        <ele>68</ele>
        <time>2012-07-29T13:08:13Z</time>
      </trkpt>
      <trkpt lat="44.77505" lon="-0.31605">
        <ele>68</ele>
        <time>2012-07-29T13:08:15Z</time>
      </trkpt>
      <trkpt lat="44.77514" lon="-0.31616">
        <ele>67</ele>
        <time>2012-07-29T13:08:18Z</time>
      </trkpt>
      <trkpt lat="44.77527" lon="-0.31624">
        <ele>67</ele>
        <time>2012-07-29T13:08:21Z</time>
      </trkpt>
      <trkpt lat="44.77537" lon="-0.31628">
        <ele>67</ele>
        <time>2012-07-29T13:08:23Z</time>
      </trkpt>
      <trkpt lat="44.77546" lon="-0.31627">
        <ele>68</ele>
        <time>2012-07-29T13:08:25Z</time>
      </trkpt>
      <trkpt lat="44.77559" lon="-0.31626">
        <ele>68</ele>
        <time>2012-07-29T13:08:28Z</time>
      </trkpt>
      <trkpt lat="44.77573" lon="-0.31623">
        <ele>69</ele>
        <time>2012-07-29T13:08:31Z</time>
      </trkpt>
      <trkpt lat="44.77583" lon="-0.31621">
        <ele>70</ele>
        <time>2012-07-29T13:08:34Z</time>
      </trkpt>
      <trkpt lat="44.77596" lon="-0.31619">
        <ele>70</ele>
        <time>2012-07-29T13:08:37Z</time>
      </trkpt>
      <trkpt lat="44.77607" lon="-0.31619">
        <ele>71</ele>
        <time>2012-07-29T13:08:40Z</time>
      </trkpt>
      <trkpt lat="44.77621" lon="-0.31618">
        <ele>71</ele>
        <time>2012-07-29T13:08:43Z</time>
      </trkpt>
      <trkpt lat="44.77632" lon="-0.3162">
        <ele>71</ele>
        <time>2012-07-29T13:08:46Z</time>
      </trkpt>
      <trkpt lat="44.77644" lon="-0.31622">
        <ele>71</ele>
        <time>2012-07-29T13:08:49Z</time>
      </trkpt>
      <trkpt lat="44.77656" lon="-0.31621">
        <ele>70</ele>
        <time>2012-07-29T13:08:52Z</time>
      </trkpt>
      <trkpt lat="44.77665" lon="-0.31617">
        <ele>70</ele>
        <time>2012-07-29T13:08:54Z</time>
      </trkpt>
      <trkpt lat="44.77678" lon="-0.31613">
        <ele>70</ele>
        <time>2012-07-29T13:08:57Z</time>
      </trkpt>
      <trkpt lat="44.77688" lon="-0.31612">
        <ele>69</ele>
        <time>2012-07-29T13:08:59Z</time>
      </trkpt>
      <trkpt lat="44.77698" lon="-0.31612">
        <ele>69</ele>
        <time>2012-07-29T13:09:01Z</time>
      </trkpt>
      <trkpt lat="44.77708" lon="-0.31608">
        <ele>68</ele>
        <time>2012-07-29T13:09:03Z</time>
      </trkpt>
      <trkpt lat="44.77717" lon="-0.31603">
        <ele>68</ele>
        <time>2012-07-29T13:09:05Z</time>
      </trkpt>
      <trkpt lat="44.77727" lon="-0.31601">
        <ele>68</ele>
        <time>2012-07-29T13:09:07Z</time>
      </trkpt>
      <trkpt lat="44.77741" lon="-0.31598">
        <ele>68</ele>
        <time>2012-07-29T13:09:10Z</time>
      </trkpt>
      <trkpt lat="44.77754" lon="-0.31598">
        <ele>68</ele>
        <time>2012-07-29T13:09:13Z</time>
      </trkpt>
      <trkpt lat="44.77765" lon="-0.31602">
        <ele>68</ele>
        <time>2012-07-29T13:09:15Z</time>
      </trkpt>
      <trkpt lat="44.77775" lon="-0.31605">
        <ele>69</ele>
        <time>2012-07-29T13:09:17Z</time>
      </trkpt>
      <trkpt lat="44.77785" lon="-0.31608">
        <ele>69</ele>
        <time>2012-07-29T13:09:19Z</time>
      </trkpt>
      <trkpt lat="44.77795" lon="-0.31611">
        <ele>70</ele>
        <time>2012-07-29T13:09:21Z</time>
      </trkpt>
      <trkpt lat="44.77805" lon="-0.31614">
        <ele>70</ele>
        <time>2012-07-29T13:09:23Z</time>
      </trkpt>
      <trkpt lat="44.77819" lon="-0.31617">
        <ele>71</ele>
        <time>2012-07-29T13:09:26Z</time>
      </trkpt>
      <trkpt lat="44.77832" lon="-0.31623">
        <ele>71</ele>
        <time>2012-07-29T13:09:29Z</time>
      </trkpt>
      <trkpt lat="44.77841" lon="-0.31626">
        <ele>72</ele>
        <time>2012-07-29T13:09:31Z</time>
      </trkpt>
      <trkpt lat="44.77853" lon="-0.31631">
        <ele>72</ele>
        <time>2012-07-29T13:09:34Z</time>
      </trkpt>
      <trkpt lat="44.77866" lon="-0.31635">
        <ele>71</ele>
        <time>2012-07-29T13:09:37Z</time>
      </trkpt>
      <trkpt lat="44.77878" lon="-0.31638">
        <ele>71</ele>
        <time>2012-07-29T13:09:40Z</time>
      </trkpt>
      <trkpt lat="44.77888" lon="-0.31638">
        <ele>71</ele>
        <time>2012-07-29T13:09:42Z</time>
      </trkpt>
      <trkpt lat="44.77899" lon="-0.3164">
        <ele>70</ele>
        <time>2012-07-29T13:09:44Z</time>
      </trkpt>
      <trkpt lat="44.77911" lon="-0.31644">
        <ele>70</ele>
        <time>2012-07-29T13:09:46Z</time>
      </trkpt>
      <trkpt lat="44.77922" lon="-0.31651">
        <ele>69</ele>
        <time>2012-07-29T13:09:48Z</time>
      </trkpt>
      <trkpt lat="44.77932" lon="-0.31658">
        <ele>69</ele>
        <time>2012-07-29T13:09:50Z</time>
      </trkpt>
      <trkpt lat="44.77944" lon="-0.31664">
        <ele>68</ele>
        <time>2012-07-29T13:09:52Z</time>
      </trkpt>
      <trkpt lat="44.77954" lon="-0.31669">
        <ele>68</ele>
        <time>2012-07-29T13:09:54Z</time>
      </trkpt>
      <trkpt lat="44.77967" lon="-0.31673">
        <ele>68</ele>
        <time>2012-07-29T13:09:57Z</time>
      </trkpt>
      <trkpt lat="44.77978" lon="-0.31678">
        <ele>67</ele>
        <time>2012-07-29T13:10:01Z</time>
      </trkpt>
      <trkpt lat="44.77988" lon="-0.31682">
        <ele>67</ele>
        <time>2012-07-29T13:10:04Z</time>
      </trkpt>
      <trkpt lat="44.78001" lon="-0.31688">
        <ele>67</ele>
        <time>2012-07-29T13:10:07Z</time>
      </trkpt>
      <trkpt lat="44.78013" lon="-0.31694">
        <ele>67</ele>
        <time>2012-07-29T13:10:10Z</time>
      </trkpt>
      <trkpt lat="44.78026" lon="-0.317">
        <ele>67</ele>
        <time>2012-07-29T13:10:13Z</time>
      </trkpt>
      <trkpt lat="44.78038" lon="-0.31707">
        <ele>66</ele>
        <time>2012-07-29T13:10:16Z</time>
      </trkpt>
      <trkpt lat="44.7805" lon="-0.31712">
        <ele>66</ele>
        <time>2012-07-29T13:10:19Z</time>
      </trkpt>
      <trkpt lat="44.78061" lon="-0.31719">
        <ele>66</ele>
        <time>2012-07-29T13:10:22Z</time>
      </trkpt>
      <trkpt lat="44.78072" lon="-0.31725">
        <ele>66</ele>
        <time>2012-07-29T13:10:25Z</time>
      </trkpt>
      <trkpt lat="44.78082" lon="-0.31731">
        <ele>66</ele>
        <time>2012-07-29T13:10:28Z</time>
      </trkpt>
      <trkpt lat="44.78092" lon="-0.31738">
        <ele>66</ele>
        <time>2012-07-29T13:10:32Z</time>
      </trkpt>
      <trkpt lat="44.78102" lon="-0.31738">
        <ele>66</ele>
        <time>2012-07-29T13:10:42Z</time>
      </trkpt>
      <trkpt lat="44.78112" lon="-0.31741">
        <ele>67</ele>
        <time>2012-07-29T13:10:47Z</time>
      </trkpt>
      <trkpt lat="44.78123" lon="-0.31744">
        <ele>67</ele>
        <time>2012-07-29T13:10:51Z</time>
      </trkpt>
      <trkpt lat="44.78134" lon="-0.31742">
        <ele>67</ele>
        <time>2012-07-29T13:10:54Z</time>
      </trkpt>
      <trkpt lat="44.78145" lon="-0.3174">
        <ele>67</ele>
        <time>2012-07-29T13:10:57Z</time>
      </trkpt>
      <trkpt lat="44.78155" lon="-0.31739">
        <ele>67</ele>
        <time>2012-07-29T13:11:00Z</time>
      </trkpt>
      <trkpt lat="44.78165" lon="-0.31738">
        <ele>67</ele>
        <time>2012-07-29T13:11:03Z</time>
      </trkpt>
      <trkpt lat="44.78175" lon="-0.31738">
        <ele>67</ele>
        <time>2012-07-29T13:11:06Z</time>
      </trkpt>
      <trkpt lat="44.78185" lon="-0.31737">
        <ele>67</ele>
        <time>2012-07-29T13:11:09Z</time>
      </trkpt>
      <trkpt lat="44.78196" lon="-0.31737">
        <ele>67</ele>
        <time>2012-07-29T13:11:12Z</time>
      </trkpt>
      <trkpt lat="44.78207" lon="-0.31739">
        <ele>67</ele>
        <time>2012-07-29T13:11:15Z</time>
      </trkpt>
      <trkpt lat="44.78216" lon="-0.31743">
        <ele>67</ele>
        <time>2012-07-29T13:11:18Z</time>
      </trkpt>
      <trkpt lat="44.78226" lon="-0.31747">
        <ele>67</ele>
        <time>2012-07-29T13:11:21Z</time>
      </trkpt>
      <trkpt lat="44.78239" lon="-0.31746">
        <ele>67</ele>
        <time>2012-07-29T13:11:24Z</time>
      </trkpt>
      <trkpt lat="44.78251" lon="-0.31746">
        <ele>67</ele>
        <time>2012-07-29T13:11:26Z</time>
      </trkpt>
      <trkpt lat="44.78263" lon="-0.31747">
        <ele>67</ele>
        <time>2012-07-29T13:11:28Z</time>
      </trkpt>
      <trkpt lat="44.78272" lon="-0.31749">
        <ele>67</ele>
        <time>2012-07-29T13:11:30Z</time>
      </trkpt>
      <trkpt lat="44.78283" lon="-0.3175">
        <ele>67</ele>
        <time>2012-07-29T13:11:32Z</time>
      </trkpt>
      <trkpt lat="44.78296" lon="-0.31753">
        <ele>66</ele>
        <time>2012-07-29T13:11:35Z</time>
      </trkpt>
      <trkpt lat="44.78308" lon="-0.31759">
        <ele>66</ele>
        <time>2012-07-29T13:11:38Z</time>
      </trkpt>
      <trkpt lat="44.78319" lon="-0.3176">
        <ele>66</ele>
        <time>2012-07-29T13:11:40Z</time>
      </trkpt>
      <trkpt lat="44.7833" lon="-0.31764">
        <ele>65</ele>
        <time>2012-07-29T13:11:42Z</time>
      </trkpt>
      <trkpt lat="44.78352" lon="-0.31767">
        <ele>65</ele>
        <time>2012-07-29T13:11:46Z</time>
      </trkpt>
      <trkpt lat="44.78367" lon="-0.31767">
        <ele>64</ele>
        <time>2012-07-29T13:11:48Z</time>
      </trkpt>
      <trkpt lat="44.7838" lon="-0.31764">
        <ele>63</ele>
        <time>2012-07-29T13:11:50Z</time>
      </trkpt>
      <trkpt lat="44.78392" lon="-0.31762">
        <ele>62</ele>
        <time>2012-07-29T13:11:52Z</time>
      </trkpt>
      <trkpt lat="44.78403" lon="-0.31755">
        <ele>62</ele>
        <time>2012-07-29T13:11:54Z</time>
      </trkpt>
      <trkpt lat="44.78418" lon="-0.31748">
        <ele>61</ele>
        <time>2012-07-29T13:11:57Z</time>
      </trkpt>
      <trkpt lat="44.7843" lon="-0.31747">
        <ele>60</ele>
        <time>2012-07-29T13:11:59Z</time>
      </trkpt>
      <trkpt lat="44.78442" lon="-0.31746">
        <ele>60</ele>
        <time>2012-07-29T13:12:02Z</time>
      </trkpt>
      <trkpt lat="44.78452" lon="-0.31748">
        <ele>60</ele>
        <time>2012-07-29T13:12:04Z</time>
      </trkpt>
      <trkpt lat="44.78462" lon="-0.31751">
        <ele>60</ele>
        <time>2012-07-29T13:12:06Z</time>
      </trkpt>
      <trkpt lat="44.78476" lon="-0.31755">
        <ele>60</ele>
        <time>2012-07-29T13:12:09Z</time>
      </trkpt>
      <trkpt lat="44.78486" lon="-0.31757">
        <ele>60</ele>
        <time>2012-07-29T13:12:11Z</time>
      </trkpt>
      <trkpt lat="44.78497" lon="-0.31759">
        <ele>60</ele>
        <time>2012-07-29T13:12:14Z</time>
      </trkpt>
      <trkpt lat="44.7851" lon="-0.31764">
        <ele>61</ele>
        <time>2012-07-29T13:12:17Z</time>
      </trkpt>
      <trkpt lat="44.78522" lon="-0.31769">
        <ele>61</ele>
        <time>2012-07-29T13:12:20Z</time>
      </trkpt>
      <trkpt lat="44.78533" lon="-0.31775">
        <ele>61</ele>
        <time>2012-07-29T13:12:23Z</time>
      </trkpt>
      <trkpt lat="44.78546" lon="-0.31782">
        <ele>62</ele>
        <time>2012-07-29T13:12:26Z</time>
      </trkpt>
      <trkpt lat="44.78557" lon="-0.31789">
        <ele>63</ele>
        <time>2012-07-29T13:12:29Z</time>
      </trkpt>
      <trkpt lat="44.78569" lon="-0.31794">
        <ele>63</ele>
        <time>2012-07-29T13:12:32Z</time>
      </trkpt>
      <trkpt lat="44.78582" lon="-0.31797">
        <ele>64</ele>
        <time>2012-07-29T13:12:35Z</time>
      </trkpt>
      <trkpt lat="44.78592" lon="-0.318">
        <ele>64</ele>
        <time>2012-07-29T13:12:37Z</time>
      </trkpt>
      <trkpt lat="44.78605" lon="-0.31802">
        <ele>65</ele>
        <time>2012-07-29T13:12:40Z</time>
      </trkpt>
      <trkpt lat="44.78615" lon="-0.31804">
        <ele>65</ele>
        <time>2012-07-29T13:12:43Z</time>
      </trkpt>
      <trkpt lat="44.78627" lon="-0.31805">
        <ele>65</ele>
        <time>2012-07-29T13:12:47Z</time>
      </trkpt>
      <trkpt lat="44.78638" lon="-0.31806">
        <ele>66</ele>
        <time>2012-07-29T13:12:51Z</time>
      </trkpt>
      <trkpt lat="44.78647" lon="-0.31806">
        <ele>66</ele>
        <time>2012-07-29T13:12:55Z</time>
      </trkpt>
      <trkpt lat="44.78654" lon="-0.31794">
        <ele>66</ele>
        <time>2012-07-29T13:14:55Z</time>
      </trkpt>
      <trkpt lat="44.78656" lon="-0.31781">
        <ele>66</ele>
        <time>2012-07-29T13:15:01Z</time>
      </trkpt>
      <trkpt lat="44.78659" lon="-0.31766">
        <ele>66</ele>
        <time>2012-07-29T13:15:05Z</time>
      </trkpt>
      <trkpt lat="44.78661" lon="-0.31753">
        <ele>66</ele>
        <time>2012-07-29T13:15:08Z</time>
      </trkpt>
      <trkpt lat="44.78665" lon="-0.31736">
        <ele>66</ele>
        <time>2012-07-29T13:15:12Z</time>
      </trkpt>
      <trkpt lat="44.78669" lon="-0.31724">
        <ele>66</ele>
        <time>2012-07-29T13:15:14Z</time>
      </trkpt>
      <trkpt lat="44.78676" lon="-0.31707">
        <ele>66</ele>
        <time>2012-07-29T13:15:17Z</time>
      </trkpt>
      <trkpt lat="44.78681" lon="-0.31689">
        <ele>66</ele>
        <time>2012-07-29T13:15:20Z</time>
      </trkpt>
      <trkpt lat="44.78683" lon="-0.31674">
        <ele>67</ele>
        <time>2012-07-29T13:15:23Z</time>
      </trkpt>
      <trkpt lat="44.78686" lon="-0.31656">
        <ele>67</ele>
        <time>2012-07-29T13:15:26Z</time>
      </trkpt>
      <trkpt lat="44.7869" lon="-0.31643">
        <ele>67</ele>
        <time>2012-07-29T13:15:28Z</time>
      </trkpt>
      <trkpt lat="44.78697" lon="-0.31628">
        <ele>68</ele>
        <time>2012-07-29T13:15:31Z</time>
      </trkpt>
      <trkpt lat="44.78699" lon="-0.31613">
        <ele>68</ele>
        <time>2012-07-29T13:15:34Z</time>
      </trkpt>
      <trkpt lat="44.78698" lon="-0.31596">
        <ele>68</ele>
        <time>2012-07-29T13:15:37Z</time>
      </trkpt>
      <trkpt lat="44.78696" lon="-0.3158">
        <ele>68</ele>
        <time>2012-07-29T13:15:40Z</time>
      </trkpt>
      <trkpt lat="44.78695" lon="-0.31562">
        <ele>69</ele>
        <time>2012-07-29T13:15:43Z</time>
      </trkpt>
      <trkpt lat="44.78695" lon="-0.31545">
        <ele>69</ele>
        <time>2012-07-29T13:15:46Z</time>
      </trkpt>
      <trkpt lat="44.78694" lon="-0.31528">
        <ele>69</ele>
        <time>2012-07-29T13:15:49Z</time>
      </trkpt>
      <trkpt lat="44.78693" lon="-0.31513">
        <ele>69</ele>
        <time>2012-07-29T13:15:52Z</time>
      </trkpt>
      <trkpt lat="44.78694" lon="-0.31497">
        <ele>70</ele>
        <time>2012-07-29T13:15:55Z</time>
      </trkpt>
      <trkpt lat="44.78693" lon="-0.31481">
        <ele>70</ele>
        <time>2012-07-29T13:15:58Z</time>
      </trkpt>
      <trkpt lat="44.78692" lon="-0.31464">
        <ele>71</ele>
        <time>2012-07-29T13:16:01Z</time>
      </trkpt>
      <trkpt lat="44.78692" lon="-0.31449">
        <ele>71</ele>
        <time>2012-07-29T13:16:04Z</time>
      </trkpt>
      <trkpt lat="44.7869" lon="-0.31435">
        <ele>71</ele>
        <time>2012-07-29T13:16:07Z</time>
      </trkpt>
      <trkpt lat="44.78689" lon="-0.3142">
        <ele>72</ele>
        <time>2012-07-29T13:16:10Z</time>
      </trkpt>
      <trkpt lat="44.78689" lon="-0.31402">
        <ele>72</ele>
        <time>2012-07-29T13:16:13Z</time>
      </trkpt>
      <trkpt lat="44.78688" lon="-0.31387">
        <ele>72</ele>
        <time>2012-07-29T13:16:16Z</time>
      </trkpt>
      <trkpt lat="44.78688" lon="-0.31372">
        <ele>72</ele>
        <time>2012-07-29T13:16:19Z</time>
      </trkpt>
      <trkpt lat="44.78686" lon="-0.31357">
        <ele>72</ele>
        <time>2012-07-29T13:16:22Z</time>
      </trkpt>
      <trkpt lat="44.78685" lon="-0.3134">
        <ele>72</ele>
        <time>2012-07-29T13:16:25Z</time>
      </trkpt>
      <trkpt lat="44.78684" lon="-0.31324">
        <ele>72</ele>
        <time>2012-07-29T13:16:28Z</time>
      </trkpt>
      <trkpt lat="44.78683" lon="-0.31309">
        <ele>72</ele>
        <time>2012-07-29T13:16:31Z</time>
      </trkpt>
      <trkpt lat="44.78684" lon="-0.31291">
        <ele>72</ele>
        <time>2012-07-29T13:16:34Z</time>
      </trkpt>
      <trkpt lat="44.78684" lon="-0.31278">
        <ele>72</ele>
        <time>2012-07-29T13:16:36Z</time>
      </trkpt>
      <trkpt lat="44.78684" lon="-0.31263">
        <ele>72</ele>
        <time>2012-07-29T13:16:38Z</time>
      </trkpt>
      <trkpt lat="44.78686" lon="-0.31248">
        <ele>71</ele>
        <time>2012-07-29T13:16:40Z</time>
      </trkpt>
      <trkpt lat="44.78686" lon="-0.31232">
        <ele>71</ele>
        <time>2012-07-29T13:16:42Z</time>
      </trkpt>
      <trkpt lat="44.78687" lon="-0.31215">
        <ele>71</ele>
        <time>2012-07-29T13:16:44Z</time>
      </trkpt>
      <trkpt lat="44.78688" lon="-0.31197">
        <ele>70</ele>
        <time>2012-07-29T13:16:46Z</time>
      </trkpt>
      <trkpt lat="44.78689" lon="-0.31179">
        <ele>70</ele>
        <time>2012-07-29T13:16:48Z</time>
      </trkpt>
      <trkpt lat="44.7869" lon="-0.3116">
        <ele>70</ele>
        <time>2012-07-29T13:16:50Z</time>
      </trkpt>
      <trkpt lat="44.78692" lon="-0.31142">
        <ele>70</ele>
        <time>2012-07-29T13:16:52Z</time>
      </trkpt>
      <trkpt lat="44.78692" lon="-0.31124">
        <ele>69</ele>
        <time>2012-07-29T13:16:54Z</time>
      </trkpt>
      <trkpt lat="44.78693" lon="-0.31107">
        <ele>69</ele>
        <time>2012-07-29T13:16:56Z</time>
      </trkpt>
      <trkpt lat="44.78693" lon="-0.3109">
        <ele>69</ele>
        <time>2012-07-29T13:16:58Z</time>
      </trkpt>
      <trkpt lat="44.78695" lon="-0.31074">
        <ele>69</ele>
        <time>2012-07-29T13:17:00Z</time>
      </trkpt>
      <trkpt lat="44.78696" lon="-0.31057">
        <ele>69</ele>
        <time>2012-07-29T13:17:02Z</time>
      </trkpt>
      <trkpt lat="44.78697" lon="-0.3104">
        <ele>70</ele>
        <time>2012-07-29T13:17:04Z</time>
      </trkpt>
      <trkpt lat="44.78699" lon="-0.31024">
        <ele>70</ele>
        <time>2012-07-29T13:17:06Z</time>
      </trkpt>
      <trkpt lat="44.787" lon="-0.31008">
        <ele>70</ele>
        <time>2012-07-29T13:17:08Z</time>
      </trkpt>
      <trkpt lat="44.78701" lon="-0.30994">
        <ele>70</ele>
        <time>2012-07-29T13:17:10Z</time>
      </trkpt>
      <trkpt lat="44.78701" lon="-0.30978">
        <ele>70</ele>
        <time>2012-07-29T13:17:12Z</time>
      </trkpt>
      <trkpt lat="44.78702" lon="-0.30964">
        <ele>70</ele>
        <time>2012-07-29T13:17:14Z</time>
      </trkpt>
      <trkpt lat="44.78704" lon="-0.30949">
        <ele>70</ele>
        <time>2012-07-29T13:17:16Z</time>
      </trkpt>
      <trkpt lat="44.78704" lon="-0.30934">
        <ele>70</ele>
        <time>2012-07-29T13:17:18Z</time>
      </trkpt>
      <trkpt lat="44.78703" lon="-0.3092">
        <ele>70</ele>
        <time>2012-07-29T13:17:20Z</time>
      </trkpt>
      <trkpt lat="44.78704" lon="-0.30906">
        <ele>70</ele>
        <time>2012-07-29T13:17:22Z</time>
      </trkpt>
      <trkpt lat="44.78705" lon="-0.3089">
        <ele>70</ele>
        <time>2012-07-29T13:17:24Z</time>
      </trkpt>
      <trkpt lat="44.78707" lon="-0.30875">
        <ele>70</ele>
        <time>2012-07-29T13:17:26Z</time>
      </trkpt>
      <trkpt lat="44.78708" lon="-0.3086">
        <ele>70</ele>
        <time>2012-07-29T13:17:28Z</time>
      </trkpt>
      <trkpt lat="44.78709" lon="-0.30845">
        <ele>70</ele>
        <time>2012-07-29T13:17:30Z</time>
      </trkpt>
      <trkpt lat="44.7871" lon="-0.30829">
        <ele>70</ele>
        <time>2012-07-29T13:17:32Z</time>
      </trkpt>
      <trkpt lat="44.78711" lon="-0.30815">
        <ele>71</ele>
        <time>2012-07-29T13:17:34Z</time>
      </trkpt>
      <trkpt lat="44.78712" lon="-0.30799">
        <ele>71</ele>
        <time>2012-07-29T13:17:36Z</time>
      </trkpt>
      <trkpt lat="44.78713" lon="-0.30784">
        <ele>71</ele>
        <time>2012-07-29T13:17:38Z</time>
      </trkpt>
      <trkpt lat="44.78715" lon="-0.30768">
        <ele>71</ele>
        <time>2012-07-29T13:17:40Z</time>
      </trkpt>
      <trkpt lat="44.78716" lon="-0.30755">
        <ele>71</ele>
        <time>2012-07-29T13:17:42Z</time>
      </trkpt>
      <trkpt lat="44.78717" lon="-0.30741">
        <ele>71</ele>
        <time>2012-07-29T13:17:44Z</time>
      </trkpt>
      <trkpt lat="44.78718" lon="-0.30728">
        <ele>72</ele>
        <time>2012-07-29T13:17:46Z</time>
      </trkpt>
      <trkpt lat="44.7872" lon="-0.30714">
        <ele>72</ele>
        <time>2012-07-29T13:17:48Z</time>
      </trkpt>
      <trkpt lat="44.7872" lon="-0.30695">
        <ele>72</ele>
        <time>2012-07-29T13:17:51Z</time>
      </trkpt>
      <trkpt lat="44.78723" lon="-0.30677">
        <ele>72</ele>
        <time>2012-07-29T13:17:54Z</time>
      </trkpt>
      <trkpt lat="44.78723" lon="-0.30663">
        <ele>72</ele>
        <time>2012-07-29T13:17:56Z</time>
      </trkpt>
      <trkpt lat="44.78724" lon="-0.3065">
        <ele>71</ele>
        <time>2012-07-29T13:17:58Z</time>
      </trkpt>
      <trkpt lat="44.78726" lon="-0.30636">
        <ele>71</ele>
        <time>2012-07-29T13:18:00Z</time>
      </trkpt>
      <trkpt lat="44.78727" lon="-0.30622">
        <ele>71</ele>
        <time>2012-07-29T13:18:02Z</time>
      </trkpt>
      <trkpt lat="44.78727" lon="-0.30607">
        <ele>71</ele>
        <time>2012-07-29T13:18:04Z</time>
      </trkpt>
      <trkpt lat="44.78727" lon="-0.30591">
        <ele>71</ele>
        <time>2012-07-29T13:18:06Z</time>
      </trkpt>
      <trkpt lat="44.78727" lon="-0.30577">
        <ele>71</ele>
        <time>2012-07-29T13:18:08Z</time>
      </trkpt>
      <trkpt lat="44.78727" lon="-0.30563">
        <ele>72</ele>
        <time>2012-07-29T13:18:10Z</time>
      </trkpt>
      <trkpt lat="44.78728" lon="-0.30543">
        <ele>72</ele>
        <time>2012-07-29T13:18:13Z</time>
      </trkpt>
      <trkpt lat="44.78729" lon="-0.30529">
        <ele>72</ele>
        <time>2012-07-29T13:18:15Z</time>
      </trkpt>
      <trkpt lat="44.78729" lon="-0.30516">
        <ele>72</ele>
        <time>2012-07-29T13:18:17Z</time>
      </trkpt>
      <trkpt lat="44.78729" lon="-0.30501">
        <ele>72</ele>
        <time>2012-07-29T13:18:19Z</time>
      </trkpt>
      <trkpt lat="44.78729" lon="-0.30483">
        <ele>72</ele>
        <time>2012-07-29T13:18:22Z</time>
      </trkpt>
      <trkpt lat="44.7873" lon="-0.30465">
        <ele>72</ele>
        <time>2012-07-29T13:18:25Z</time>
      </trkpt>
      <trkpt lat="44.78729" lon="-0.30448">
        <ele>72</ele>
        <time>2012-07-29T13:18:28Z</time>
      </trkpt>
      <trkpt lat="44.78727" lon="-0.3043">
        <ele>73</ele>
        <time>2012-07-29T13:18:31Z</time>
      </trkpt>
      <trkpt lat="44.78725" lon="-0.30413">
        <ele>73</ele>
        <time>2012-07-29T13:18:34Z</time>
      </trkpt>
      <trkpt lat="44.78725" lon="-0.30395">
        <ele>73</ele>
        <time>2012-07-29T13:18:37Z</time>
      </trkpt>
      <trkpt lat="44.78724" lon="-0.30377">
        <ele>73</ele>
        <time>2012-07-29T13:18:40Z</time>
      </trkpt>
      <trkpt lat="44.78725" lon="-0.3036">
        <ele>73</ele>
        <time>2012-07-29T13:18:43Z</time>
      </trkpt>
      <trkpt lat="44.78725" lon="-0.30346">
        <ele>73</ele>
        <time>2012-07-29T13:18:46Z</time>
      </trkpt>
      <trkpt lat="44.78729" lon="-0.30333">
        <ele>73</ele>
        <time>2012-07-29T13:18:56Z</time>
      </trkpt>
      <trkpt lat="44.78726" lon="-0.3032">
        <ele>73</ele>
        <time>2012-07-29T13:19:00Z</time>
      </trkpt>
      <trkpt lat="44.78727" lon="-0.30305">
        <ele>74</ele>
        <time>2012-07-29T13:19:05Z</time>
      </trkpt>
      <trkpt lat="44.78725" lon="-0.30291">
        <ele>74</ele>
        <time>2012-07-29T13:19:11Z</time>
      </trkpt>
      <trkpt lat="44.78717" lon="-0.30282">
        <ele>74</ele>
        <time>2012-07-29T13:19:16Z</time>
      </trkpt>
      <trkpt lat="44.78717" lon="-0.30269">
        <ele>74</ele>
        <time>2012-07-29T13:19:30Z</time>
      </trkpt>
      <trkpt lat="44.78716" lon="-0.30254">
        <ele>74</ele>
        <time>2012-07-29T13:19:38Z</time>
      </trkpt>
      <trkpt lat="44.78716" lon="-0.30238">
        <ele>74</ele>
        <time>2012-07-29T13:19:44Z</time>
      </trkpt>
      <trkpt lat="44.78716" lon="-0.30223">
        <ele>75</ele>
        <time>2012-07-29T13:19:48Z</time>
      </trkpt>
      <trkpt lat="44.78717" lon="-0.30207">
        <ele>75</ele>
        <time>2012-07-29T13:19:53Z</time>
      </trkpt>
      <trkpt lat="44.78715" lon="-0.3019">
        <ele>75</ele>
        <time>2012-07-29T13:19:57Z</time>
      </trkpt>
      <trkpt lat="44.78715" lon="-0.30172">
        <ele>76</ele>
        <time>2012-07-29T13:20:01Z</time>
      </trkpt>
      <trkpt lat="44.78713" lon="-0.30157">
        <ele>76</ele>
        <time>2012-07-29T13:20:05Z</time>
      </trkpt>
      <trkpt lat="44.78715" lon="-0.30143">
        <ele>76</ele>
        <time>2012-07-29T13:20:09Z</time>
      </trkpt>
      <trkpt lat="44.78713" lon="-0.3013">
        <ele>76</ele>
        <time>2012-07-29T13:20:21Z</time>
      </trkpt>
      <trkpt lat="44.78713" lon="-0.30116">
        <ele>77</ele>
        <time>2012-07-29T13:20:31Z</time>
      </trkpt>
      <trkpt lat="44.7871" lon="-0.30102">
        <ele>77</ele>
        <time>2012-07-29T13:20:38Z</time>
      </trkpt>
      <trkpt lat="44.78709" lon="-0.30086">
        <ele>77</ele>
        <time>2012-07-29T13:20:42Z</time>
      </trkpt>
      <trkpt lat="44.78709" lon="-0.30072">
        <ele>77</ele>
        <time>2012-07-29T13:20:45Z</time>
      </trkpt>
      <trkpt lat="44.78709" lon="-0.30058">
        <ele>78</ele>
        <time>2012-07-29T13:20:48Z</time>
      </trkpt>
      <trkpt lat="44.78712" lon="-0.30044">
        <ele>78</ele>
        <time>2012-07-29T13:20:52Z</time>
      </trkpt>
      <trkpt lat="44.7871" lon="-0.30026">
        <ele>79</ele>
        <time>2012-07-29T13:20:56Z</time>
      </trkpt>
      <trkpt lat="44.78713" lon="-0.30014">
        <ele>79</ele>
        <time>2012-07-29T13:20:59Z</time>
      </trkpt>
      <trkpt lat="44.78712" lon="-0.3">
        <ele>79</ele>
        <time>2012-07-29T13:21:02Z</time>
      </trkpt>
      <trkpt lat="44.78709" lon="-0.29986">
        <ele>80</ele>
        <time>2012-07-29T13:21:06Z</time>
      </trkpt>
      <trkpt lat="44.78707" lon="-0.29969">
        <ele>80</ele>
        <time>2012-07-29T13:21:10Z</time>
      </trkpt>
      <trkpt lat="44.78707" lon="-0.29955">
        <ele>80</ele>
        <time>2012-07-29T13:21:13Z</time>
      </trkpt>
      <trkpt lat="44.78706" lon="-0.29942">
        <ele>80</ele>
        <time>2012-07-29T13:21:16Z</time>
      </trkpt>
      <trkpt lat="44.78706" lon="-0.29928">
        <ele>81</ele>
        <time>2012-07-29T13:21:19Z</time>
      </trkpt>
      <trkpt lat="44.78704" lon="-0.29915">
        <ele>81</ele>
        <time>2012-07-29T13:21:22Z</time>
      </trkpt>
      <trkpt lat="44.78703" lon="-0.299">
        <ele>81</ele>
        <time>2012-07-29T13:21:25Z</time>
      </trkpt>
      <trkpt lat="44.78704" lon="-0.29886">
        <ele>81</ele>
        <time>2012-07-29T13:21:28Z</time>
      </trkpt>
      <trkpt lat="44.78703" lon="-0.29872">
        <ele>82</ele>
        <time>2012-07-29T13:21:31Z</time>
      </trkpt>
      <trkpt lat="44.78701" lon="-0.29858">
        <ele>82</ele>
        <time>2012-07-29T13:21:34Z</time>
      </trkpt>
      <trkpt lat="44.78699" lon="-0.29843">
        <ele>82</ele>
        <time>2012-07-29T13:21:37Z</time>
      </trkpt>
      <trkpt lat="44.78695" lon="-0.2983">
        <ele>83</ele>
        <time>2012-07-29T13:21:40Z</time>
      </trkpt>
      <trkpt lat="44.78693" lon="-0.29815">
        <ele>83</ele>
        <time>2012-07-29T13:21:43Z</time>
      </trkpt>
      <trkpt lat="44.78693" lon="-0.29802">
        <ele>83</ele>
        <time>2012-07-29T13:21:46Z</time>
      </trkpt>
      <trkpt lat="44.78693" lon="-0.29787">
        <ele>84</ele>
        <time>2012-07-29T13:21:49Z</time>
      </trkpt>
      <trkpt lat="44.78693" lon="-0.29771">
        <ele>84</ele>
        <time>2012-07-29T13:21:53Z</time>
      </trkpt>
      <trkpt lat="44.7869" lon="-0.29759">
        <ele>84</ele>
        <time>2012-07-29T13:21:58Z</time>
      </trkpt>
      <trkpt lat="44.78686" lon="-0.29745">
        <ele>84</ele>
        <time>2012-07-29T13:23:17Z</time>
      </trkpt>
      <trkpt lat="44.78681" lon="-0.29732">
        <ele>84</ele>
        <time>2012-07-29T13:23:23Z</time>
      </trkpt>
      <trkpt lat="44.78678" lon="-0.29719">
        <ele>84</ele>
        <time>2012-07-29T13:23:32Z</time>
      </trkpt>
      <trkpt lat="44.78674" lon="-0.29706">
        <ele>84</ele>
        <time>2012-07-29T13:23:38Z</time>
      </trkpt>
      <trkpt lat="44.78668" lon="-0.29695">
        <ele>83</ele>
        <time>2012-07-29T13:23:42Z</time>
      </trkpt>
      <trkpt lat="44.7866" lon="-0.29681">
        <ele>83</ele>
        <time>2012-07-29T13:23:46Z</time>
      </trkpt>
      <trkpt lat="44.78652" lon="-0.29671">
        <ele>82</ele>
        <time>2012-07-29T13:23:49Z</time>
      </trkpt>
      <trkpt lat="44.78644" lon="-0.29661">
        <ele>82</ele>
        <time>2012-07-29T13:23:52Z</time>
      </trkpt>
      <trkpt lat="44.78637" lon="-0.29649">
        <ele>81</ele>
        <time>2012-07-29T13:23:55Z</time>
      </trkpt>
      <trkpt lat="44.78629" lon="-0.29637">
        <ele>80</ele>
        <time>2012-07-29T13:23:58Z</time>
      </trkpt>
      <trkpt lat="44.78622" lon="-0.29624">
        <ele>79</ele>
        <time>2012-07-29T13:24:01Z</time>
      </trkpt>
      <trkpt lat="44.78613" lon="-0.29613">
        <ele>78</ele>
        <time>2012-07-29T13:24:03Z</time>
      </trkpt>
      <trkpt lat="44.78605" lon="-0.29603">
        <ele>77</ele>
        <time>2012-07-29T13:24:05Z</time>
      </trkpt>
      <trkpt lat="44.78597" lon="-0.29591">
        <ele>76</ele>
        <time>2012-07-29T13:24:07Z</time>
      </trkpt>
      <trkpt lat="44.78588" lon="-0.29578">
        <ele>76</ele>
        <time>2012-07-29T13:24:09Z</time>
      </trkpt>
      <trkpt lat="44.7858" lon="-0.29567">
        <ele>75</ele>
        <time>2012-07-29T13:24:11Z</time>
      </trkpt>
      <trkpt lat="44.78573" lon="-0.29556">
        <ele>75</ele>
        <time>2012-07-29T13:24:13Z</time>
      </trkpt>
      <trkpt lat="44.78567" lon="-0.29545">
        <ele>74</ele>
        <time>2012-07-29T13:24:15Z</time>
      </trkpt>
      <trkpt lat="44.78564" lon="-0.29531">
        <ele>74</ele>
        <time>2012-07-29T13:24:17Z</time>
      </trkpt>
      <trkpt lat="44.78559" lon="-0.29514">
        <ele>74</ele>
        <time>2012-07-29T13:24:20Z</time>
      </trkpt>
      <trkpt lat="44.78553" lon="-0.29502">
        <ele>74</ele>
        <time>2012-07-29T13:24:22Z</time>
      </trkpt>
      <trkpt lat="44.78546" lon="-0.2949">
        <ele>73</ele>
        <time>2012-07-29T13:24:24Z</time>
      </trkpt>
      <trkpt lat="44.78537" lon="-0.29478">
        <ele>73</ele>
        <time>2012-07-29T13:24:26Z</time>
      </trkpt>
      <trkpt lat="44.7853" lon="-0.29467">
        <ele>72</ele>
        <time>2012-07-29T13:24:28Z</time>
      </trkpt>
      <trkpt lat="44.78524" lon="-0.29453">
        <ele>72</ele>
        <time>2012-07-29T13:24:30Z</time>
      </trkpt>
      <trkpt lat="44.78516" lon="-0.29441">
        <ele>71</ele>
        <time>2012-07-29T13:24:32Z</time>
      </trkpt>
      <trkpt lat="44.78508" lon="-0.29428">
        <ele>71</ele>
        <time>2012-07-29T13:24:34Z</time>
      </trkpt>
      <trkpt lat="44.78501" lon="-0.29415">
        <ele>71</ele>
        <time>2012-07-29T13:24:36Z</time>
      </trkpt>
      <trkpt lat="44.78494" lon="-0.29403">
        <ele>70</ele>
        <time>2012-07-29T13:24:38Z</time>
      </trkpt>
      <trkpt lat="44.78487" lon="-0.29389">
        <ele>70</ele>
        <time>2012-07-29T13:24:40Z</time>
      </trkpt>
      <trkpt lat="44.78479" lon="-0.29378">
        <ele>70</ele>
        <time>2012-07-29T13:24:42Z</time>
      </trkpt>
      <trkpt lat="44.78473" lon="-0.29367">
        <ele>70</ele>
        <time>2012-07-29T13:24:44Z</time>
      </trkpt>
      <trkpt lat="44.78465" lon="-0.29356">
        <ele>70</ele>
        <time>2012-07-29T13:24:47Z</time>
      </trkpt>
      <trkpt lat="44.78474" lon="-0.29361">
        <ele>70</ele>
        <time>2012-07-29T13:25:17Z</time>
      </trkpt>
      <trkpt lat="44.78469" lon="-0.29348">
        <ele>70</ele>
        <time>2012-07-29T13:25:27Z</time>
      </trkpt>
      <trkpt lat="44.78464" lon="-0.29336">
        <ele>69</ele>
        <time>2012-07-29T13:25:32Z</time>
      </trkpt>
      <trkpt lat="44.78461" lon="-0.29324">
        <ele>69</ele>
        <time>2012-07-29T13:25:36Z</time>
      </trkpt>
      <trkpt lat="44.78462" lon="-0.2931">
        <ele>69</ele>
        <time>2012-07-29T13:25:41Z</time>
      </trkpt>
      <trkpt lat="44.78467" lon="-0.29297">
        <ele>70</ele>
        <time>2012-07-29T13:25:46Z</time>
      </trkpt>
      <trkpt lat="44.78474" lon="-0.29284">
        <ele>70</ele>
        <time>2012-07-29T13:25:51Z</time>
      </trkpt>
      <trkpt lat="44.78482" lon="-0.29275">
        <ele>71</ele>
        <time>2012-07-29T13:25:55Z</time>
      </trkpt>
      <trkpt lat="44.78489" lon="-0.29265">
        <ele>71</ele>
        <time>2012-07-29T13:26:00Z</time>
      </trkpt>
      <trkpt lat="44.78495" lon="-0.29254">
        <ele>71</ele>
        <time>2012-07-29T13:26:04Z</time>
      </trkpt>
      <trkpt lat="44.78504" lon="-0.29242">
        <ele>71</ele>
        <time>2012-07-29T13:26:08Z</time>
      </trkpt>
      <trkpt lat="44.78512" lon="-0.29233">
        <ele>71</ele>
        <time>2012-07-29T13:26:11Z</time>
      </trkpt>
      <trkpt lat="44.78519" lon="-0.29224">
        <ele>71</ele>
        <time>2012-07-29T13:26:14Z</time>
      </trkpt>
      <trkpt lat="44.78527" lon="-0.29213">
        <ele>71</ele>
        <time>2012-07-29T13:26:17Z</time>
      </trkpt>
      <trkpt lat="44.78536" lon="-0.29202">
        <ele>71</ele>
        <time>2012-07-29T13:26:20Z</time>
      </trkpt>
      <trkpt lat="44.78545" lon="-0.29191">
        <ele>70</ele>
        <time>2012-07-29T13:26:23Z</time>
      </trkpt>
      <trkpt lat="44.78553" lon="-0.2918">
        <ele>70</ele>
        <time>2012-07-29T13:26:26Z</time>
      </trkpt>
      <trkpt lat="44.78561" lon="-0.2917">
        <ele>70</ele>
        <time>2012-07-29T13:26:29Z</time>
      </trkpt>
      <trkpt lat="44.7857" lon="-0.29159">
        <ele>70</ele>
        <time>2012-07-29T13:26:32Z</time>
      </trkpt>
      <trkpt lat="44.78579" lon="-0.29151">
        <ele>70</ele>
        <time>2012-07-29T13:26:35Z</time>
      </trkpt>
      <trkpt lat="44.78589" lon="-0.29145">
        <ele>70</ele>
        <time>2012-07-29T13:26:38Z</time>
      </trkpt>
      <trkpt lat="44.786" lon="-0.29134">
        <ele>70</ele>
        <time>2012-07-29T13:26:41Z</time>
      </trkpt>
      <trkpt lat="44.78611" lon="-0.29122">
        <ele>69</ele>
        <time>2012-07-29T13:26:44Z</time>
      </trkpt>
      <trkpt lat="44.78621" lon="-0.29113">
        <ele>69</ele>
        <time>2012-07-29T13:26:47Z</time>
      </trkpt>
      <trkpt lat="44.78631" lon="-0.29105">
        <ele>69</ele>
        <time>2012-07-29T13:26:50Z</time>
      </trkpt>
      <trkpt lat="44.78643" lon="-0.29095">
        <ele>69</ele>
        <time>2012-07-29T13:26:53Z</time>
      </trkpt>
      <trkpt lat="44.78651" lon="-0.29088">
        <ele>69</ele>
        <time>2012-07-29T13:26:55Z</time>
      </trkpt>
      <trkpt lat="44.78663" lon="-0.29079">
        <ele>69</ele>
        <time>2012-07-29T13:26:58Z</time>
      </trkpt>
      <trkpt lat="44.78674" lon="-0.2907">
        <ele>69</ele>
        <time>2012-07-29T13:27:01Z</time>
      </trkpt>
      <trkpt lat="44.78683" lon="-0.29064">
        <ele>68</ele>
        <time>2012-07-29T13:27:03Z</time>
      </trkpt>
      <trkpt lat="44.78691" lon="-0.29057">
        <ele>68</ele>
        <time>2012-07-29T13:27:05Z</time>
      </trkpt>
      <trkpt lat="44.78702" lon="-0.29047">
        <ele>68</ele>
        <time>2012-07-29T13:27:08Z</time>
      </trkpt>
      <trkpt lat="44.78713" lon="-0.29038">
        <ele>67</ele>
        <time>2012-07-29T13:27:11Z</time>
      </trkpt>
      <trkpt lat="44.78725" lon="-0.29029">
        <ele>67</ele>
        <time>2012-07-29T13:27:14Z</time>
      </trkpt>
      <trkpt lat="44.78737" lon="-0.2902">
        <ele>66</ele>
        <time>2012-07-29T13:27:17Z</time>
      </trkpt>
      <trkpt lat="44.78745" lon="-0.29014">
        <ele>66</ele>
        <time>2012-07-29T13:27:19Z</time>
      </trkpt>
      <trkpt lat="44.78753" lon="-0.29006">
        <ele>66</ele>
        <time>2012-07-29T13:27:21Z</time>
      </trkpt>
      <trkpt lat="44.78761" lon="-0.28998">
        <ele>65</ele>
        <time>2012-07-29T13:27:23Z</time>
      </trkpt>
      <trkpt lat="44.78768" lon="-0.28989">
        <ele>65</ele>
        <time>2012-07-29T13:27:25Z</time>
      </trkpt>
      <trkpt lat="44.78775" lon="-0.28979">
        <ele>65</ele>
        <time>2012-07-29T13:27:27Z</time>
      </trkpt>
      <trkpt lat="44.78782" lon="-0.28969">
        <ele>65</ele>
        <time>2012-07-29T13:27:29Z</time>
      </trkpt>
      <trkpt lat="44.78789" lon="-0.28958">
        <ele>65</ele>
        <time>2012-07-29T13:27:31Z</time>
      </trkpt>
      <trkpt lat="44.78796" lon="-0.28947">
        <ele>64</ele>
        <time>2012-07-29T13:27:33Z</time>
      </trkpt>
      <trkpt lat="44.78804" lon="-0.28937">
        <ele>64</ele>
        <time>2012-07-29T13:27:35Z</time>
      </trkpt>
      <trkpt lat="44.78812" lon="-0.28926">
        <ele>64</ele>
        <time>2012-07-29T13:27:37Z</time>
      </trkpt>
      <trkpt lat="44.78819" lon="-0.28914">
        <ele>64</ele>
        <time>2012-07-29T13:27:39Z</time>
      </trkpt>
      <trkpt lat="44.78827" lon="-0.28903">
        <ele>64</ele>
        <time>2012-07-29T13:27:41Z</time>
      </trkpt>
      <trkpt lat="44.78837" lon="-0.28893">
        <ele>64</ele>
        <time>2012-07-29T13:27:43Z</time>
      </trkpt>
      <trkpt lat="44.78846" lon="-0.28884">
        <ele>64</ele>
        <time>2012-07-29T13:27:45Z</time>
      </trkpt>
      <trkpt lat="44.78856" lon="-0.28876">
        <ele>63</ele>
        <time>2012-07-29T13:27:47Z</time>
      </trkpt>
      <trkpt lat="44.78865" lon="-0.28868">
        <ele>63</ele>
        <time>2012-07-29T13:27:49Z</time>
      </trkpt>
      <trkpt lat="44.78873" lon="-0.2886">
        <ele>63</ele>
        <time>2012-07-29T13:27:51Z</time>
      </trkpt>
      <trkpt lat="44.78883" lon="-0.28849">
        <ele>63</ele>
        <time>2012-07-29T13:27:54Z</time>
      </trkpt>
      <trkpt lat="44.7889" lon="-0.28835">
        <ele>64</ele>
        <time>2012-07-29T13:27:57Z</time>
      </trkpt>
      <trkpt lat="44.78887" lon="-0.28817">
        <ele>64</ele>
        <time>2012-07-29T13:28:00Z</time>
      </trkpt>
      <trkpt lat="44.78882" lon="-0.28799">
        <ele>63</ele>
        <time>2012-07-29T13:28:03Z</time>
      </trkpt>
      <trkpt lat="44.78879" lon="-0.28787">
        <ele>63</ele>
        <time>2012-07-29T13:28:05Z</time>
      </trkpt>
      <trkpt lat="44.78876" lon="-0.28773">
        <ele>63</ele>
        <time>2012-07-29T13:28:07Z</time>
      </trkpt>
      <trkpt lat="44.78873" lon="-0.28761">
        <ele>63</ele>
        <time>2012-07-29T13:28:09Z</time>
      </trkpt>
      <trkpt lat="44.78869" lon="-0.28748">
        <ele>62</ele>
        <time>2012-07-29T13:28:11Z</time>
      </trkpt>
      <trkpt lat="44.78864" lon="-0.28733">
        <ele>62</ele>
        <time>2012-07-29T13:28:14Z</time>
      </trkpt>
      <trkpt lat="44.78862" lon="-0.28717">
        <ele>62</ele>
        <time>2012-07-29T13:28:18Z</time>
      </trkpt>
      <trkpt lat="44.7886" lon="-0.28703">
        <ele>62</ele>
        <time>2012-07-29T13:28:41Z</time>
      </trkpt>
      <trkpt lat="44.78855" lon="-0.28687">
        <ele>61</ele>
        <time>2012-07-29T13:28:46Z</time>
      </trkpt>
      <trkpt lat="44.78852" lon="-0.28672">
        <ele>61</ele>
        <time>2012-07-29T13:28:49Z</time>
      </trkpt>
      <trkpt lat="44.7885" lon="-0.28655">
        <ele>61</ele>
        <time>2012-07-29T13:28:52Z</time>
      </trkpt>
      <trkpt lat="44.78846" lon="-0.28637">
        <ele>60</ele>
        <time>2012-07-29T13:28:55Z</time>
      </trkpt>
      <trkpt lat="44.78844" lon="-0.28618">
        <ele>60</ele>
        <time>2012-07-29T13:28:58Z</time>
      </trkpt>
      <trkpt lat="44.78842" lon="-0.28604">
        <ele>60</ele>
        <time>2012-07-29T13:29:00Z</time>
      </trkpt>
      <trkpt lat="44.7884" lon="-0.28585">
        <ele>59</ele>
        <time>2012-07-29T13:29:03Z</time>
      </trkpt>
      <trkpt lat="44.78839" lon="-0.28568">
        <ele>59</ele>
        <time>2012-07-29T13:29:06Z</time>
      </trkpt>
      <trkpt lat="44.78838" lon="-0.28551">
        <ele>58</ele>
        <time>2012-07-29T13:29:09Z</time>
      </trkpt>
      <trkpt lat="44.78836" lon="-0.28533">
        <ele>57</ele>
        <time>2012-07-29T13:29:12Z</time>
      </trkpt>
      <trkpt lat="44.78835" lon="-0.2852">
        <ele>57</ele>
        <time>2012-07-29T13:29:14Z</time>
      </trkpt>
      <trkpt lat="44.78832" lon="-0.28505">
        <ele>56</ele>
        <time>2012-07-29T13:29:16Z</time>
      </trkpt>
      <trkpt lat="44.78827" lon="-0.28488">
        <ele>56</ele>
        <time>2012-07-29T13:29:18Z</time>
      </trkpt>
      <trkpt lat="44.78823" lon="-0.28471">
        <ele>55</ele>
        <time>2012-07-29T13:29:20Z</time>
      </trkpt>
      <trkpt lat="44.78818" lon="-0.28455">
        <ele>55</ele>
        <time>2012-07-29T13:29:22Z</time>
      </trkpt>
      <trkpt lat="44.78814" lon="-0.28439">
        <ele>55</ele>
        <time>2012-07-29T13:29:24Z</time>
      </trkpt>
      <trkpt lat="44.78809" lon="-0.28423">
        <ele>55</ele>
        <time>2012-07-29T13:29:27Z</time>
      </trkpt>
      <trkpt lat="44.78816" lon="-0.28411">
        <ele>55</ele>
        <time>2012-07-29T13:29:34Z</time>
      </trkpt>
      <trkpt lat="44.78825" lon="-0.28407">
        <ele>55</ele>
        <time>2012-07-29T13:29:41Z</time>
      </trkpt>
      <trkpt lat="44.78834" lon="-0.28399">
        <ele>55</ele>
        <time>2012-07-29T13:29:46Z</time>
      </trkpt>
      <trkpt lat="44.78844" lon="-0.28393">
        <ele>56</ele>
        <time>2012-07-29T13:29:49Z</time>
      </trkpt>
      <trkpt lat="44.78855" lon="-0.28384">
        <ele>56</ele>
        <time>2012-07-29T13:29:52Z</time>
      </trkpt>
      <trkpt lat="44.78864" lon="-0.28375">
        <ele>57</ele>
        <time>2012-07-29T13:29:58Z</time>
      </trkpt>
      <trkpt lat="44.78872" lon="-0.28365">
        <ele>58</ele>
        <time>2012-07-29T13:30:02Z</time>
      </trkpt>
      <trkpt lat="44.7888" lon="-0.28355">
        <ele>58</ele>
        <time>2012-07-29T13:30:05Z</time>
      </trkpt>
      <trkpt lat="44.78887" lon="-0.28345">
        <ele>59</ele>
        <time>2012-07-29T13:30:08Z</time>
      </trkpt>
      <trkpt lat="44.78894" lon="-0.28337">
        <ele>59</ele>
        <time>2012-07-29T13:30:11Z</time>
      </trkpt>
      <trkpt lat="44.78902" lon="-0.28328">
        <ele>59</ele>
        <time>2012-07-29T13:30:14Z</time>
      </trkpt>
      <trkpt lat="44.7891" lon="-0.28319">
        <ele>59</ele>
        <time>2012-07-29T13:30:17Z</time>
      </trkpt>
      <trkpt lat="44.78919" lon="-0.28311">
        <ele>59</ele>
        <time>2012-07-29T13:30:20Z</time>
      </trkpt>
      <trkpt lat="44.78929" lon="-0.28303">
        <ele>59</ele>
        <time>2012-07-29T13:30:23Z</time>
      </trkpt>
      <trkpt lat="44.78941" lon="-0.28295">
        <ele>59</ele>
        <time>2012-07-29T13:30:26Z</time>
      </trkpt>
      <trkpt lat="44.78951" lon="-0.28285">
        <ele>59</ele>
        <time>2012-07-29T13:30:29Z</time>
      </trkpt>
      <trkpt lat="44.78961" lon="-0.28275">
        <ele>59</ele>
        <time>2012-07-29T13:30:32Z</time>
      </trkpt>
      <trkpt lat="44.78972" lon="-0.28266">
        <ele>59</ele>
        <time>2012-07-29T13:30:35Z</time>
      </trkpt>
      <trkpt lat="44.78983" lon="-0.28257">
        <ele>60</ele>
        <time>2012-07-29T13:30:38Z</time>
      </trkpt>
      <trkpt lat="44.78993" lon="-0.28248">
        <ele>60</ele>
        <time>2012-07-29T13:30:41Z</time>
      </trkpt>
      <trkpt lat="44.79002" lon="-0.28241">
        <ele>60</ele>
        <time>2012-07-29T13:30:44Z</time>
      </trkpt>
      <trkpt lat="44.79013" lon="-0.28234">
        <ele>60</ele>
        <time>2012-07-29T13:30:47Z</time>
      </trkpt>
      <trkpt lat="44.79024" lon="-0.28229">
        <ele>60</ele>
        <time>2012-07-29T13:30:50Z</time>
      </trkpt>
      <trkpt lat="44.79036" lon="-0.28224">
        <ele>60</ele>
        <time>2012-07-29T13:30:53Z</time>
      </trkpt>
      <trkpt lat="44.79046" lon="-0.28224">
        <ele>60</ele>
        <time>2012-07-29T13:30:55Z</time>
      </trkpt>
      <trkpt lat="44.79056" lon="-0.28226">
        <ele>60</ele>
        <time>2012-07-29T13:30:57Z</time>
      </trkpt>
      <trkpt lat="44.79065" lon="-0.28229">
        <ele>60</ele>
        <time>2012-07-29T13:30:59Z</time>
      </trkpt>
      <trkpt lat="44.79078" lon="-0.28233">
        <ele>60</ele>
        <time>2012-07-29T13:31:02Z</time>
      </trkpt>
      <trkpt lat="44.79092" lon="-0.28235">
        <ele>60</ele>
        <time>2012-07-29T13:31:05Z</time>
      </trkpt>
      <trkpt lat="44.79106" lon="-0.28235">
        <ele>59</ele>
        <time>2012-07-29T13:31:08Z</time>
      </trkpt>
      <trkpt lat="44.79119" lon="-0.28233">
        <ele>59</ele>
        <time>2012-07-29T13:31:11Z</time>
      </trkpt>
      <trkpt lat="44.79132" lon="-0.28231">
        <ele>58</ele>
        <time>2012-07-29T13:31:14Z</time>
      </trkpt>
      <trkpt lat="44.79146" lon="-0.28226">
        <ele>58</ele>
        <time>2012-07-29T13:31:17Z</time>
      </trkpt>
      <trkpt lat="44.79156" lon="-0.28215">
        <ele>59</ele>
        <time>2012-07-29T13:31:20Z</time>
      </trkpt>
      <trkpt lat="44.79167" lon="-0.28204">
        <ele>60</ele>
        <time>2012-07-29T13:31:23Z</time>
      </trkpt>
      <trkpt lat="44.79176" lon="-0.28194">
        <ele>61</ele>
        <time>2012-07-29T13:31:26Z</time>
      </trkpt>
      <trkpt lat="44.79183" lon="-0.28182">
        <ele>62</ele>
        <time>2012-07-29T13:31:29Z</time>
      </trkpt>
      <trkpt lat="44.7919" lon="-0.28172">
        <ele>62</ele>
        <time>2012-07-29T13:31:32Z</time>
      </trkpt>
      <trkpt lat="44.79198" lon="-0.28159">
        <ele>63</ele>
        <time>2012-07-29T13:31:36Z</time>
      </trkpt>
      <trkpt lat="44.79205" lon="-0.28147">
        <ele>63</ele>
        <time>2012-07-29T13:31:40Z</time>
      </trkpt>
      <trkpt lat="44.79212" lon="-0.28134">
        <ele>63</ele>
        <time>2012-07-29T13:31:44Z</time>
      </trkpt>
      <trkpt lat="44.7922" lon="-0.28122">
        <ele>63</ele>
        <time>2012-07-29T13:31:48Z</time>
      </trkpt>
      <trkpt lat="44.79228" lon="-0.28113">
        <ele>63</ele>
        <time>2012-07-29T13:31:51Z</time>
      </trkpt>
      <trkpt lat="44.79235" lon="-0.28102">
        <ele>63</ele>
        <time>2012-07-29T13:31:56Z</time>
      </trkpt>
      <trkpt lat="44.79238" lon="-0.28089">
        <ele>63</ele>
        <time>2012-07-29T13:32:03Z</time>
      </trkpt>
      <trkpt lat="44.79243" lon="-0.28075">
        <ele>63</ele>
        <time>2012-07-29T13:32:07Z</time>
      </trkpt>
      <trkpt lat="44.79247" lon="-0.28063">
        <ele>63</ele>
        <time>2012-07-29T13:32:10Z</time>
      </trkpt>
      <trkpt lat="44.79254" lon="-0.28046">
        <ele>62</ele>
        <time>2012-07-29T13:32:13Z</time>
      </trkpt>
      <trkpt lat="44.79261" lon="-0.28036">
        <ele>62</ele>
        <time>2012-07-29T13:32:15Z</time>
      </trkpt>
      <trkpt lat="44.79269" lon="-0.28024">
        <ele>62</ele>
        <time>2012-07-29T13:32:17Z</time>
      </trkpt>
      <trkpt lat="44.79278" lon="-0.28014">
        <ele>62</ele>
        <time>2012-07-29T13:32:19Z</time>
      </trkpt>
      <trkpt lat="44.79287" lon="-0.28004">
        <ele>62</ele>
        <time>2012-07-29T13:32:21Z</time>
      </trkpt>
      <trkpt lat="44.79297" lon="-0.27994">
        <ele>62</ele>
        <time>2012-07-29T13:32:23Z</time>
      </trkpt>
      <trkpt lat="44.79306" lon="-0.27984">
        <ele>62</ele>
        <time>2012-07-29T13:32:25Z</time>
      </trkpt>
      <trkpt lat="44.79315" lon="-0.27974">
        <ele>62</ele>
        <time>2012-07-29T13:32:27Z</time>
      </trkpt>
      <trkpt lat="44.79325" lon="-0.27965">
        <ele>61</ele>
        <time>2012-07-29T13:32:29Z</time>
      </trkpt>
      <trkpt lat="44.79334" lon="-0.27955">
        <ele>61</ele>
        <time>2012-07-29T13:32:31Z</time>
      </trkpt>
      <trkpt lat="44.79343" lon="-0.27944">
        <ele>61</ele>
        <time>2012-07-29T13:32:33Z</time>
      </trkpt>
      <trkpt lat="44.79351" lon="-0.27934">
        <ele>61</ele>
        <time>2012-07-29T13:32:35Z</time>
      </trkpt>
      <trkpt lat="44.79359" lon="-0.27924">
        <ele>61</ele>
        <time>2012-07-29T13:32:37Z</time>
      </trkpt>
      <trkpt lat="44.79366" lon="-0.27914">
        <ele>60</ele>
        <time>2012-07-29T13:32:39Z</time>
      </trkpt>
      <trkpt lat="44.79374" lon="-0.27904">
        <ele>60</ele>
        <time>2012-07-29T13:32:41Z</time>
      </trkpt>
      <trkpt lat="44.79382" lon="-0.27894">
        <ele>61</ele>
        <time>2012-07-29T13:32:43Z</time>
      </trkpt>
      <trkpt lat="44.79389" lon="-0.27884">
        <ele>61</ele>
        <time>2012-07-29T13:32:45Z</time>
      </trkpt>
      <trkpt lat="44.79398" lon="-0.27873">
        <ele>61</ele>
        <time>2012-07-29T13:32:47Z</time>
      </trkpt>
      <trkpt lat="44.79405" lon="-0.27864">
        <ele>61</ele>
        <time>2012-07-29T13:32:49Z</time>
      </trkpt>
      <trkpt lat="44.79414" lon="-0.27855">
        <ele>61</ele>
        <time>2012-07-29T13:32:51Z</time>
      </trkpt>
      <trkpt lat="44.79422" lon="-0.27844">
        <ele>61</ele>
        <time>2012-07-29T13:32:53Z</time>
      </trkpt>
      <trkpt lat="44.79431" lon="-0.27833">
        <ele>61</ele>
        <time>2012-07-29T13:32:55Z</time>
      </trkpt>
      <trkpt lat="44.79439" lon="-0.27821">
        <ele>61</ele>
        <time>2012-07-29T13:32:57Z</time>
      </trkpt>
      <trkpt lat="44.79448" lon="-0.27807">
        <ele>60</ele>
        <time>2012-07-29T13:32:59Z</time>
      </trkpt>
      <trkpt lat="44.79456" lon="-0.27791">
        <ele>60</ele>
        <time>2012-07-29T13:33:01Z</time>
      </trkpt>
      <trkpt lat="44.79463" lon="-0.27774">
        <ele>59</ele>
        <time>2012-07-29T13:33:03Z</time>
      </trkpt>
      <trkpt lat="44.7947" lon="-0.27755">
        <ele>58</ele>
        <time>2012-07-29T13:33:05Z</time>
      </trkpt>
      <trkpt lat="44.79477" lon="-0.27735">
        <ele>58</ele>
        <time>2012-07-29T13:33:07Z</time>
      </trkpt>
      <trkpt lat="44.79483" lon="-0.27714">
        <ele>57</ele>
        <time>2012-07-29T13:33:09Z</time>
      </trkpt>
      <trkpt lat="44.7949" lon="-0.27692">
        <ele>56</ele>
        <time>2012-07-29T13:33:11Z</time>
      </trkpt>
      <trkpt lat="44.79493" lon="-0.27669">
        <ele>55</ele>
        <time>2012-07-29T13:33:13Z</time>
      </trkpt>
      <trkpt lat="44.79494" lon="-0.27647">
        <ele>55</ele>
        <time>2012-07-29T13:33:15Z</time>
      </trkpt>
      <trkpt lat="44.79491" lon="-0.27626">
        <ele>54</ele>
        <time>2012-07-29T13:33:17Z</time>
      </trkpt>
      <trkpt lat="44.79487" lon="-0.27607">
        <ele>54</ele>
        <time>2012-07-29T13:33:19Z</time>
      </trkpt>
      <trkpt lat="44.79484" lon="-0.27587">
        <ele>53</ele>
        <time>2012-07-29T13:33:21Z</time>
      </trkpt>
      <trkpt lat="44.7948" lon="-0.27569">
        <ele>53</ele>
        <time>2012-07-29T13:33:23Z</time>
      </trkpt>
      <trkpt lat="44.79479" lon="-0.27553">
        <ele>52</ele>
        <time>2012-07-29T13:33:25Z</time>
      </trkpt>
      <trkpt lat="44.7948" lon="-0.2754">
        <ele>51</ele>
        <time>2012-07-29T13:33:27Z</time>
      </trkpt>
      <trkpt lat="44.79487" lon="-0.27527">
        <ele>51</ele>
        <time>2012-07-29T13:33:30Z</time>
      </trkpt>
      <trkpt lat="44.79499" lon="-0.27533">
        <ele>51</ele>
        <time>2012-07-29T13:33:33Z</time>
      </trkpt>
      <trkpt lat="44.79509" lon="-0.2754">
        <ele>52</ele>
        <time>2012-07-29T13:33:36Z</time>
      </trkpt>
      <trkpt lat="44.79518" lon="-0.27546">
        <ele>53</ele>
        <time>2012-07-29T13:33:39Z</time>
      </trkpt>
      <trkpt lat="44.79529" lon="-0.27549">
        <ele>53</ele>
        <time>2012-07-29T13:33:42Z</time>
      </trkpt>
      <trkpt lat="44.79541" lon="-0.2755">
        <ele>53</ele>
        <time>2012-07-29T13:33:45Z</time>
      </trkpt>
      <trkpt lat="44.79551" lon="-0.2755">
        <ele>54</ele>
        <time>2012-07-29T13:33:48Z</time>
      </trkpt>
      <trkpt lat="44.79562" lon="-0.2755">
        <ele>54</ele>
        <time>2012-07-29T13:33:51Z</time>
      </trkpt>
      <trkpt lat="44.79573" lon="-0.2755">
        <ele>54</ele>
        <time>2012-07-29T13:33:54Z</time>
      </trkpt>
      <trkpt lat="44.79584" lon="-0.27547">
        <ele>54</ele>
        <time>2012-07-29T13:33:57Z</time>
      </trkpt>
      <trkpt lat="44.79598" lon="-0.27545">
        <ele>55</ele>
        <time>2012-07-29T13:34:00Z</time>
      </trkpt>
      <trkpt lat="44.7961" lon="-0.27541">
        <ele>55</ele>
        <time>2012-07-29T13:34:03Z</time>
      </trkpt>
      <trkpt lat="44.79623" lon="-0.27538">
        <ele>55</ele>
        <time>2012-07-29T13:34:06Z</time>
      </trkpt>
      <trkpt lat="44.79634" lon="-0.27536">
        <ele>55</ele>
        <time>2012-07-29T13:34:09Z</time>
      </trkpt>
      <trkpt lat="44.79645" lon="-0.27538">
        <ele>55</ele>
        <time>2012-07-29T13:34:12Z</time>
      </trkpt>
      <trkpt lat="44.79653" lon="-0.27548">
        <ele>55</ele>
        <time>2012-07-29T13:34:15Z</time>
      </trkpt>
      <trkpt lat="44.7966" lon="-0.2756">
        <ele>55</ele>
        <time>2012-07-29T13:34:18Z</time>
      </trkpt>
      <trkpt lat="44.79666" lon="-0.27575">
        <ele>55</ele>
        <time>2012-07-29T13:34:21Z</time>
      </trkpt>
      <trkpt lat="44.79671" lon="-0.27589">
        <ele>55</ele>
        <time>2012-07-29T13:34:24Z</time>
      </trkpt>
      <trkpt lat="44.79677" lon="-0.27604">
        <ele>55</ele>
        <time>2012-07-29T13:34:27Z</time>
      </trkpt>
      <trkpt lat="44.79682" lon="-0.2762">
        <ele>56</ele>
        <time>2012-07-29T13:34:30Z</time>
      </trkpt>
      <trkpt lat="44.79686" lon="-0.27633">
        <ele>56</ele>
        <time>2012-07-29T13:34:33Z</time>
      </trkpt>
      <trkpt lat="44.79691" lon="-0.27646">
        <ele>56</ele>
        <time>2012-07-29T13:34:36Z</time>
      </trkpt>
      <trkpt lat="44.79695" lon="-0.27657">
        <ele>56</ele>
        <time>2012-07-29T13:34:39Z</time>
      </trkpt>
      <trkpt lat="44.797" lon="-0.27673">
        <ele>56</ele>
        <time>2012-07-29T13:34:43Z</time>
      </trkpt>
      <trkpt lat="44.79707" lon="-0.27686">
        <ele>56</ele>
        <time>2012-07-29T13:34:47Z</time>
      </trkpt>
      <trkpt lat="44.79715" lon="-0.27698">
        <ele>56</ele>
        <time>2012-07-29T13:34:51Z</time>
      </trkpt>
      <trkpt lat="44.79722" lon="-0.27711">
        <ele>56</ele>
        <time>2012-07-29T13:34:55Z</time>
      </trkpt>
      <trkpt lat="44.79729" lon="-0.27726">
        <ele>56</ele>
        <time>2012-07-29T13:34:59Z</time>
      </trkpt>
      <trkpt lat="44.79735" lon="-0.2774">
        <ele>56</ele>
        <time>2012-07-29T13:35:03Z</time>
      </trkpt>
      <trkpt lat="44.79741" lon="-0.27754">
        <ele>56</ele>
        <time>2012-07-29T13:35:07Z</time>
      </trkpt>
      <trkpt lat="44.79746" lon="-0.27768">
        <ele>56</ele>
        <time>2012-07-29T13:35:11Z</time>
      </trkpt>
      <trkpt lat="44.79754" lon="-0.2778">
        <ele>56</ele>
        <time>2012-07-29T13:35:15Z</time>
      </trkpt>
      <trkpt lat="44.79764" lon="-0.27784">
        <ele>56</ele>
        <time>2012-07-29T13:35:19Z</time>
      </trkpt>
      <trkpt lat="44.79775" lon="-0.27777">
        <ele>57</ele>
        <time>2012-07-29T13:35:23Z</time>
      </trkpt>
      <trkpt lat="44.79785" lon="-0.27771">
        <ele>57</ele>
        <time>2012-07-29T13:35:26Z</time>
      </trkpt>
      <trkpt lat="44.79793" lon="-0.27762">
        <ele>57</ele>
        <time>2012-07-29T13:35:29Z</time>
      </trkpt>
      <trkpt lat="44.79801" lon="-0.27751">
        <ele>57</ele>
        <time>2012-07-29T13:35:32Z</time>
      </trkpt>
      <trkpt lat="44.7981" lon="-0.2774">
        <ele>57</ele>
        <time>2012-07-29T13:35:35Z</time>
      </trkpt>
      <trkpt lat="44.7982" lon="-0.2773">
        <ele>57</ele>
        <time>2012-07-29T13:35:38Z</time>
      </trkpt>
      <trkpt lat="44.7983" lon="-0.27719">
        <ele>56</ele>
        <time>2012-07-29T13:35:41Z</time>
      </trkpt>
      <trkpt lat="44.79838" lon="-0.27711">
        <ele>56</ele>
        <time>2012-07-29T13:35:43Z</time>
      </trkpt>
      <trkpt lat="44.79849" lon="-0.27701">
        <ele>56</ele>
        <time>2012-07-29T13:35:46Z</time>
      </trkpt>
      <trkpt lat="44.79861" lon="-0.27695">
        <ele>55</ele>
        <time>2012-07-29T13:35:49Z</time>
      </trkpt>
      <trkpt lat="44.79874" lon="-0.2769">
        <ele>55</ele>
        <time>2012-07-29T13:35:52Z</time>
      </trkpt>
      <trkpt lat="44.79885" lon="-0.27683">
        <ele>55</ele>
        <time>2012-07-29T13:35:55Z</time>
      </trkpt>
      <trkpt lat="44.79895" lon="-0.27675">
        <ele>56</ele>
        <time>2012-07-29T13:35:58Z</time>
      </trkpt>
      <trkpt lat="44.79905" lon="-0.27669">
        <ele>56</ele>
        <time>2012-07-29T13:36:01Z</time>
      </trkpt>
      <trkpt lat="44.79918" lon="-0.27663">
        <ele>56</ele>
        <time>2012-07-29T13:36:04Z</time>
      </trkpt>
      <trkpt lat="44.79932" lon="-0.27655">
        <ele>56</ele>
        <time>2012-07-29T13:36:07Z</time>
      </trkpt>
      <trkpt lat="44.79944" lon="-0.27648">
        <ele>57</ele>
        <time>2012-07-29T13:36:10Z</time>
      </trkpt>
      <trkpt lat="44.79956" lon="-0.27641">
        <ele>57</ele>
        <time>2012-07-29T13:36:13Z</time>
      </trkpt>
      <trkpt lat="44.79965" lon="-0.27636">
        <ele>57</ele>
        <time>2012-07-29T13:36:15Z</time>
      </trkpt>
      <trkpt lat="44.79975" lon="-0.27631">
        <ele>57</ele>
        <time>2012-07-29T13:36:17Z</time>
      </trkpt>
      <trkpt lat="44.79986" lon="-0.27627">
        <ele>56</ele>
        <time>2012-07-29T13:36:19Z</time>
      </trkpt>
      <trkpt lat="44.79994" lon="-0.27622">
        <ele>56</ele>
        <time>2012-07-29T13:36:21Z</time>
      </trkpt>
      <trkpt lat="44.80004" lon="-0.27617">
        <ele>56</ele>
        <time>2012-07-29T13:36:23Z</time>
      </trkpt>
      <trkpt lat="44.80014" lon="-0.27612">
        <ele>56</ele>
        <time>2012-07-29T13:36:25Z</time>
      </trkpt>
      <trkpt lat="44.80024" lon="-0.27606">
        <ele>55</ele>
        <time>2012-07-29T13:36:27Z</time>
      </trkpt>
      <trkpt lat="44.80034" lon="-0.27602">
        <ele>55</ele>
        <time>2012-07-29T13:36:29Z</time>
      </trkpt>
      <trkpt lat="44.80044" lon="-0.27597">
        <ele>55</ele>
        <time>2012-07-29T13:36:31Z</time>
      </trkpt>
      <trkpt lat="44.80053" lon="-0.27592">
        <ele>55</ele>
        <time>2012-07-29T13:36:33Z</time>
      </trkpt>
      <trkpt lat="44.80062" lon="-0.27587">
        <ele>55</ele>
        <time>2012-07-29T13:36:35Z</time>
      </trkpt>
      <trkpt lat="44.80074" lon="-0.27582">
        <ele>55</ele>
        <time>2012-07-29T13:36:38Z</time>
      </trkpt>
      <trkpt lat="44.80084" lon="-0.27576">
        <ele>55</ele>
        <time>2012-07-29T13:36:42Z</time>
      </trkpt>
      <trkpt lat="44.80094" lon="-0.27569">
        <ele>55</ele>
        <time>2012-07-29T13:36:46Z</time>
      </trkpt>
      <trkpt lat="44.80103" lon="-0.27563">
        <ele>55</ele>
        <time>2012-07-29T13:36:49Z</time>
      </trkpt>
      <trkpt lat="44.80113" lon="-0.27555">
        <ele>55</ele>
        <time>2012-07-29T13:36:52Z</time>
      </trkpt>
      <trkpt lat="44.80124" lon="-0.27548">
        <ele>55</ele>
        <time>2012-07-29T13:36:55Z</time>
      </trkpt>
      <trkpt lat="44.80135" lon="-0.2754">
        <ele>55</ele>
        <time>2012-07-29T13:36:58Z</time>
      </trkpt>
      <trkpt lat="44.80146" lon="-0.27531">
        <ele>55</ele>
        <time>2012-07-29T13:37:01Z</time>
      </trkpt>
      <trkpt lat="44.80155" lon="-0.2752">
        <ele>55</ele>
        <time>2012-07-29T13:37:04Z</time>
      </trkpt>
      <trkpt lat="44.80162" lon="-0.27505">
        <ele>55</ele>
        <time>2012-07-29T13:37:07Z</time>
      </trkpt>
      <trkpt lat="44.80168" lon="-0.27488">
        <ele>55</ele>
        <time>2012-07-29T13:37:10Z</time>
      </trkpt>
      <trkpt lat="44.80172" lon="-0.27471">
        <ele>55</ele>
        <time>2012-07-29T13:37:13Z</time>
      </trkpt>
      <trkpt lat="44.80176" lon="-0.27454">
        <ele>55</ele>
        <time>2012-07-29T13:37:16Z</time>
      </trkpt>
      <trkpt lat="44.80181" lon="-0.27437">
        <ele>55</ele>
        <time>2012-07-29T13:37:19Z</time>
      </trkpt>
      <trkpt lat="44.80184" lon="-0.27422">
        <ele>54</ele>
        <time>2012-07-29T13:37:22Z</time>
      </trkpt>
      <trkpt lat="44.80188" lon="-0.27406">
        <ele>54</ele>
        <time>2012-07-29T13:37:25Z</time>
      </trkpt>
      <trkpt lat="44.80191" lon="-0.27391">
        <ele>54</ele>
        <time>2012-07-29T13:37:28Z</time>
      </trkpt>
      <trkpt lat="44.80195" lon="-0.27374">
        <ele>53</ele>
        <time>2012-07-29T13:37:31Z</time>
      </trkpt>
      <trkpt lat="44.802" lon="-0.27361">
        <ele>53</ele>
        <time>2012-07-29T13:37:34Z</time>
      </trkpt>
      <trkpt lat="44.80207" lon="-0.27353">
        <ele>53</ele>
        <time>2012-07-29T13:37:37Z</time>
      </trkpt>
      <trkpt lat="44.80218" lon="-0.27347">
        <ele>52</ele>
        <time>2012-07-29T13:37:40Z</time>
      </trkpt>
      <trkpt lat="44.80226" lon="-0.27341">
        <ele>52</ele>
        <time>2012-07-29T13:37:43Z</time>
      </trkpt>
      <trkpt lat="44.80235" lon="-0.27335">
        <ele>52</ele>
        <time>2012-07-29T13:37:46Z</time>
      </trkpt>
      <trkpt lat="44.80245" lon="-0.27328">
        <ele>52</ele>
        <time>2012-07-29T13:37:50Z</time>
      </trkpt>
      <trkpt lat="44.80255" lon="-0.2732">
        <ele>51</ele>
        <time>2012-07-29T13:37:53Z</time>
      </trkpt>
      <trkpt lat="44.80266" lon="-0.27313">
        <ele>50</ele>
        <time>2012-07-29T13:37:56Z</time>
      </trkpt>
      <trkpt lat="44.80278" lon="-0.27305">
        <ele>49</ele>
        <time>2012-07-29T13:37:59Z</time>
      </trkpt>
      <trkpt lat="44.80291" lon="-0.27302">
        <ele>47</ele>
        <time>2012-07-29T13:38:02Z</time>
      </trkpt>
      <trkpt lat="44.80301" lon="-0.27297">
        <ele>47</ele>
        <time>2012-07-29T13:38:04Z</time>
      </trkpt>
      <trkpt lat="44.80311" lon="-0.27291">
        <ele>46</ele>
        <time>2012-07-29T13:38:06Z</time>
      </trkpt>
      <trkpt lat="44.80321" lon="-0.27285">
        <ele>45</ele>
        <time>2012-07-29T13:38:08Z</time>
      </trkpt>
      <trkpt lat="44.80333" lon="-0.2728">
        <ele>45</ele>
        <time>2012-07-29T13:38:11Z</time>
      </trkpt>
      <trkpt lat="44.80342" lon="-0.27287">
        <ele>45</ele>
        <time>2012-07-29T13:38:14Z</time>
      </trkpt>
      <trkpt lat="44.80349" lon="-0.273">
        <ele>46</ele>
        <time>2012-07-29T13:38:18Z</time>
      </trkpt>
      <trkpt lat="44.80355" lon="-0.27312">
        <ele>46</ele>
        <time>2012-07-29T13:38:23Z</time>
      </trkpt>
      <trkpt lat="44.80365" lon="-0.27305">
        <ele>45</ele>
        <time>2012-07-29T13:38:27Z</time>
      </trkpt>
      <trkpt lat="44.8037" lon="-0.27287">
        <ele>44</ele>
        <time>2012-07-29T13:38:30Z</time>
      </trkpt>
      <trkpt lat="44.80373" lon="-0.27275">
        <ele>43</ele>
        <time>2012-07-29T13:38:32Z</time>
      </trkpt>
      <trkpt lat="44.80376" lon="-0.27261">
        <ele>42</ele>
        <time>2012-07-29T13:38:34Z</time>
      </trkpt>
      <trkpt lat="44.80378" lon="-0.27246">
        <ele>42</ele>
        <time>2012-07-29T13:38:36Z</time>
      </trkpt>
      <trkpt lat="44.80383" lon="-0.27234">
        <ele>41</ele>
        <time>2012-07-29T13:38:38Z</time>
      </trkpt>
      <trkpt lat="44.80394" lon="-0.27224">
        <ele>41</ele>
        <time>2012-07-29T13:38:41Z</time>
      </trkpt>
      <trkpt lat="44.80405" lon="-0.27223">
        <ele>41</ele>
        <time>2012-07-29T13:38:43Z</time>
      </trkpt>
      <trkpt lat="44.80417" lon="-0.27223">
        <ele>41</ele>
        <time>2012-07-29T13:38:45Z</time>
      </trkpt>
      <trkpt lat="44.80428" lon="-0.27223">
        <ele>41</ele>
        <time>2012-07-29T13:38:47Z</time>
      </trkpt>
      <trkpt lat="44.80438" lon="-0.27225">
        <ele>41</ele>
        <time>2012-07-29T13:38:49Z</time>
      </trkpt>
      <trkpt lat="44.80449" lon="-0.27227">
        <ele>41</ele>
        <time>2012-07-29T13:38:51Z</time>
      </trkpt>
      <trkpt lat="44.80458" lon="-0.27229">
        <ele>40</ele>
        <time>2012-07-29T13:38:53Z</time>
      </trkpt>
      <trkpt lat="44.80468" lon="-0.2723">
        <ele>40</ele>
        <time>2012-07-29T13:38:55Z</time>
      </trkpt>
      <trkpt lat="44.80481" lon="-0.27232">
        <ele>40</ele>
        <time>2012-07-29T13:38:58Z</time>
      </trkpt>
      <trkpt lat="44.80493" lon="-0.27236">
        <ele>39</ele>
        <time>2012-07-29T13:39:01Z</time>
      </trkpt>
      <trkpt lat="44.80504" lon="-0.27244">
        <ele>39</ele>
        <time>2012-07-29T13:39:04Z</time>
      </trkpt>
      <trkpt lat="44.80514" lon="-0.27255">
        <ele>39</ele>
        <time>2012-07-29T13:39:07Z</time>
      </trkpt>
      <trkpt lat="44.80521" lon="-0.27265">
        <ele>39</ele>
        <time>2012-07-29T13:39:10Z</time>
      </trkpt>
      <trkpt lat="44.8053" lon="-0.27276">
        <ele>40</ele>
        <time>2012-07-29T13:39:14Z</time>
      </trkpt>
      <trkpt lat="44.80537" lon="-0.27284">
        <ele>40</ele>
        <time>2012-07-29T13:39:17Z</time>
      </trkpt>
      <trkpt lat="44.80544" lon="-0.27273">
        <ele>41</ele>
        <time>2012-07-29T13:39:27Z</time>
      </trkpt>
      <trkpt lat="44.80542" lon="-0.27256">
        <ele>40</ele>
        <time>2012-07-29T13:39:30Z</time>
      </trkpt>
      <trkpt lat="44.80544" lon="-0.27243">
        <ele>40</ele>
        <time>2012-07-29T13:39:33Z</time>
      </trkpt>
      <trkpt lat="44.80549" lon="-0.27227">
        <ele>40</ele>
        <time>2012-07-29T13:39:36Z</time>
      </trkpt>
      <trkpt lat="44.80552" lon="-0.27211">
        <ele>40</ele>
        <time>2012-07-29T13:39:39Z</time>
      </trkpt>
      <trkpt lat="44.80553" lon="-0.27197">
        <ele>39</ele>
        <time>2012-07-29T13:39:47Z</time>
      </trkpt>
      <trkpt lat="44.80554" lon="-0.27177">
        <ele>38</ele>
        <time>2012-07-29T13:51:55Z</time>
      </trkpt>
      <trkpt lat="44.80559" lon="-0.27164">
        <ele>37</ele>
        <time>2012-07-29T13:51:59Z</time>
      </trkpt>
      <trkpt lat="44.80561" lon="-0.27151">
        <ele>37</ele>
        <time>2012-07-29T13:52:04Z</time>
      </trkpt>
      <trkpt lat="44.80564" lon="-0.27138">
        <ele>36</ele>
        <time>2012-07-29T13:52:09Z</time>
      </trkpt>
      <trkpt lat="44.80566" lon="-0.27125">
        <ele>36</ele>
        <time>2012-07-29T13:52:13Z</time>
      </trkpt>
      <trkpt lat="44.8057" lon="-0.27109">
        <ele>35</ele>
        <time>2012-07-29T13:52:19Z</time>
      </trkpt>
      <trkpt lat="44.80578" lon="-0.271">
        <ele>35</ele>
        <time>2012-07-29T13:52:23Z</time>
      </trkpt>
      <trkpt lat="44.80584" lon="-0.27089">
        <ele>35</ele>
        <time>2012-07-29T13:52:27Z</time>
      </trkpt>
      <trkpt lat="44.80587" lon="-0.27076">
        <ele>35</ele>
        <time>2012-07-29T13:52:31Z</time>
      </trkpt>
      <trkpt lat="44.80591" lon="-0.27064">
        <ele>35</ele>
        <time>2012-07-29T13:52:36Z</time>
      </trkpt>
      <trkpt lat="44.80598" lon="-0.27054">
        <ele>35</ele>
        <time>2012-07-29T13:52:40Z</time>
      </trkpt>
      <trkpt lat="44.80605" lon="-0.27035">
        <ele>35</ele>
        <time>2012-07-29T13:52:45Z</time>
      </trkpt>
      <trkpt lat="44.80611" lon="-0.2702">
        <ele>35</ele>
        <time>2012-07-29T13:52:47Z</time>
      </trkpt>
      <trkpt lat="44.8062" lon="-0.27009">
        <ele>34</ele>
        <time>2012-07-29T13:52:50Z</time>
      </trkpt>
      <trkpt lat="44.80629" lon="-0.27">
        <ele>34</ele>
        <time>2012-07-29T13:52:54Z</time>
      </trkpt>
      <trkpt lat="44.80638" lon="-0.26996">
        <ele>33</ele>
        <time>2012-07-29T13:52:57Z</time>
      </trkpt>
      <trkpt lat="44.80647" lon="-0.26996">
        <ele>33</ele>
        <time>2012-07-29T13:53:01Z</time>
      </trkpt>
      <trkpt lat="44.80659" lon="-0.27003">
        <ele>33</ele>
        <time>2012-07-29T13:53:06Z</time>
      </trkpt>
      <trkpt lat="44.8067" lon="-0.27009">
        <ele>34</ele>
        <time>2012-07-29T13:53:09Z</time>
      </trkpt>
      <trkpt lat="44.80681" lon="-0.2701">
        <ele>33</ele>
        <time>2012-07-29T13:53:12Z</time>
      </trkpt>
      <trkpt lat="44.80691" lon="-0.27008">
        <ele>33</ele>
        <time>2012-07-29T13:53:16Z</time>
      </trkpt>
      <trkpt lat="44.80701" lon="-0.27006">
        <ele>32</ele>
        <time>2012-07-29T13:53:22Z</time>
      </trkpt>
      <trkpt lat="44.80711" lon="-0.27006">
        <ele>32</ele>
        <time>2012-07-29T13:53:25Z</time>
      </trkpt>
      <trkpt lat="44.80721" lon="-0.27005">
        <ele>32</ele>
        <time>2012-07-29T13:53:28Z</time>
      </trkpt>
      <trkpt lat="44.80731" lon="-0.27007">
        <ele>32</ele>
        <time>2012-07-29T13:53:32Z</time>
      </trkpt>
      <trkpt lat="44.8074" lon="-0.27011">
        <ele>32</ele>
        <time>2012-07-29T13:53:36Z</time>
      </trkpt>
      <trkpt lat="44.80751" lon="-0.27014">
        <ele>32</ele>
        <time>2012-07-29T13:53:42Z</time>
      </trkpt>
      <trkpt lat="44.80761" lon="-0.27012">
        <ele>32</ele>
        <time>2012-07-29T13:53:53Z</time>
      </trkpt>
      <trkpt lat="44.80772" lon="-0.27012">
        <ele>31</ele>
        <time>2012-07-29T13:54:00Z</time>
      </trkpt>
      <trkpt lat="44.8078" lon="-0.27018">
        <ele>31</ele>
        <time>2012-07-29T13:54:22Z</time>
      </trkpt>
      <trkpt lat="44.8079" lon="-0.27023">
        <ele>31</ele>
        <time>2012-07-29T13:54:33Z</time>
      </trkpt>
      <trkpt lat="44.808" lon="-0.27025">
        <ele>30</ele>
        <time>2012-07-29T13:54:50Z</time>
      </trkpt>
      <trkpt lat="44.80809" lon="-0.27023">
        <ele>30</ele>
        <time>2012-07-29T13:55:04Z</time>
      </trkpt>
      <trkpt lat="44.80819" lon="-0.27028">
        <ele>30</ele>
        <time>2012-07-29T13:55:09Z</time>
      </trkpt>
      <trkpt lat="44.80828" lon="-0.2703">
        <ele>29</ele>
        <time>2012-07-29T13:55:15Z</time>
      </trkpt>
      <trkpt lat="44.80838" lon="-0.27035">
        <ele>29</ele>
        <time>2012-07-29T13:55:20Z</time>
      </trkpt>
      <trkpt lat="44.80848" lon="-0.2704">
        <ele>29</ele>
        <time>2012-07-29T13:55:25Z</time>
      </trkpt>
      <trkpt lat="44.80857" lon="-0.27047">
        <ele>29</ele>
        <time>2012-07-29T13:55:30Z</time>
      </trkpt>
      <trkpt lat="44.80864" lon="-0.27056">
        <ele>30</ele>
        <time>2012-07-29T13:55:35Z</time>
      </trkpt>
      <trkpt lat="44.80873" lon="-0.27061">
        <ele>31</ele>
        <time>2012-07-29T13:55:39Z</time>
      </trkpt>
      <trkpt lat="44.80883" lon="-0.27064">
        <ele>31</ele>
        <time>2012-07-29T13:55:42Z</time>
      </trkpt>
      <trkpt lat="44.8089" lon="-0.27075">
        <ele>33</ele>
        <time>2012-07-29T13:55:46Z</time>
      </trkpt>
      <trkpt lat="44.80893" lon="-0.27091">
        <ele>35</ele>
        <time>2012-07-29T13:55:51Z</time>
      </trkpt>
      <trkpt lat="44.80901" lon="-0.27099">
        <ele>36</ele>
        <time>2012-07-29T13:55:56Z</time>
      </trkpt>
      <trkpt lat="44.8091" lon="-0.27091">
        <ele>34</ele>
        <time>2012-07-29T13:56:03Z</time>
      </trkpt>
      <trkpt lat="44.8092" lon="-0.27086">
        <ele>34</ele>
        <time>2012-07-29T13:56:09Z</time>
      </trkpt>
      <trkpt lat="44.80929" lon="-0.27083">
        <ele>33</ele>
        <time>2012-07-29T13:56:15Z</time>
      </trkpt>
      <trkpt lat="44.80939" lon="-0.27085">
        <ele>33</ele>
        <time>2012-07-29T13:57:43Z</time>
      </trkpt>
      <trkpt lat="44.80948" lon="-0.27079">
        <ele>31</ele>
        <time>2012-07-29T13:58:35Z</time>
      </trkpt>
      <trkpt lat="44.80954" lon="-0.27066">
        <ele>30</ele>
        <time>2012-07-29T14:17:10Z</time>
      </trkpt>
      <trkpt lat="44.80962" lon="-0.27056">
        <ele>29</ele>
        <time>2012-07-29T14:17:13Z</time>
      </trkpt>
      <trkpt lat="44.80972" lon="-0.27047">
        <ele>29</ele>
        <time>2012-07-29T14:17:16Z</time>
      </trkpt>
      <trkpt lat="44.80983" lon="-0.27046">
        <ele>29</ele>
        <time>2012-07-29T14:17:19Z</time>
      </trkpt>
      <trkpt lat="44.80995" lon="-0.27049">
        <ele>29</ele>
        <time>2012-07-29T14:17:22Z</time>
      </trkpt>
      <trkpt lat="44.81004" lon="-0.27051">
        <ele>29</ele>
        <time>2012-07-29T14:17:24Z</time>
      </trkpt>
      <trkpt lat="44.81015" lon="-0.27049">
        <ele>29</ele>
        <time>2012-07-29T14:17:28Z</time>
      </trkpt>
      <trkpt lat="44.81026" lon="-0.27046">
        <ele>29</ele>
        <time>2012-07-29T14:17:32Z</time>
      </trkpt>
      <trkpt lat="44.81036" lon="-0.27042">
        <ele>30</ele>
        <time>2012-07-29T14:17:36Z</time>
      </trkpt>
      <trkpt lat="44.81044" lon="-0.27034">
        <ele>30</ele>
        <time>2012-07-29T14:17:47Z</time>
      </trkpt>
      <trkpt lat="44.81054" lon="-0.27029">
        <ele>31</ele>
        <time>2012-07-29T14:18:02Z</time>
      </trkpt>
      <trkpt lat="44.8105" lon="-0.27016">
        <ele>30</ele>
        <time>2012-07-29T14:18:26Z</time>
      </trkpt>
      <trkpt lat="44.81045" lon="-0.27003">
        <ele>29</ele>
        <time>2012-07-29T14:18:36Z</time>
      </trkpt>
      <trkpt lat="44.81053" lon="-0.26994">
        <ele>28</ele>
        <time>2012-07-29T14:18:46Z</time>
      </trkpt>
      <trkpt lat="44.8106" lon="-0.26981">
        <ele>29</ele>
        <time>2012-07-29T14:18:51Z</time>
      </trkpt>
      <trkpt lat="44.81066" lon="-0.26968">
        <ele>29</ele>
        <time>2012-07-29T14:18:54Z</time>
      </trkpt>
      <trkpt lat="44.81071" lon="-0.26955">
        <ele>29</ele>
        <time>2012-07-29T14:18:57Z</time>
      </trkpt>
      <trkpt lat="44.81075" lon="-0.26941">
        <ele>29</ele>
        <time>2012-07-29T14:19:00Z</time>
      </trkpt>
      <trkpt lat="44.8108" lon="-0.26927">
        <ele>28</ele>
        <time>2012-07-29T14:19:03Z</time>
      </trkpt>
      <trkpt lat="44.81082" lon="-0.26914">
        <ele>29</ele>
        <time>2012-07-29T14:19:06Z</time>
      </trkpt>
      <trkpt lat="44.81086" lon="-0.26901">
        <ele>29</ele>
        <time>2012-07-29T14:19:09Z</time>
      </trkpt>
      <trkpt lat="44.8109" lon="-0.26897">
        <ele>29</ele>
        <time>2012-07-29T14:19:29Z</time>
      </trkpt>
      <trkpt lat="44.81095" lon="-0.26885">
        <ele>29</ele>
        <time>2012-07-29T14:19:38Z</time>
      </trkpt>
      <trkpt lat="44.81102" lon="-0.26871">
        <ele>28</ele>
        <time>2012-07-29T14:19:43Z</time>
      </trkpt>
      <trkpt lat="44.8111" lon="-0.26861">
        <ele>27</ele>
        <time>2012-07-29T14:20:00Z</time>
      </trkpt>
      <trkpt lat="44.81121" lon="-0.26861">
        <ele>27</ele>
        <time>2012-07-29T14:20:06Z</time>
      </trkpt>
      <trkpt lat="44.81128" lon="-0.26852">
        <ele>27</ele>
        <time>2012-07-29T14:20:21Z</time>
      </trkpt>
      <trkpt lat="44.81139" lon="-0.26856">
        <ele>28</ele>
        <time>2012-07-29T14:20:26Z</time>
      </trkpt>
      <trkpt lat="44.81149" lon="-0.26859">
        <ele>29</ele>
        <time>2012-07-29T14:20:31Z</time>
      </trkpt>
      <trkpt lat="44.81158" lon="-0.26863">
        <ele>29</ele>
        <time>2012-07-29T14:20:35Z</time>
      </trkpt>
      <trkpt lat="44.8117" lon="-0.26865">
        <ele>31</ele>
        <time>2012-07-29T14:20:39Z</time>
      </trkpt>
      <trkpt lat="44.81181" lon="-0.26863">
        <ele>33</ele>
        <time>2012-07-29T14:20:47Z</time>
      </trkpt>
      <trkpt lat="44.81183" lon="-0.26879">
        <ele>34</ele>
        <time>2012-07-29T14:20:54Z</time>
      </trkpt>
      <trkpt lat="44.8119" lon="-0.26888">
        <ele>36</ele>
        <time>2012-07-29T14:20:59Z</time>
      </trkpt>
      <trkpt lat="44.81197" lon="-0.26897">
        <ele>37</ele>
        <time>2012-07-29T14:21:07Z</time>
      </trkpt>
      <trkpt lat="44.81207" lon="-0.26901">
        <ele>38</ele>
        <time>2012-07-29T14:21:13Z</time>
      </trkpt>
      <trkpt lat="44.81216" lon="-0.26908">
        <ele>39</ele>
        <time>2012-07-29T14:21:22Z</time>
      </trkpt>
      <trkpt lat="44.81226" lon="-0.26916">
        <ele>40</ele>
        <time>2012-07-29T14:21:28Z</time>
      </trkpt>
      <trkpt lat="44.81236" lon="-0.26923">
        <ele>41</ele>
        <time>2012-07-29T14:21:34Z</time>
      </trkpt>
      <trkpt lat="44.81247" lon="-0.26926">
        <ele>42</ele>
        <time>2012-07-29T14:21:39Z</time>
      </trkpt>
      <trkpt lat="44.81256" lon="-0.2693">
        <ele>42</ele>
        <time>2012-07-29T14:21:43Z</time>
      </trkpt>
      <trkpt lat="44.81265" lon="-0.26934">
        <ele>42</ele>
        <time>2012-07-29T14:21:48Z</time>
      </trkpt>
      <trkpt lat="44.81275" lon="-0.26941">
        <ele>43</ele>
        <time>2012-07-29T14:21:54Z</time>
      </trkpt>
      <trkpt lat="44.81284" lon="-0.26947">
        <ele>43</ele>
        <time>2012-07-29T14:21:59Z</time>
      </trkpt>
      <trkpt lat="44.81293" lon="-0.26951">
        <ele>43</ele>
        <time>2012-07-29T14:22:04Z</time>
      </trkpt>
      <trkpt lat="44.81302" lon="-0.26958">
        <ele>43</ele>
        <time>2012-07-29T14:22:10Z</time>
      </trkpt>
      <trkpt lat="44.81311" lon="-0.26963">
        <ele>44</ele>
        <time>2012-07-29T14:22:21Z</time>
      </trkpt>
      <trkpt lat="44.8132" lon="-0.26968">
        <ele>44</ele>
        <time>2012-07-29T14:22:39Z</time>
      </trkpt>
      <trkpt lat="44.81328" lon="-0.26976">
        <ele>44</ele>
        <time>2012-07-29T14:23:45Z</time>
      </trkpt>
      <trkpt lat="44.81336" lon="-0.26986">
        <ele>45</ele>
        <time>2012-07-29T14:23:55Z</time>
      </trkpt>
      <trkpt lat="44.81345" lon="-0.26991">
        <ele>45</ele>
        <time>2012-07-29T14:24:02Z</time>
      </trkpt>
      <trkpt lat="44.81355" lon="-0.26994">
        <ele>46</ele>
        <time>2012-07-29T14:24:09Z</time>
      </trkpt>
      <trkpt lat="44.81365" lon="-0.26995">
        <ele>46</ele>
        <time>2012-07-29T14:24:16Z</time>
      </trkpt>
      <trkpt lat="44.81376" lon="-0.26993">
        <ele>46</ele>
        <time>2012-07-29T14:24:22Z</time>
      </trkpt>
      <trkpt lat="44.81386" lon="-0.26999">
        <ele>47</ele>
        <time>2012-07-29T14:24:27Z</time>
      </trkpt>
      <trkpt lat="44.81392" lon="-0.27009">
        <ele>47</ele>
        <time>2012-07-29T14:24:31Z</time>
      </trkpt>
      <trkpt lat="44.81399" lon="-0.2702">
        <ele>48</ele>
        <time>2012-07-29T14:24:35Z</time>
      </trkpt>
      <trkpt lat="44.81405" lon="-0.2703">
        <ele>49</ele>
        <time>2012-07-29T14:24:39Z</time>
      </trkpt>
      <trkpt lat="44.8141" lon="-0.27045">
        <ele>49</ele>
        <time>2012-07-29T14:24:44Z</time>
      </trkpt>
      <trkpt lat="44.81414" lon="-0.27059">
        <ele>50</ele>
        <time>2012-07-29T14:24:49Z</time>
      </trkpt>
      <trkpt lat="44.81419" lon="-0.27073">
        <ele>51</ele>
        <time>2012-07-29T14:24:54Z</time>
      </trkpt>
      <trkpt lat="44.81426" lon="-0.27083">
        <ele>51</ele>
        <time>2012-07-29T14:24:58Z</time>
      </trkpt>
      <trkpt lat="44.81433" lon="-0.27096">
        <ele>52</ele>
        <time>2012-07-29T14:25:02Z</time>
      </trkpt>
      <trkpt lat="44.81438" lon="-0.27109">
        <ele>53</ele>
        <time>2012-07-29T14:25:06Z</time>
      </trkpt>
      <trkpt lat="44.81444" lon="-0.27119">
        <ele>53</ele>
        <time>2012-07-29T14:25:10Z</time>
      </trkpt>
      <trkpt lat="44.81449" lon="-0.27132">
        <ele>54</ele>
        <time>2012-07-29T14:25:14Z</time>
      </trkpt>
      <trkpt lat="44.81456" lon="-0.27143">
        <ele>55</ele>
        <time>2012-07-29T14:25:18Z</time>
      </trkpt>
      <trkpt lat="44.81462" lon="-0.27154">
        <ele>55</ele>
        <time>2012-07-29T14:25:22Z</time>
      </trkpt>
      <trkpt lat="44.8147" lon="-0.27166">
        <ele>55</ele>
        <time>2012-07-29T14:25:27Z</time>
      </trkpt>
      <trkpt lat="44.81476" lon="-0.27179">
        <ele>56</ele>
        <time>2012-07-29T14:25:31Z</time>
      </trkpt>
      <trkpt lat="44.81481" lon="-0.27193">
        <ele>56</ele>
        <time>2012-07-29T14:25:35Z</time>
      </trkpt>
      <trkpt lat="44.81488" lon="-0.27206">
        <ele>56</ele>
        <time>2012-07-29T14:25:39Z</time>
      </trkpt>
      <trkpt lat="44.81492" lon="-0.27221">
        <ele>56</ele>
        <time>2012-07-29T14:25:43Z</time>
      </trkpt>
      <trkpt lat="44.81497" lon="-0.27237">
        <ele>56</ele>
        <time>2012-07-29T14:25:47Z</time>
      </trkpt>
      <trkpt lat="44.81499" lon="-0.2725">
        <ele>56</ele>
        <time>2012-07-29T14:25:50Z</time>
      </trkpt>
      <trkpt lat="44.81504" lon="-0.27265">
        <ele>56</ele>
        <time>2012-07-29T14:25:54Z</time>
      </trkpt>
      <trkpt lat="44.81508" lon="-0.27281">
        <ele>56</ele>
        <time>2012-07-29T14:25:58Z</time>
      </trkpt>
      <trkpt lat="44.81514" lon="-0.27294">
        <ele>56</ele>
        <time>2012-07-29T14:26:02Z</time>
      </trkpt>
      <trkpt lat="44.81517" lon="-0.27308">
        <ele>56</ele>
        <time>2012-07-29T14:26:06Z</time>
      </trkpt>
      <trkpt lat="44.81518" lon="-0.27324">
        <ele>55</ele>
        <time>2012-07-29T14:26:10Z</time>
      </trkpt>
      <trkpt lat="44.81521" lon="-0.27339">
        <ele>55</ele>
        <time>2012-07-29T14:26:14Z</time>
      </trkpt>
      <trkpt lat="44.81522" lon="-0.27355">
        <ele>55</ele>
        <time>2012-07-29T14:26:17Z</time>
      </trkpt>
      <trkpt lat="44.81523" lon="-0.27369">
        <ele>55</ele>
        <time>2012-07-29T14:26:20Z</time>
      </trkpt>
      <trkpt lat="44.81524" lon="-0.27385">
        <ele>55</ele>
        <time>2012-07-29T14:26:23Z</time>
      </trkpt>
      <trkpt lat="44.81525" lon="-0.274">
        <ele>55</ele>
        <time>2012-07-29T14:26:26Z</time>
      </trkpt>
      <trkpt lat="44.81527" lon="-0.27414">
        <ele>55</ele>
        <time>2012-07-29T14:26:29Z</time>
      </trkpt>
      <trkpt lat="44.8153" lon="-0.27428">
        <ele>55</ele>
        <time>2012-07-29T14:26:32Z</time>
      </trkpt>
      <trkpt lat="44.81533" lon="-0.27443">
        <ele>55</ele>
        <time>2012-07-29T14:26:35Z</time>
      </trkpt>
      <trkpt lat="44.81536" lon="-0.27458">
        <ele>55</ele>
        <time>2012-07-29T14:26:38Z</time>
      </trkpt>
      <trkpt lat="44.81538" lon="-0.27473">
        <ele>55</ele>
        <time>2012-07-29T14:26:41Z</time>
      </trkpt>
      <trkpt lat="44.8154" lon="-0.27488">
        <ele>55</ele>
        <time>2012-07-29T14:26:44Z</time>
      </trkpt>
      <trkpt lat="44.81542" lon="-0.27502">
        <ele>55</ele>
        <time>2012-07-29T14:26:47Z</time>
      </trkpt>
      <trkpt lat="44.81545" lon="-0.27518">
        <ele>55</ele>
        <time>2012-07-29T14:26:50Z</time>
      </trkpt>
      <trkpt lat="44.8155" lon="-0.27534">
        <ele>55</ele>
        <time>2012-07-29T14:26:53Z</time>
      </trkpt>
      <trkpt lat="44.81552" lon="-0.2755">
        <ele>55</ele>
        <time>2012-07-29T14:26:56Z</time>
      </trkpt>
      <trkpt lat="44.81557" lon="-0.27564">
        <ele>55</ele>
        <time>2012-07-29T14:27:01Z</time>
      </trkpt>
      <trkpt lat="44.81564" lon="-0.27578">
        <ele>54</ele>
        <time>2012-07-29T14:27:05Z</time>
      </trkpt>
      <trkpt lat="44.81568" lon="-0.27594">
        <ele>54</ele>
        <time>2012-07-29T14:27:08Z</time>
      </trkpt>
      <trkpt lat="44.81573" lon="-0.27611">
        <ele>54</ele>
        <time>2012-07-29T14:27:11Z</time>
      </trkpt>
      <trkpt lat="44.81577" lon="-0.27626">
        <ele>54</ele>
        <time>2012-07-29T14:27:14Z</time>
      </trkpt>
      <trkpt lat="44.8158" lon="-0.27641">
        <ele>54</ele>
        <time>2012-07-29T14:27:17Z</time>
      </trkpt>
      <trkpt lat="44.81582" lon="-0.27656">
        <ele>54</ele>
        <time>2012-07-29T14:27:20Z</time>
      </trkpt>
      <trkpt lat="44.81586" lon="-0.27672">
        <ele>54</ele>
        <time>2012-07-29T14:27:24Z</time>
      </trkpt>
      <trkpt lat="44.81587" lon="-0.27687">
        <ele>54</ele>
        <time>2012-07-29T14:27:28Z</time>
      </trkpt>
      <trkpt lat="44.8159" lon="-0.27701">
        <ele>54</ele>
        <time>2012-07-29T14:27:32Z</time>
      </trkpt>
      <trkpt lat="44.8159" lon="-0.27715">
        <ele>54</ele>
        <time>2012-07-29T14:27:35Z</time>
      </trkpt>
      <trkpt lat="44.81591" lon="-0.27731">
        <ele>54</ele>
        <time>2012-07-29T14:27:38Z</time>
      </trkpt>
      <trkpt lat="44.81593" lon="-0.27748">
        <ele>54</ele>
        <time>2012-07-29T14:27:41Z</time>
      </trkpt>
      <trkpt lat="44.81594" lon="-0.27763">
        <ele>54</ele>
        <time>2012-07-29T14:27:44Z</time>
      </trkpt>
      <trkpt lat="44.81598" lon="-0.27777">
        <ele>54</ele>
        <time>2012-07-29T14:27:47Z</time>
      </trkpt>
      <trkpt lat="44.81603" lon="-0.2779">
        <ele>53</ele>
        <time>2012-07-29T14:27:50Z</time>
      </trkpt>
      <trkpt lat="44.81607" lon="-0.27803">
        <ele>53</ele>
        <time>2012-07-29T14:27:53Z</time>
      </trkpt>
      <trkpt lat="44.81611" lon="-0.27818">
        <ele>53</ele>
        <time>2012-07-29T14:27:57Z</time>
      </trkpt>
      <trkpt lat="44.81614" lon="-0.27832">
        <ele>53</ele>
        <time>2012-07-29T14:28:01Z</time>
      </trkpt>
      <trkpt lat="44.81618" lon="-0.27844">
        <ele>53</ele>
        <time>2012-07-29T14:28:05Z</time>
      </trkpt>
      <trkpt lat="44.81619" lon="-0.27859">
        <ele>54</ele>
        <time>2012-07-29T14:28:09Z</time>
      </trkpt>
      <trkpt lat="44.81619" lon="-0.27873">
        <ele>54</ele>
        <time>2012-07-29T14:28:13Z</time>
      </trkpt>
      <trkpt lat="44.81619" lon="-0.27888">
        <ele>54</ele>
        <time>2012-07-29T14:28:18Z</time>
      </trkpt>
      <trkpt lat="44.81615" lon="-0.279">
        <ele>55</ele>
        <time>2012-07-29T14:28:25Z</time>
      </trkpt>
      <trkpt lat="44.81612" lon="-0.27913">
        <ele>55</ele>
        <time>2012-07-29T14:28:39Z</time>
      </trkpt>
      <trkpt lat="44.81614" lon="-0.27925">
        <ele>55</ele>
        <time>2012-07-29T14:28:43Z</time>
      </trkpt>
      <trkpt lat="44.81616" lon="-0.27939">
        <ele>55</ele>
        <time>2012-07-29T14:28:47Z</time>
      </trkpt>
      <trkpt lat="44.81619" lon="-0.27952">
        <ele>55</ele>
        <time>2012-07-29T14:28:51Z</time>
      </trkpt>
      <trkpt lat="44.8162" lon="-0.27966">
        <ele>55</ele>
        <time>2012-07-29T14:28:57Z</time>
      </trkpt>
      <trkpt lat="44.81626" lon="-0.2798">
        <ele>55</ele>
        <time>2012-07-29T14:29:34Z</time>
      </trkpt>
      <trkpt lat="44.81631" lon="-0.27995">
        <ele>56</ele>
        <time>2012-07-29T14:29:38Z</time>
      </trkpt>
      <trkpt lat="44.81637" lon="-0.2801">
        <ele>56</ele>
        <time>2012-07-29T14:29:42Z</time>
      </trkpt>
      <trkpt lat="44.8164" lon="-0.28024">
        <ele>57</ele>
        <time>2012-07-29T14:29:45Z</time>
      </trkpt>
      <trkpt lat="44.81644" lon="-0.28036">
        <ele>57</ele>
        <time>2012-07-29T14:29:48Z</time>
      </trkpt>
      <trkpt lat="44.81649" lon="-0.28051">
        <ele>58</ele>
        <time>2012-07-29T14:29:52Z</time>
      </trkpt>
      <trkpt lat="44.81651" lon="-0.28067">
        <ele>58</ele>
        <time>2012-07-29T14:29:56Z</time>
      </trkpt>
      <trkpt lat="44.81646" lon="-0.2808">
        <ele>59</ele>
        <time>2012-07-29T14:30:00Z</time>
      </trkpt>
      <trkpt lat="44.81639" lon="-0.28089">
        <ele>59</ele>
        <time>2012-07-29T14:30:03Z</time>
      </trkpt>
      <trkpt lat="44.81628" lon="-0.28099">
        <ele>59</ele>
        <time>2012-07-29T14:30:07Z</time>
      </trkpt>
      <trkpt lat="44.81619" lon="-0.28107">
        <ele>59</ele>
        <time>2012-07-29T14:30:11Z</time>
      </trkpt>
      <trkpt lat="44.8161" lon="-0.28116">
        <ele>60</ele>
        <time>2012-07-29T14:30:15Z</time>
      </trkpt>
      <trkpt lat="44.81601" lon="-0.28122">
        <ele>60</ele>
        <time>2012-07-29T14:30:19Z</time>
      </trkpt>
      <trkpt lat="44.81591" lon="-0.28131">
        <ele>60</ele>
        <time>2012-07-29T14:30:24Z</time>
      </trkpt>
      <trkpt lat="44.81582" lon="-0.28137">
        <ele>60</ele>
        <time>2012-07-29T14:30:28Z</time>
      </trkpt>
      <trkpt lat="44.81574" lon="-0.28143">
        <ele>60</ele>
        <time>2012-07-29T14:30:32Z</time>
      </trkpt>
      <trkpt lat="44.81575" lon="-0.28158">
        <ele>60</ele>
        <time>2012-07-29T14:30:38Z</time>
      </trkpt>
      <trkpt lat="44.81577" lon="-0.28172">
        <ele>60</ele>
        <time>2012-07-29T14:30:43Z</time>
      </trkpt>
      <trkpt lat="44.8158" lon="-0.28186">
        <ele>60</ele>
        <time>2012-07-29T14:30:48Z</time>
      </trkpt>
      <trkpt lat="44.81583" lon="-0.28201">
        <ele>61</ele>
        <time>2012-07-29T14:30:53Z</time>
      </trkpt>
      <trkpt lat="44.81586" lon="-0.28215">
        <ele>61</ele>
        <time>2012-07-29T14:30:57Z</time>
      </trkpt>
      <trkpt lat="44.81589" lon="-0.28231">
        <ele>61</ele>
        <time>2012-07-29T14:31:01Z</time>
      </trkpt>
      <trkpt lat="44.81591" lon="-0.28246">
        <ele>61</ele>
        <time>2012-07-29T14:31:04Z</time>
      </trkpt>
      <trkpt lat="44.81596" lon="-0.2826">
        <ele>61</ele>
        <time>2012-07-29T14:31:07Z</time>
      </trkpt>
      <trkpt lat="44.81603" lon="-0.28273">
        <ele>61</ele>
        <time>2012-07-29T14:31:10Z</time>
      </trkpt>
      <trkpt lat="44.81611" lon="-0.28284">
        <ele>61</ele>
        <time>2012-07-29T14:31:13Z</time>
      </trkpt>
      <trkpt lat="44.81617" lon="-0.28298">
        <ele>61</ele>
        <time>2012-07-29T14:31:16Z</time>
      </trkpt>
      <trkpt lat="44.81622" lon="-0.2831">
        <ele>61</ele>
        <time>2012-07-29T14:31:19Z</time>
      </trkpt>
      <trkpt lat="44.81626" lon="-0.28323">
        <ele>61</ele>
        <time>2012-07-29T14:31:22Z</time>
      </trkpt>
      <trkpt lat="44.81632" lon="-0.28338">
        <ele>61</ele>
        <time>2012-07-29T14:31:26Z</time>
      </trkpt>
      <trkpt lat="44.81635" lon="-0.28354">
        <ele>61</ele>
        <time>2012-07-29T14:31:30Z</time>
      </trkpt>
      <trkpt lat="44.81636" lon="-0.28369">
        <ele>61</ele>
        <time>2012-07-29T14:31:33Z</time>
      </trkpt>
      <trkpt lat="44.81639" lon="-0.28385">
        <ele>61</ele>
        <time>2012-07-29T14:31:36Z</time>
      </trkpt>
      <trkpt lat="44.81644" lon="-0.28398">
        <ele>61</ele>
        <time>2012-07-29T14:31:39Z</time>
      </trkpt>
      <trkpt lat="44.81652" lon="-0.28409">
        <ele>61</ele>
        <time>2012-07-29T14:31:42Z</time>
      </trkpt>
      <trkpt lat="44.8166" lon="-0.28417">
        <ele>61</ele>
        <time>2012-07-29T14:31:45Z</time>
      </trkpt>
      <trkpt lat="44.81669" lon="-0.28421">
        <ele>61</ele>
        <time>2012-07-29T14:31:48Z</time>
      </trkpt>
      <trkpt lat="44.8168" lon="-0.28423">
        <ele>61</ele>
        <time>2012-07-29T14:31:52Z</time>
      </trkpt>
      <trkpt lat="44.8169" lon="-0.28423">
        <ele>61</ele>
        <time>2012-07-29T14:31:56Z</time>
      </trkpt>
      <trkpt lat="44.81701" lon="-0.28424">
        <ele>61</ele>
        <time>2012-07-29T14:31:59Z</time>
      </trkpt>
      <trkpt lat="44.81712" lon="-0.28427">
        <ele>61</ele>
        <time>2012-07-29T14:32:03Z</time>
      </trkpt>
      <trkpt lat="44.81717" lon="-0.28439">
        <ele>61</ele>
        <time>2012-07-29T14:32:06Z</time>
      </trkpt>
      <trkpt lat="44.81719" lon="-0.28451">
        <ele>61</ele>
        <time>2012-07-29T14:32:09Z</time>
      </trkpt>
      <trkpt lat="44.8172" lon="-0.28467">
        <ele>61</ele>
        <time>2012-07-29T14:32:12Z</time>
      </trkpt>
      <trkpt lat="44.81723" lon="-0.28482">
        <ele>61</ele>
        <time>2012-07-29T14:32:15Z</time>
      </trkpt>
      <trkpt lat="44.81725" lon="-0.28497">
        <ele>61</ele>
        <time>2012-07-29T14:32:18Z</time>
      </trkpt>
      <trkpt lat="44.81727" lon="-0.28511">
        <ele>61</ele>
        <time>2012-07-29T14:32:21Z</time>
      </trkpt>
      <trkpt lat="44.8173" lon="-0.28526">
        <ele>61</ele>
        <time>2012-07-29T14:32:25Z</time>
      </trkpt>
      <trkpt lat="44.81735" lon="-0.28541">
        <ele>61</ele>
        <time>2012-07-29T14:32:29Z</time>
      </trkpt>
      <trkpt lat="44.81743" lon="-0.28553">
        <ele>61</ele>
        <time>2012-07-29T14:32:33Z</time>
      </trkpt>
      <trkpt lat="44.8175" lon="-0.28563">
        <ele>61</ele>
        <time>2012-07-29T14:32:36Z</time>
      </trkpt>
      <trkpt lat="44.81758" lon="-0.28577">
        <ele>61</ele>
        <time>2012-07-29T14:32:40Z</time>
      </trkpt>
      <trkpt lat="44.81764" lon="-0.28593">
        <ele>61</ele>
        <time>2012-07-29T14:32:43Z</time>
      </trkpt>
      <trkpt lat="44.8177" lon="-0.28605">
        <ele>61</ele>
        <time>2012-07-29T14:32:45Z</time>
      </trkpt>
      <trkpt lat="44.81776" lon="-0.28619">
        <ele>60</ele>
        <time>2012-07-29T14:32:47Z</time>
      </trkpt>
      <trkpt lat="44.81782" lon="-0.28632">
        <ele>60</ele>
        <time>2012-07-29T14:32:49Z</time>
      </trkpt>
      <trkpt lat="44.81788" lon="-0.28646">
        <ele>59</ele>
        <time>2012-07-29T14:32:51Z</time>
      </trkpt>
      <trkpt lat="44.81792" lon="-0.28661">
        <ele>59</ele>
        <time>2012-07-29T14:32:53Z</time>
      </trkpt>
      <trkpt lat="44.81795" lon="-0.28674">
        <ele>59</ele>
        <time>2012-07-29T14:32:55Z</time>
      </trkpt>
      <trkpt lat="44.81798" lon="-0.28687">
        <ele>58</ele>
        <time>2012-07-29T14:32:57Z</time>
      </trkpt>
      <trkpt lat="44.81801" lon="-0.28704">
        <ele>57</ele>
        <time>2012-07-29T14:33:00Z</time>
      </trkpt>
      <trkpt lat="44.81809" lon="-0.28718">
        <ele>57</ele>
        <time>2012-07-29T14:33:03Z</time>
      </trkpt>
      <trkpt lat="44.8182" lon="-0.28725">
        <ele>57</ele>
        <time>2012-07-29T14:33:06Z</time>
      </trkpt>
      <trkpt lat="44.81832" lon="-0.28727">
        <ele>57</ele>
        <time>2012-07-29T14:33:09Z</time>
      </trkpt>
      <trkpt lat="44.81844" lon="-0.28726">
        <ele>57</ele>
        <time>2012-07-29T14:33:12Z</time>
      </trkpt>
      <trkpt lat="44.81856" lon="-0.2873">
        <ele>57</ele>
        <time>2012-07-29T14:33:15Z</time>
      </trkpt>
      <trkpt lat="44.81859" lon="-0.28746">
        <ele>57</ele>
        <time>2012-07-29T14:33:18Z</time>
      </trkpt>
      <trkpt lat="44.81859" lon="-0.28761">
        <ele>56</ele>
        <time>2012-07-29T14:33:20Z</time>
      </trkpt>
      <trkpt lat="44.81857" lon="-0.28778">
        <ele>56</ele>
        <time>2012-07-29T14:33:22Z</time>
      </trkpt>
      <trkpt lat="44.81857" lon="-0.28792">
        <ele>56</ele>
        <time>2012-07-29T14:33:24Z</time>
      </trkpt>
      <trkpt lat="44.81856" lon="-0.28806">
        <ele>55</ele>
        <time>2012-07-29T14:33:26Z</time>
      </trkpt>
      <trkpt lat="44.81853" lon="-0.2882">
        <ele>54</ele>
        <time>2012-07-29T14:33:28Z</time>
      </trkpt>
      <trkpt lat="44.81848" lon="-0.28832">
        <ele>53</ele>
        <time>2012-07-29T14:33:30Z</time>
      </trkpt>
      <trkpt lat="44.81842" lon="-0.28843">
        <ele>52</ele>
        <time>2012-07-29T14:33:32Z</time>
      </trkpt>
      <trkpt lat="44.81834" lon="-0.28859">
        <ele>50</ele>
        <time>2012-07-29T14:33:35Z</time>
      </trkpt>
      <trkpt lat="44.81826" lon="-0.28876">
        <ele>49</ele>
        <time>2012-07-29T14:33:38Z</time>
      </trkpt>
      <trkpt lat="44.81819" lon="-0.28892">
        <ele>48</ele>
        <time>2012-07-29T14:33:41Z</time>
      </trkpt>
      <trkpt lat="44.81813" lon="-0.28907">
        <ele>47</ele>
        <time>2012-07-29T14:33:44Z</time>
      </trkpt>
      <trkpt lat="44.81803" lon="-0.28912">
        <ele>46</ele>
        <time>2012-07-29T14:33:48Z</time>
      </trkpt>
      <trkpt lat="44.8179" lon="-0.28912">
        <ele>46</ele>
        <time>2012-07-29T14:33:51Z</time>
      </trkpt>
      <trkpt lat="44.8178" lon="-0.28913">
        <ele>46</ele>
        <time>2012-07-29T14:33:53Z</time>
      </trkpt>
      <trkpt lat="44.81768" lon="-0.28914">
        <ele>45</ele>
        <time>2012-07-29T14:33:55Z</time>
      </trkpt>
      <trkpt lat="44.81756" lon="-0.28916">
        <ele>45</ele>
        <time>2012-07-29T14:33:57Z</time>
      </trkpt>
      <trkpt lat="44.81745" lon="-0.28918">
        <ele>44</ele>
        <time>2012-07-29T14:33:59Z</time>
      </trkpt>
      <trkpt lat="44.81735" lon="-0.28918">
        <ele>44</ele>
        <time>2012-07-29T14:34:01Z</time>
      </trkpt>
      <trkpt lat="44.81724" lon="-0.2892">
        <ele>44</ele>
        <time>2012-07-29T14:34:03Z</time>
      </trkpt>
      <trkpt lat="44.81712" lon="-0.28925">
        <ele>44</ele>
        <time>2012-07-29T14:34:06Z</time>
      </trkpt>
      <trkpt lat="44.81711" lon="-0.28942">
        <ele>44</ele>
        <time>2012-07-29T14:34:10Z</time>
      </trkpt>
      <trkpt lat="44.81711" lon="-0.28958">
        <ele>45</ele>
        <time>2012-07-29T14:34:13Z</time>
      </trkpt>
      <trkpt lat="44.8171" lon="-0.28975">
        <ele>45</ele>
        <time>2012-07-29T14:34:16Z</time>
      </trkpt>
      <trkpt lat="44.81709" lon="-0.28992">
        <ele>46</ele>
        <time>2012-07-29T14:34:19Z</time>
      </trkpt>
      <trkpt lat="44.81709" lon="-0.29007">
        <ele>46</ele>
        <time>2012-07-29T14:34:22Z</time>
      </trkpt>
      <trkpt lat="44.81708" lon="-0.29022">
        <ele>47</ele>
        <time>2012-07-29T14:34:26Z</time>
      </trkpt>
      <trkpt lat="44.81707" lon="-0.29036">
        <ele>48</ele>
        <time>2012-07-29T14:34:30Z</time>
      </trkpt>
      <trkpt lat="44.81706" lon="-0.29051">
        <ele>49</ele>
        <time>2012-07-29T14:34:35Z</time>
      </trkpt>
      <trkpt lat="44.81706" lon="-0.29067">
        <ele>50</ele>
        <time>2012-07-29T14:34:41Z</time>
      </trkpt>
      <trkpt lat="44.81705" lon="-0.29081">
        <ele>50</ele>
        <time>2012-07-29T14:34:46Z</time>
      </trkpt>
      <trkpt lat="44.81701" lon="-0.29094">
        <ele>51</ele>
        <time>2012-07-29T14:34:50Z</time>
      </trkpt>
      <trkpt lat="44.81698" lon="-0.2911">
        <ele>51</ele>
        <time>2012-07-29T14:34:55Z</time>
      </trkpt>
      <trkpt lat="44.81696" lon="-0.29123">
        <ele>52</ele>
        <time>2012-07-29T14:34:59Z</time>
      </trkpt>
      <trkpt lat="44.81692" lon="-0.29135">
        <ele>52</ele>
        <time>2012-07-29T14:35:03Z</time>
      </trkpt>
      <trkpt lat="44.81688" lon="-0.29149">
        <ele>53</ele>
        <time>2012-07-29T14:35:07Z</time>
      </trkpt>
      <trkpt lat="44.81682" lon="-0.29161">
        <ele>54</ele>
        <time>2012-07-29T14:35:11Z</time>
      </trkpt>
      <trkpt lat="44.81676" lon="-0.29174">
        <ele>54</ele>
        <time>2012-07-29T14:35:15Z</time>
      </trkpt>
      <trkpt lat="44.81674" lon="-0.29186">
        <ele>55</ele>
        <time>2012-07-29T14:35:19Z</time>
      </trkpt>
      <trkpt lat="44.81674" lon="-0.292">
        <ele>55</ele>
        <time>2012-07-29T14:35:23Z</time>
      </trkpt>
      <trkpt lat="44.81674" lon="-0.29215">
        <ele>55</ele>
        <time>2012-07-29T14:35:27Z</time>
      </trkpt>
      <trkpt lat="44.81676" lon="-0.2923">
        <ele>56</ele>
        <time>2012-07-29T14:35:31Z</time>
      </trkpt>
      <trkpt lat="44.8168" lon="-0.29244">
        <ele>56</ele>
        <time>2012-07-29T14:35:35Z</time>
      </trkpt>
      <trkpt lat="44.81682" lon="-0.29257">
        <ele>57</ele>
        <time>2012-07-29T14:35:39Z</time>
      </trkpt>
      <trkpt lat="44.81687" lon="-0.29272">
        <ele>57</ele>
        <time>2012-07-29T14:35:44Z</time>
      </trkpt>
      <trkpt lat="44.8169" lon="-0.29284">
        <ele>58</ele>
        <time>2012-07-29T14:35:49Z</time>
      </trkpt>
      <trkpt lat="44.81694" lon="-0.29298">
        <ele>58</ele>
        <time>2012-07-29T14:35:54Z</time>
      </trkpt>
      <trkpt lat="44.81698" lon="-0.29313">
        <ele>58</ele>
        <time>2012-07-29T14:35:59Z</time>
      </trkpt>
      <trkpt lat="44.81703" lon="-0.29326">
        <ele>59</ele>
        <time>2012-07-29T14:36:04Z</time>
      </trkpt>
      <trkpt lat="44.81704" lon="-0.29342">
        <ele>59</ele>
        <time>2012-07-29T14:36:10Z</time>
      </trkpt>
      <trkpt lat="44.81706" lon="-0.29356">
        <ele>59</ele>
        <time>2012-07-29T14:36:16Z</time>
      </trkpt>
      <trkpt lat="44.81709" lon="-0.2937">
        <ele>60</ele>
        <time>2012-07-29T14:36:22Z</time>
      </trkpt>
      <trkpt lat="44.81712" lon="-0.29384">
        <ele>60</ele>
        <time>2012-07-29T14:36:27Z</time>
      </trkpt>
      <trkpt lat="44.81717" lon="-0.29397">
        <ele>60</ele>
        <time>2012-07-29T14:36:32Z</time>
      </trkpt>
      <trkpt lat="44.81721" lon="-0.2941">
        <ele>60</ele>
        <time>2012-07-29T14:36:37Z</time>
      </trkpt>
      <trkpt lat="44.81724" lon="-0.29426">
        <ele>60</ele>
        <time>2012-07-29T14:36:42Z</time>
      </trkpt>
      <trkpt lat="44.81726" lon="-0.29439">
        <ele>60</ele>
        <time>2012-07-29T14:36:46Z</time>
      </trkpt>
      <trkpt lat="44.81728" lon="-0.29452">
        <ele>61</ele>
        <time>2012-07-29T14:36:50Z</time>
      </trkpt>
      <trkpt lat="44.81731" lon="-0.29465">
        <ele>61</ele>
        <time>2012-07-29T14:36:54Z</time>
      </trkpt>
      <trkpt lat="44.81733" lon="-0.29478">
        <ele>62</ele>
        <time>2012-07-29T14:36:58Z</time>
      </trkpt>
      <trkpt lat="44.81737" lon="-0.29491">
        <ele>63</ele>
        <time>2012-07-29T14:37:03Z</time>
      </trkpt>
      <trkpt lat="44.81747" lon="-0.29499">
        <ele>64</ele>
        <time>2012-07-29T14:37:08Z</time>
      </trkpt>
      <trkpt lat="44.81757" lon="-0.29505">
        <ele>65</ele>
        <time>2012-07-29T14:37:13Z</time>
      </trkpt>
      <trkpt lat="44.81766" lon="-0.29511">
        <ele>65</ele>
        <time>2012-07-29T14:37:17Z</time>
      </trkpt>
      <trkpt lat="44.81775" lon="-0.29516">
        <ele>66</ele>
        <time>2012-07-29T14:37:21Z</time>
      </trkpt>
      <trkpt lat="44.81784" lon="-0.29522">
        <ele>66</ele>
        <time>2012-07-29T14:37:25Z</time>
      </trkpt>
      <trkpt lat="44.81795" lon="-0.29528">
        <ele>67</ele>
        <time>2012-07-29T14:37:29Z</time>
      </trkpt>
      <trkpt lat="44.81803" lon="-0.29534">
        <ele>67</ele>
        <time>2012-07-29T14:37:33Z</time>
      </trkpt>
      <trkpt lat="44.81811" lon="-0.29544">
        <ele>67</ele>
        <time>2012-07-29T14:37:38Z</time>
      </trkpt>
      <trkpt lat="44.81818" lon="-0.29556">
        <ele>67</ele>
        <time>2012-07-29T14:37:42Z</time>
      </trkpt>
      <trkpt lat="44.81824" lon="-0.29567">
        <ele>67</ele>
        <time>2012-07-29T14:38:30Z</time>
      </trkpt>
      <trkpt lat="44.81832" lon="-0.2958">
        <ele>67</ele>
        <time>2012-07-29T14:38:36Z</time>
      </trkpt>
      <trkpt lat="44.81838" lon="-0.29593">
        <ele>67</ele>
        <time>2012-07-29T14:38:40Z</time>
      </trkpt>
      <trkpt lat="44.81844" lon="-0.29604">
        <ele>67</ele>
        <time>2012-07-29T14:38:44Z</time>
      </trkpt>
      <trkpt lat="44.81852" lon="-0.29616">
        <ele>67</ele>
        <time>2012-07-29T14:38:48Z</time>
      </trkpt>
      <trkpt lat="44.81861" lon="-0.29624">
        <ele>67</ele>
        <time>2012-07-29T14:38:52Z</time>
      </trkpt>
      <trkpt lat="44.81871" lon="-0.29634">
        <ele>67</ele>
        <time>2012-07-29T14:38:56Z</time>
      </trkpt>
      <trkpt lat="44.81878" lon="-0.29647">
        <ele>67</ele>
        <time>2012-07-29T14:39:00Z</time>
      </trkpt>
      <trkpt lat="44.81881" lon="-0.2966">
        <ele>67</ele>
        <time>2012-07-29T14:39:03Z</time>
      </trkpt>
      <trkpt lat="44.81882" lon="-0.29676">
        <ele>67</ele>
        <time>2012-07-29T14:39:07Z</time>
      </trkpt>
      <trkpt lat="44.81883" lon="-0.29692">
        <ele>68</ele>
        <time>2012-07-29T14:39:11Z</time>
      </trkpt>
      <trkpt lat="44.81883" lon="-0.29708">
        <ele>68</ele>
        <time>2012-07-29T14:39:15Z</time>
      </trkpt>
      <trkpt lat="44.81883" lon="-0.29722">
        <ele>68</ele>
        <time>2012-07-29T14:39:18Z</time>
      </trkpt>
      <trkpt lat="44.81883" lon="-0.29736">
        <ele>68</ele>
        <time>2012-07-29T14:39:21Z</time>
      </trkpt>
      <trkpt lat="44.81884" lon="-0.2975">
        <ele>68</ele>
        <time>2012-07-29T14:39:24Z</time>
      </trkpt>
      <trkpt lat="44.81885" lon="-0.29764">
        <ele>68</ele>
        <time>2012-07-29T14:39:27Z</time>
      </trkpt>
      <trkpt lat="44.81885" lon="-0.29777">
        <ele>68</ele>
        <time>2012-07-29T14:39:30Z</time>
      </trkpt>
      <trkpt lat="44.81885" lon="-0.29792">
        <ele>68</ele>
        <time>2012-07-29T14:39:33Z</time>
      </trkpt>
      <trkpt lat="44.81885" lon="-0.29807">
        <ele>68</ele>
        <time>2012-07-29T14:39:36Z</time>
      </trkpt>
      <trkpt lat="44.81887" lon="-0.29822">
        <ele>68</ele>
        <time>2012-07-29T14:39:39Z</time>
      </trkpt>
      <trkpt lat="44.81887" lon="-0.29838">
        <ele>68</ele>
        <time>2012-07-29T14:39:42Z</time>
      </trkpt>
      <trkpt lat="44.81887" lon="-0.29851">
        <ele>67</ele>
        <time>2012-07-29T14:39:45Z</time>
      </trkpt>
      <trkpt lat="44.81889" lon="-0.29868">
        <ele>67</ele>
        <time>2012-07-29T14:39:49Z</time>
      </trkpt>
      <trkpt lat="44.81886" lon="-0.29881">
        <ele>66</ele>
        <time>2012-07-29T14:39:54Z</time>
      </trkpt>
      <trkpt lat="44.81873" lon="-0.29882">
        <ele>67</ele>
        <time>2012-07-29T14:39:58Z</time>
      </trkpt>
      <trkpt lat="44.81864" lon="-0.29882">
        <ele>68</ele>
        <time>2012-07-29T14:40:01Z</time>
      </trkpt>
      <trkpt lat="44.81854" lon="-0.29882">
        <ele>68</ele>
        <time>2012-07-29T14:40:04Z</time>
      </trkpt>
      <trkpt lat="44.81844" lon="-0.29882">
        <ele>68</ele>
        <time>2012-07-29T14:40:07Z</time>
      </trkpt>
      <trkpt lat="44.81834" lon="-0.29882">
        <ele>69</ele>
        <time>2012-07-29T14:40:10Z</time>
      </trkpt>
      <trkpt lat="44.81822" lon="-0.29878">
        <ele>69</ele>
        <time>2012-07-29T14:40:14Z</time>
      </trkpt>
      <trkpt lat="44.81811" lon="-0.29873">
        <ele>70</ele>
        <time>2012-07-29T14:40:18Z</time>
      </trkpt>
      <trkpt lat="44.818" lon="-0.29867">
        <ele>70</ele>
        <time>2012-07-29T14:40:22Z</time>
      </trkpt>
      <trkpt lat="44.81789" lon="-0.29863">
        <ele>70</ele>
        <time>2012-07-29T14:40:26Z</time>
      </trkpt>
      <trkpt lat="44.81777" lon="-0.2986">
        <ele>71</ele>
        <time>2012-07-29T14:40:30Z</time>
      </trkpt>
      <trkpt lat="44.81766" lon="-0.29859">
        <ele>71</ele>
        <time>2012-07-29T14:40:34Z</time>
      </trkpt>
      <trkpt lat="44.81755" lon="-0.29855">
        <ele>71</ele>
        <time>2012-07-29T14:40:38Z</time>
      </trkpt>
      <trkpt lat="44.81743" lon="-0.29852">
        <ele>71</ele>
        <time>2012-07-29T14:40:42Z</time>
      </trkpt>
      <trkpt lat="44.81734" lon="-0.29849">
        <ele>71</ele>
        <time>2012-07-29T14:40:45Z</time>
      </trkpt>
      <trkpt lat="44.81722" lon="-0.29846">
        <ele>71</ele>
        <time>2012-07-29T14:40:49Z</time>
      </trkpt>
      <trkpt lat="44.81711" lon="-0.29842">
        <ele>71</ele>
        <time>2012-07-29T14:40:53Z</time>
      </trkpt>
      <trkpt lat="44.817" lon="-0.29839">
        <ele>71</ele>
        <time>2012-07-29T14:40:57Z</time>
      </trkpt>
      <trkpt lat="44.81688" lon="-0.29836">
        <ele>71</ele>
        <time>2012-07-29T14:41:01Z</time>
      </trkpt>
      <trkpt lat="44.81679" lon="-0.29834">
        <ele>71</ele>
        <time>2012-07-29T14:41:05Z</time>
      </trkpt>
      <trkpt lat="44.8167" lon="-0.29825">
        <ele>71</ele>
        <time>2012-07-29T14:41:11Z</time>
      </trkpt>
      <trkpt lat="44.81663" lon="-0.29815">
        <ele>71</ele>
        <time>2012-07-29T14:41:16Z</time>
      </trkpt>
      <trkpt lat="44.81654" lon="-0.29811">
        <ele>70</ele>
        <time>2012-07-29T14:41:21Z</time>
      </trkpt>
      <trkpt lat="44.81642" lon="-0.29808">
        <ele>70</ele>
        <time>2012-07-29T14:41:26Z</time>
      </trkpt>
      <trkpt lat="44.81632" lon="-0.29809">
        <ele>69</ele>
        <time>2012-07-29T14:41:29Z</time>
      </trkpt>
      <trkpt lat="44.8162" lon="-0.29809">
        <ele>69</ele>
        <time>2012-07-29T14:41:32Z</time>
      </trkpt>
      <trkpt lat="44.81608" lon="-0.29809">
        <ele>68</ele>
        <time>2012-07-29T14:41:35Z</time>
      </trkpt>
      <trkpt lat="44.81597" lon="-0.29809">
        <ele>68</ele>
        <time>2012-07-29T14:41:38Z</time>
      </trkpt>
      <trkpt lat="44.81587" lon="-0.29808">
        <ele>67</ele>
        <time>2012-07-29T14:41:41Z</time>
      </trkpt>
      <trkpt lat="44.81577" lon="-0.29809">
        <ele>67</ele>
        <time>2012-07-29T14:41:46Z</time>
      </trkpt>
      <trkpt lat="44.81568" lon="-0.29807">
        <ele>67</ele>
        <time>2012-07-29T14:41:52Z</time>
      </trkpt>
      <trkpt lat="44.81557" lon="-0.29808">
        <ele>66</ele>
        <time>2012-07-29T14:42:02Z</time>
      </trkpt>
      <trkpt lat="44.81549" lon="-0.29815">
        <ele>66</ele>
        <time>2012-07-29T14:42:08Z</time>
      </trkpt>
      <trkpt lat="44.81548" lon="-0.29829">
        <ele>66</ele>
        <time>2012-07-29T14:42:12Z</time>
      </trkpt>
      <trkpt lat="44.81546" lon="-0.29843">
        <ele>67</ele>
        <time>2012-07-29T14:42:16Z</time>
      </trkpt>
      <trkpt lat="44.81545" lon="-0.29859">
        <ele>67</ele>
        <time>2012-07-29T14:42:20Z</time>
      </trkpt>
      <trkpt lat="44.81543" lon="-0.29875">
        <ele>67</ele>
        <time>2012-07-29T14:42:24Z</time>
      </trkpt>
      <trkpt lat="44.8154" lon="-0.29889">
        <ele>68</ele>
        <time>2012-07-29T14:42:27Z</time>
      </trkpt>
      <trkpt lat="44.81537" lon="-0.29902">
        <ele>68</ele>
        <time>2012-07-29T14:42:30Z</time>
      </trkpt>
      <trkpt lat="44.81534" lon="-0.29916">
        <ele>68</ele>
        <time>2012-07-29T14:42:33Z</time>
      </trkpt>
      <trkpt lat="44.81529" lon="-0.2993">
        <ele>68</ele>
        <time>2012-07-29T14:42:36Z</time>
      </trkpt>
      <trkpt lat="44.81525" lon="-0.29944">
        <ele>68</ele>
        <time>2012-07-29T14:42:39Z</time>
      </trkpt>
      <trkpt lat="44.81521" lon="-0.29958">
        <ele>69</ele>
        <time>2012-07-29T14:42:42Z</time>
      </trkpt>
      <trkpt lat="44.81517" lon="-0.29971">
        <ele>69</ele>
        <time>2012-07-29T14:42:45Z</time>
      </trkpt>
      <trkpt lat="44.81513" lon="-0.29985">
        <ele>69</ele>
        <time>2012-07-29T14:42:48Z</time>
      </trkpt>
      <trkpt lat="44.81508" lon="-0.29997">
        <ele>69</ele>
        <time>2012-07-29T14:42:51Z</time>
      </trkpt>
      <trkpt lat="44.81502" lon="-0.30009">
        <ele>69</ele>
        <time>2012-07-29T14:42:54Z</time>
      </trkpt>
      <trkpt lat="44.81496" lon="-0.30021">
        <ele>70</ele>
        <time>2012-07-29T14:42:57Z</time>
      </trkpt>
      <trkpt lat="44.8149" lon="-0.30033">
        <ele>70</ele>
        <time>2012-07-29T14:43:00Z</time>
      </trkpt>
      <trkpt lat="44.81485" lon="-0.30046">
        <ele>70</ele>
        <time>2012-07-29T14:43:03Z</time>
      </trkpt>
      <trkpt lat="44.81479" lon="-0.30059">
        <ele>70</ele>
        <time>2012-07-29T14:43:06Z</time>
      </trkpt>
      <trkpt lat="44.81474" lon="-0.30072">
        <ele>70</ele>
        <time>2012-07-29T14:43:09Z</time>
      </trkpt>
      <trkpt lat="44.8147" lon="-0.30086">
        <ele>71</ele>
        <time>2012-07-29T14:43:12Z</time>
      </trkpt>
      <trkpt lat="44.81467" lon="-0.30099">
        <ele>71</ele>
        <time>2012-07-29T14:43:15Z</time>
      </trkpt>
      <trkpt lat="44.81465" lon="-0.30113">
        <ele>71</ele>
        <time>2012-07-29T14:43:18Z</time>
      </trkpt>
      <trkpt lat="44.81463" lon="-0.30128">
        <ele>71</ele>
        <time>2012-07-29T14:43:21Z</time>
      </trkpt>
      <trkpt lat="44.81461" lon="-0.30142">
        <ele>71</ele>
        <time>2012-07-29T14:43:24Z</time>
      </trkpt>
      <trkpt lat="44.81459" lon="-0.30156">
        <ele>71</ele>
        <time>2012-07-29T14:43:27Z</time>
      </trkpt>
      <trkpt lat="44.81457" lon="-0.30172">
        <ele>71</ele>
        <time>2012-07-29T14:43:30Z</time>
      </trkpt>
      <trkpt lat="44.81456" lon="-0.30189">
        <ele>71</ele>
        <time>2012-07-29T14:43:33Z</time>
      </trkpt>
      <trkpt lat="44.81453" lon="-0.30207">
        <ele>70</ele>
        <time>2012-07-29T14:43:36Z</time>
      </trkpt>
      <trkpt lat="44.81452" lon="-0.3022">
        <ele>70</ele>
        <time>2012-07-29T14:43:38Z</time>
      </trkpt>
      <trkpt lat="44.81451" lon="-0.30234">
        <ele>70</ele>
        <time>2012-07-29T14:43:40Z</time>
      </trkpt>
      <trkpt lat="44.81447" lon="-0.30254">
        <ele>69</ele>
        <time>2012-07-29T14:43:43Z</time>
      </trkpt>
      <trkpt lat="44.81444" lon="-0.30266">
        <ele>69</ele>
        <time>2012-07-29T14:43:45Z</time>
      </trkpt>
      <trkpt lat="44.8144" lon="-0.30279">
        <ele>69</ele>
        <time>2012-07-29T14:43:47Z</time>
      </trkpt>
      <trkpt lat="44.81435" lon="-0.30291">
        <ele>68</ele>
        <time>2012-07-29T14:43:49Z</time>
      </trkpt>
      <trkpt lat="44.8143" lon="-0.30303">
        <ele>68</ele>
        <time>2012-07-29T14:43:51Z</time>
      </trkpt>
      <trkpt lat="44.81424" lon="-0.30315">
        <ele>69</ele>
        <time>2012-07-29T14:43:53Z</time>
      </trkpt>
      <trkpt lat="44.81419" lon="-0.30326">
        <ele>69</ele>
        <time>2012-07-29T14:43:55Z</time>
      </trkpt>
      <trkpt lat="44.81412" lon="-0.30336">
        <ele>69</ele>
        <time>2012-07-29T14:43:57Z</time>
      </trkpt>
      <trkpt lat="44.81402" lon="-0.3035">
        <ele>69</ele>
        <time>2012-07-29T14:44:00Z</time>
      </trkpt>
      <trkpt lat="44.81395" lon="-0.3036">
        <ele>70</ele>
        <time>2012-07-29T14:44:02Z</time>
      </trkpt>
      <trkpt lat="44.81387" lon="-0.30368">
        <ele>70</ele>
        <time>2012-07-29T14:44:04Z</time>
      </trkpt>
      <trkpt lat="44.81376" lon="-0.30381">
        <ele>69</ele>
        <time>2012-07-29T14:44:07Z</time>
      </trkpt>
      <trkpt lat="44.81367" lon="-0.30395">
        <ele>69</ele>
        <time>2012-07-29T14:44:10Z</time>
      </trkpt>
      <trkpt lat="44.81357" lon="-0.30408">
        <ele>68</ele>
        <time>2012-07-29T14:44:13Z</time>
      </trkpt>
      <trkpt lat="44.8135" lon="-0.30421">
        <ele>68</ele>
        <time>2012-07-29T14:44:16Z</time>
      </trkpt>
      <trkpt lat="44.81339" lon="-0.3042">
        <ele>68</ele>
        <time>2012-07-29T14:44:21Z</time>
      </trkpt>
      <trkpt lat="44.8133" lon="-0.30422">
        <ele>68</ele>
        <time>2012-07-29T14:44:25Z</time>
      </trkpt>
      <trkpt lat="44.81318" lon="-0.30425">
        <ele>68</ele>
        <time>2012-07-29T14:44:29Z</time>
      </trkpt>
      <trkpt lat="44.81305" lon="-0.30428">
        <ele>68</ele>
        <time>2012-07-29T14:44:33Z</time>
      </trkpt>
      <trkpt lat="44.81294" lon="-0.3043">
        <ele>67</ele>
        <time>2012-07-29T14:44:36Z</time>
      </trkpt>
      <trkpt lat="44.81282" lon="-0.30433">
        <ele>67</ele>
        <time>2012-07-29T14:44:39Z</time>
      </trkpt>
      <trkpt lat="44.8127" lon="-0.30436">
        <ele>67</ele>
        <time>2012-07-29T14:44:42Z</time>
      </trkpt>
      <trkpt lat="44.81257" lon="-0.30439">
        <ele>66</ele>
        <time>2012-07-29T14:44:45Z</time>
      </trkpt>
      <trkpt lat="44.81243" lon="-0.30442">
        <ele>66</ele>
        <time>2012-07-29T14:44:48Z</time>
      </trkpt>
      <trkpt lat="44.81229" lon="-0.30446">
        <ele>66</ele>
        <time>2012-07-29T14:44:51Z</time>
      </trkpt>
      <trkpt lat="44.81219" lon="-0.30448">
        <ele>66</ele>
        <time>2012-07-29T14:44:53Z</time>
      </trkpt>
      <trkpt lat="44.81208" lon="-0.3045">
        <ele>65</ele>
        <time>2012-07-29T14:44:55Z</time>
      </trkpt>
      <trkpt lat="44.81198" lon="-0.30454">
        <ele>65</ele>
        <time>2012-07-29T14:44:57Z</time>
      </trkpt>
      <trkpt lat="44.81188" lon="-0.30459">
        <ele>65</ele>
        <time>2012-07-29T14:44:59Z</time>
      </trkpt>
      <trkpt lat="44.8118" lon="-0.30463">
        <ele>65</ele>
        <time>2012-07-29T14:45:01Z</time>
      </trkpt>
      <trkpt lat="44.81166" lon="-0.30469">
        <ele>65</ele>
        <time>2012-07-29T14:45:04Z</time>
      </trkpt>
      <trkpt lat="44.81157" lon="-0.30474">
        <ele>65</ele>
        <time>2012-07-29T14:45:06Z</time>
      </trkpt>
      <trkpt lat="44.81148" lon="-0.30477">
        <ele>65</ele>
        <time>2012-07-29T14:45:08Z</time>
      </trkpt>
      <trkpt lat="44.81139" lon="-0.30481">
        <ele>66</ele>
        <time>2012-07-29T14:45:10Z</time>
      </trkpt>
      <trkpt lat="44.81129" lon="-0.30483">
        <ele>66</ele>
        <time>2012-07-29T14:45:12Z</time>
      </trkpt>
      <trkpt lat="44.81116" lon="-0.30487">
        <ele>66</ele>
        <time>2012-07-29T14:45:15Z</time>
      </trkpt>
      <trkpt lat="44.81106" lon="-0.3049">
        <ele>66</ele>
        <time>2012-07-29T14:45:17Z</time>
      </trkpt>
      <trkpt lat="44.81093" lon="-0.30496">
        <ele>67</ele>
        <time>2012-07-29T14:45:20Z</time>
      </trkpt>
      <trkpt lat="44.81084" lon="-0.30501">
        <ele>67</ele>
        <time>2012-07-29T14:45:22Z</time>
      </trkpt>
      <trkpt lat="44.81073" lon="-0.30509">
        <ele>67</ele>
        <time>2012-07-29T14:45:25Z</time>
      </trkpt>
      <trkpt lat="44.81062" lon="-0.30515">
        <ele>68</ele>
        <time>2012-07-29T14:45:28Z</time>
      </trkpt>
      <trkpt lat="44.81052" lon="-0.30519">
        <ele>68</ele>
        <time>2012-07-29T14:45:31Z</time>
      </trkpt>
      <trkpt lat="44.81043" lon="-0.30524">
        <ele>68</ele>
        <time>2012-07-29T14:45:34Z</time>
      </trkpt>
      <trkpt lat="44.81032" lon="-0.30528">
        <ele>69</ele>
        <time>2012-07-29T14:45:37Z</time>
      </trkpt>
      <trkpt lat="44.81022" lon="-0.30532">
        <ele>69</ele>
        <time>2012-07-29T14:45:40Z</time>
      </trkpt>
      <trkpt lat="44.81013" lon="-0.30536">
        <ele>69</ele>
        <time>2012-07-29T14:45:43Z</time>
      </trkpt>
      <trkpt lat="44.81003" lon="-0.30541">
        <ele>69</ele>
        <time>2012-07-29T14:45:46Z</time>
      </trkpt>
      <trkpt lat="44.80993" lon="-0.30545">
        <ele>69</ele>
        <time>2012-07-29T14:45:49Z</time>
      </trkpt>
      <trkpt lat="44.80981" lon="-0.30551">
        <ele>69</ele>
        <time>2012-07-29T14:45:52Z</time>
      </trkpt>
      <trkpt lat="44.8097" lon="-0.30556">
        <ele>69</ele>
        <time>2012-07-29T14:45:55Z</time>
      </trkpt>
      <trkpt lat="44.80958" lon="-0.30562">
        <ele>69</ele>
        <time>2012-07-29T14:45:58Z</time>
      </trkpt>
      <trkpt lat="44.80946" lon="-0.30567">
        <ele>69</ele>
        <time>2012-07-29T14:46:01Z</time>
      </trkpt>
      <trkpt lat="44.80935" lon="-0.30572">
        <ele>69</ele>
        <time>2012-07-29T14:46:04Z</time>
      </trkpt>
      <trkpt lat="44.80922" lon="-0.30578">
        <ele>70</ele>
        <time>2012-07-29T14:46:07Z</time>
      </trkpt>
      <trkpt lat="44.8091" lon="-0.30583">
        <ele>70</ele>
        <time>2012-07-29T14:46:10Z</time>
      </trkpt>
      <trkpt lat="44.80899" lon="-0.30588">
        <ele>70</ele>
        <time>2012-07-29T14:46:13Z</time>
      </trkpt>
      <trkpt lat="44.80887" lon="-0.30592">
        <ele>70</ele>
        <time>2012-07-29T14:46:16Z</time>
      </trkpt>
      <trkpt lat="44.80876" lon="-0.30598">
        <ele>70</ele>
        <time>2012-07-29T14:46:19Z</time>
      </trkpt>
      <trkpt lat="44.80866" lon="-0.30603">
        <ele>71</ele>
        <time>2012-07-29T14:46:22Z</time>
      </trkpt>
      <trkpt lat="44.80855" lon="-0.30611">
        <ele>71</ele>
        <time>2012-07-29T14:46:26Z</time>
      </trkpt>
      <trkpt lat="44.80848" lon="-0.30621">
        <ele>71</ele>
        <time>2012-07-29T14:46:31Z</time>
      </trkpt>
      <trkpt lat="44.80843" lon="-0.30632">
        <ele>71</ele>
        <time>2012-07-29T14:46:37Z</time>
      </trkpt>
      <trkpt lat="44.80835" lon="-0.30642">
        <ele>70</ele>
        <time>2012-07-29T14:46:42Z</time>
      </trkpt>
      <trkpt lat="44.80827" lon="-0.30651">
        <ele>70</ele>
        <time>2012-07-29T14:46:45Z</time>
      </trkpt>
      <trkpt lat="44.80818" lon="-0.30664">
        <ele>69</ele>
        <time>2012-07-29T14:46:48Z</time>
      </trkpt>
      <trkpt lat="44.80812" lon="-0.30674">
        <ele>69</ele>
        <time>2012-07-29T14:46:50Z</time>
      </trkpt>
      <trkpt lat="44.80805" lon="-0.30685">
        <ele>69</ele>
        <time>2012-07-29T14:46:52Z</time>
      </trkpt>
      <trkpt lat="44.80797" lon="-0.30696">
        <ele>69</ele>
        <time>2012-07-29T14:46:54Z</time>
      </trkpt>
      <trkpt lat="44.80789" lon="-0.30708">
        <ele>68</ele>
        <time>2012-07-29T14:46:56Z</time>
      </trkpt>
      <trkpt lat="44.80781" lon="-0.30719">
        <ele>67</ele>
        <time>2012-07-29T14:46:58Z</time>
      </trkpt>
      <trkpt lat="44.80773" lon="-0.30729">
        <ele>66</ele>
        <time>2012-07-29T14:47:00Z</time>
      </trkpt>
      <trkpt lat="44.80766" lon="-0.30739">
        <ele>66</ele>
        <time>2012-07-29T14:47:02Z</time>
      </trkpt>
      <trkpt lat="44.80757" lon="-0.30748">
        <ele>65</ele>
        <time>2012-07-29T14:47:04Z</time>
      </trkpt>
      <trkpt lat="44.80746" lon="-0.30753">
        <ele>64</ele>
        <time>2012-07-29T14:47:06Z</time>
      </trkpt>
      <trkpt lat="44.80735" lon="-0.30759">
        <ele>64</ele>
        <time>2012-07-29T14:47:08Z</time>
      </trkpt>
      <trkpt lat="44.80724" lon="-0.30766">
        <ele>64</ele>
        <time>2012-07-29T14:47:10Z</time>
      </trkpt>
      <trkpt lat="44.80714" lon="-0.30774">
        <ele>63</ele>
        <time>2012-07-29T14:47:12Z</time>
      </trkpt>
      <trkpt lat="44.80704" lon="-0.30781">
        <ele>63</ele>
        <time>2012-07-29T14:47:14Z</time>
      </trkpt>
      <trkpt lat="44.80695" lon="-0.30787">
        <ele>63</ele>
        <time>2012-07-29T14:47:16Z</time>
      </trkpt>
      <trkpt lat="44.80686" lon="-0.30793">
        <ele>63</ele>
        <time>2012-07-29T14:47:18Z</time>
      </trkpt>
      <trkpt lat="44.80678" lon="-0.30801">
        <ele>64</ele>
        <time>2012-07-29T14:47:20Z</time>
      </trkpt>
      <trkpt lat="44.80668" lon="-0.30808">
        <ele>64</ele>
        <time>2012-07-29T14:47:22Z</time>
      </trkpt>
      <trkpt lat="44.8066" lon="-0.30815">
        <ele>64</ele>
        <time>2012-07-29T14:47:24Z</time>
      </trkpt>
      <trkpt lat="44.80651" lon="-0.30822">
        <ele>64</ele>
        <time>2012-07-29T14:47:26Z</time>
      </trkpt>
      <trkpt lat="44.80639" lon="-0.30833">
        <ele>65</ele>
        <time>2012-07-29T14:47:29Z</time>
      </trkpt>
      <trkpt lat="44.80628" lon="-0.30845">
        <ele>65</ele>
        <time>2012-07-29T14:47:32Z</time>
      </trkpt>
      <trkpt lat="44.80619" lon="-0.30852">
        <ele>66</ele>
        <time>2012-07-29T14:47:34Z</time>
      </trkpt>
      <trkpt lat="44.80612" lon="-0.3086">
        <ele>66</ele>
        <time>2012-07-29T14:47:36Z</time>
      </trkpt>
      <trkpt lat="44.80604" lon="-0.30868">
        <ele>66</ele>
        <time>2012-07-29T14:47:38Z</time>
      </trkpt>
      <trkpt lat="44.80592" lon="-0.3088">
        <ele>66</ele>
        <time>2012-07-29T14:47:41Z</time>
      </trkpt>
      <trkpt lat="44.80582" lon="-0.30891">
        <ele>67</ele>
        <time>2012-07-29T14:47:44Z</time>
      </trkpt>
      <trkpt lat="44.80573" lon="-0.30902">
        <ele>67</ele>
        <time>2012-07-29T14:47:47Z</time>
      </trkpt>
      <trkpt lat="44.80564" lon="-0.3091">
        <ele>67</ele>
        <time>2012-07-29T14:47:50Z</time>
      </trkpt>
      <trkpt lat="44.80555" lon="-0.30918">
        <ele>68</ele>
        <time>2012-07-29T14:47:53Z</time>
      </trkpt>
      <trkpt lat="44.80548" lon="-0.30931">
        <ele>68</ele>
        <time>2012-07-29T14:47:57Z</time>
      </trkpt>
      <trkpt lat="44.80547" lon="-0.30944">
        <ele>68</ele>
        <time>2012-07-29T14:48:01Z</time>
      </trkpt>
      <trkpt lat="44.80544" lon="-0.30958">
        <ele>68</ele>
        <time>2012-07-29T14:48:06Z</time>
      </trkpt>
      <trkpt lat="44.8054" lon="-0.30969">
        <ele>68</ele>
        <time>2012-07-29T14:48:21Z</time>
      </trkpt>
      <trkpt lat="44.8053" lon="-0.30969">
        <ele>68</ele>
        <time>2012-07-29T14:48:32Z</time>
      </trkpt>
      <trkpt lat="44.80519" lon="-0.30968">
        <ele>69</ele>
        <time>2012-07-29T14:48:38Z</time>
      </trkpt>
      <trkpt lat="44.8051" lon="-0.30973">
        <ele>69</ele>
        <time>2012-07-29T14:48:42Z</time>
      </trkpt>
      <trkpt lat="44.80502" lon="-0.30983">
        <ele>69</ele>
        <time>2012-07-29T14:48:48Z</time>
      </trkpt>
      <trkpt lat="44.80494" lon="-0.30993">
        <ele>69</ele>
        <time>2012-07-29T14:48:53Z</time>
      </trkpt>
      <trkpt lat="44.80485" lon="-0.31002">
        <ele>69</ele>
        <time>2012-07-29T14:48:58Z</time>
      </trkpt>
      <trkpt lat="44.80477" lon="-0.31012">
        <ele>69</ele>
        <time>2012-07-29T14:49:03Z</time>
      </trkpt>
      <trkpt lat="44.80472" lon="-0.31023">
        <ele>69</ele>
        <time>2012-07-29T14:49:13Z</time>
      </trkpt>
      <trkpt lat="44.80462" lon="-0.31016">
        <ele>70</ele>
        <time>2012-07-29T14:50:15Z</time>
      </trkpt>
      <trkpt lat="44.80454" lon="-0.31024">
        <ele>70</ele>
        <time>2012-07-29T14:55:54Z</time>
      </trkpt>
      <trkpt lat="44.80445" lon="-0.3103">
        <ele>70</ele>
        <time>2012-07-29T14:56:03Z</time>
      </trkpt>
      <trkpt lat="44.80438" lon="-0.3104">
        <ele>70</ele>
        <time>2012-07-29T14:56:20Z</time>
      </trkpt>
      <trkpt lat="44.80431" lon="-0.31049">
        <ele>70</ele>
        <time>2012-07-29T14:57:54Z</time>
      </trkpt>
      <trkpt lat="44.80426" lon="-0.3106">
        <ele>70</ele>
        <time>2012-07-29T14:59:29Z</time>
      </trkpt>
      <trkpt lat="44.80418" lon="-0.3107">
        <ele>71</ele>
        <time>2012-07-29T14:59:37Z</time>
      </trkpt>
      <trkpt lat="44.80409" lon="-0.3108">
        <ele>71</ele>
        <time>2012-07-29T14:59:44Z</time>
      </trkpt>
      <trkpt lat="44.80401" lon="-0.31089">
        <ele>71</ele>
        <time>2012-07-29T14:59:50Z</time>
      </trkpt>
      <trkpt lat="44.80394" lon="-0.31099">
        <ele>71</ele>
        <time>2012-07-29T14:59:55Z</time>
      </trkpt>
      <trkpt lat="44.80385" lon="-0.31107">
        <ele>71</ele>
        <time>2012-07-29T15:00:01Z</time>
      </trkpt>
      <trkpt lat="44.80378" lon="-0.31117">
        <ele>72</ele>
        <time>2012-07-29T15:00:08Z</time>
      </trkpt>
      <trkpt lat="44.80371" lon="-0.31128">
        <ele>72</ele>
        <time>2012-07-29T15:00:17Z</time>
      </trkpt>
      <trkpt lat="44.80364" lon="-0.31137">
        <ele>72</ele>
        <time>2012-07-29T15:00:24Z</time>
      </trkpt>
      <trkpt lat="44.80355" lon="-0.31145">
        <ele>72</ele>
        <time>2012-07-29T15:00:39Z</time>
      </trkpt>
      <trkpt lat="44.80349" lon="-0.31155">
        <ele>72</ele>
        <time>2012-07-29T15:00:47Z</time>
      </trkpt>
      <trkpt lat="44.80341" lon="-0.31164">
        <ele>72</ele>
        <time>2012-07-29T15:00:54Z</time>
      </trkpt>
      <trkpt lat="44.80333" lon="-0.31173">
        <ele>72</ele>
        <time>2012-07-29T15:00:58Z</time>
      </trkpt>
      <trkpt lat="44.80325" lon="-0.31183">
        <ele>73</ele>
        <time>2012-07-29T15:01:03Z</time>
      </trkpt>
      <trkpt lat="44.80313" lon="-0.31196">
        <ele>73</ele>
        <time>2012-07-29T15:01:10Z</time>
      </trkpt>
      <trkpt lat="44.80304" lon="-0.31204">
        <ele>74</ele>
        <time>2012-07-29T15:01:16Z</time>
      </trkpt>
      <trkpt lat="44.80295" lon="-0.31208">
        <ele>74</ele>
        <time>2012-07-29T15:01:21Z</time>
      </trkpt>
      <trkpt lat="44.80286" lon="-0.31214">
        <ele>75</ele>
        <time>2012-07-29T15:01:24Z</time>
      </trkpt>
      <trkpt lat="44.80277" lon="-0.31218">
        <ele>76</ele>
        <time>2012-07-29T15:01:27Z</time>
      </trkpt>
      <trkpt lat="44.80267" lon="-0.31221">
        <ele>77</ele>
        <time>2012-07-29T15:01:31Z</time>
      </trkpt>
      <trkpt lat="44.80256" lon="-0.31225">
        <ele>78</ele>
        <time>2012-07-29T15:01:35Z</time>
      </trkpt>
      <trkpt lat="44.80246" lon="-0.31225">
        <ele>79</ele>
        <time>2012-07-29T15:01:40Z</time>
      </trkpt>
      <trkpt lat="44.80238" lon="-0.3123">
        <ele>80</ele>
        <time>2012-07-29T15:01:46Z</time>
      </trkpt>
      <trkpt lat="44.80226" lon="-0.31234">
        <ele>81</ele>
        <time>2012-07-29T15:01:50Z</time>
      </trkpt>
      <trkpt lat="44.80216" lon="-0.3124">
        <ele>83</ele>
        <time>2012-07-29T15:01:54Z</time>
      </trkpt>
      <trkpt lat="44.80211" lon="-0.31252">
        <ele>84</ele>
        <time>2012-07-29T15:02:34Z</time>
      </trkpt>
      <trkpt lat="44.80205" lon="-0.31263">
        <ele>84</ele>
        <time>2012-07-29T15:02:39Z</time>
      </trkpt>
      <trkpt lat="44.80199" lon="-0.31275">
        <ele>85</ele>
        <time>2012-07-29T15:02:47Z</time>
      </trkpt>
      <trkpt lat="44.80193" lon="-0.31287">
        <ele>86</ele>
        <time>2012-07-29T15:02:53Z</time>
      </trkpt>
      <trkpt lat="44.80195" lon="-0.31306">
        <ele>85</ele>
        <time>2012-07-29T15:02:59Z</time>
      </trkpt>
      <trkpt lat="44.80206" lon="-0.31314">
        <ele>84</ele>
        <time>2012-07-29T15:03:02Z</time>
      </trkpt>
      <trkpt lat="44.80214" lon="-0.31325">
        <ele>83</ele>
        <time>2012-07-29T15:03:05Z</time>
      </trkpt>
      <trkpt lat="44.80212" lon="-0.31342">
        <ele>83</ele>
        <time>2012-07-29T15:03:10Z</time>
      </trkpt>
      <trkpt lat="44.8021" lon="-0.31358">
        <ele>83</ele>
        <time>2012-07-29T15:03:14Z</time>
      </trkpt>
      <trkpt lat="44.80218" lon="-0.31367">
        <ele>83</ele>
        <time>2012-07-29T15:03:19Z</time>
      </trkpt>
      <trkpt lat="44.80224" lon="-0.31379">
        <ele>82</ele>
        <time>2012-07-29T15:03:24Z</time>
      </trkpt>
      <trkpt lat="44.80227" lon="-0.31393">
        <ele>82</ele>
        <time>2012-07-29T15:03:29Z</time>
      </trkpt>
      <trkpt lat="44.80224" lon="-0.31406">
        <ele>82</ele>
        <time>2012-07-29T15:03:33Z</time>
      </trkpt>
      <trkpt lat="44.80229" lon="-0.3142">
        <ele>81</ele>
        <time>2012-07-29T15:03:38Z</time>
      </trkpt>
      <trkpt lat="44.80238" lon="-0.31416">
        <ele>81</ele>
        <time>2012-07-29T15:03:43Z</time>
      </trkpt>
      <trkpt lat="44.80248" lon="-0.31412">
        <ele>80</ele>
        <time>2012-07-29T15:03:47Z</time>
      </trkpt>
      <trkpt lat="44.80248" lon="-0.31427">
        <ele>80</ele>
        <time>2012-07-29T15:03:53Z</time>
      </trkpt>
      <trkpt lat="44.8024" lon="-0.31437">
        <ele>80</ele>
        <time>2012-07-29T15:03:58Z</time>
      </trkpt>
      <trkpt lat="44.80246" lon="-0.31449">
        <ele>79</ele>
        <time>2012-07-29T15:04:02Z</time>
      </trkpt>
      <trkpt lat="44.8025" lon="-0.31463">
        <ele>78</ele>
        <time>2012-07-29T15:04:07Z</time>
      </trkpt>
      <trkpt lat="44.80255" lon="-0.31475">
        <ele>78</ele>
        <time>2012-07-29T15:04:16Z</time>
      </trkpt>
      <trkpt lat="44.80263" lon="-0.31482">
        <ele>77</ele>
        <time>2012-07-29T15:04:20Z</time>
      </trkpt>
      <trkpt lat="44.80266" lon="-0.31494">
        <ele>76</ele>
        <time>2012-07-29T15:04:23Z</time>
      </trkpt>
      <trkpt lat="44.80271" lon="-0.31507">
        <ele>76</ele>
        <time>2012-07-29T15:04:27Z</time>
      </trkpt>
      <trkpt lat="44.80276" lon="-0.31519">
        <ele>75</ele>
        <time>2012-07-29T15:04:31Z</time>
      </trkpt>
      <trkpt lat="44.80277" lon="-0.31534">
        <ele>75</ele>
        <time>2012-07-29T15:04:35Z</time>
      </trkpt>
      <trkpt lat="44.80277" lon="-0.31547">
        <ele>75</ele>
        <time>2012-07-29T15:04:39Z</time>
      </trkpt>
      <trkpt lat="44.80277" lon="-0.31561">
        <ele>74</ele>
        <time>2012-07-29T15:04:42Z</time>
      </trkpt>
      <trkpt lat="44.80281" lon="-0.31576">
        <ele>74</ele>
        <time>2012-07-29T15:04:46Z</time>
      </trkpt>
      <trkpt lat="44.80286" lon="-0.31588">
        <ele>74</ele>
        <time>2012-07-29T15:04:50Z</time>
      </trkpt>
      <trkpt lat="44.80282" lon="-0.31602">
        <ele>74</ele>
        <time>2012-07-29T15:04:53Z</time>
      </trkpt>
      <trkpt lat="44.8028" lon="-0.31614">
        <ele>75</ele>
        <time>2012-07-29T15:04:57Z</time>
      </trkpt>
      <trkpt lat="44.80277" lon="-0.31629">
        <ele>75</ele>
        <time>2012-07-29T15:05:02Z</time>
      </trkpt>
      <trkpt lat="44.80278" lon="-0.31645">
        <ele>76</ele>
        <time>2012-07-29T15:05:06Z</time>
      </trkpt>
      <trkpt lat="44.80273" lon="-0.31658">
        <ele>77</ele>
        <time>2012-07-29T15:05:10Z</time>
      </trkpt>
      <trkpt lat="44.80271" lon="-0.31672">
        <ele>78</ele>
        <time>2012-07-29T15:05:14Z</time>
      </trkpt>
      <trkpt lat="44.80263" lon="-0.31684">
        <ele>80</ele>
        <time>2012-07-29T15:05:19Z</time>
      </trkpt>
      <trkpt lat="44.80259" lon="-0.31695">
        <ele>81</ele>
        <time>2012-07-29T15:05:23Z</time>
      </trkpt>
      <trkpt lat="44.80253" lon="-0.31708">
        <ele>82</ele>
        <time>2012-07-29T15:05:31Z</time>
      </trkpt>
      <trkpt lat="44.80247" lon="-0.3172">
        <ele>83</ele>
        <time>2012-07-29T15:05:36Z</time>
      </trkpt>
      <trkpt lat="44.80241" lon="-0.31732">
        <ele>84</ele>
        <time>2012-07-29T15:05:41Z</time>
      </trkpt>
      <trkpt lat="44.80236" lon="-0.31744">
        <ele>85</ele>
        <time>2012-07-29T15:05:45Z</time>
      </trkpt>
      <trkpt lat="44.80229" lon="-0.31754">
        <ele>87</ele>
        <time>2012-07-29T15:05:50Z</time>
      </trkpt>
      <trkpt lat="44.80222" lon="-0.31764">
        <ele>89</ele>
        <time>2012-07-29T15:05:56Z</time>
      </trkpt>
      <trkpt lat="44.80216" lon="-0.31774">
        <ele>90</ele>
        <time>2012-07-29T15:06:07Z</time>
      </trkpt>
      <trkpt lat="44.80207" lon="-0.31782">
        <ele>92</ele>
        <time>2012-07-29T15:06:18Z</time>
      </trkpt>
      <trkpt lat="44.802" lon="-0.3179">
        <ele>94</ele>
        <time>2012-07-29T15:06:32Z</time>
      </trkpt>
      <trkpt lat="44.80191" lon="-0.31794">
        <ele>96</ele>
        <time>2012-07-29T15:06:56Z</time>
      </trkpt>
      <trkpt lat="44.80181" lon="-0.318">
        <ele>98</ele>
        <time>2012-07-29T15:07:14Z</time>
      </trkpt>
      <trkpt lat="44.80175" lon="-0.3181">
        <ele>99</ele>
        <time>2012-07-29T15:07:34Z</time>
      </trkpt>
      <trkpt lat="44.80168" lon="-0.3182">
        <ele>100</ele>
        <time>2012-07-29T15:07:47Z</time>
      </trkpt>
      <trkpt lat="44.80179" lon="-0.31818">
        <ele>99</ele>
        <time>2012-07-29T15:08:37Z</time>
      </trkpt>
      <trkpt lat="44.80188" lon="-0.31813">
        <ele>98</ele>
        <time>2012-07-29T15:08:43Z</time>
      </trkpt>
      <trkpt lat="44.80198" lon="-0.31808">
        <ele>96</ele>
        <time>2012-07-29T15:08:53Z</time>
      </trkpt>
      <trkpt lat="44.80207" lon="-0.31799">
        <ele>93</ele>
        <time>2012-07-29T15:09:00Z</time>
      </trkpt>
      <trkpt lat="44.80217" lon="-0.31791">
        <ele>91</ele>
        <time>2012-07-29T15:09:05Z</time>
      </trkpt>
      <trkpt lat="44.80226" lon="-0.31796">
        <ele>90</ele>
        <time>2012-07-29T15:09:09Z</time>
      </trkpt>
      <trkpt lat="44.80238" lon="-0.31797">
        <ele>88</ele>
        <time>2012-07-29T15:09:14Z</time>
      </trkpt>
      <trkpt lat="44.80249" lon="-0.31797">
        <ele>87</ele>
        <time>2012-07-29T15:09:18Z</time>
      </trkpt>
      <trkpt lat="44.80261" lon="-0.31797">
        <ele>86</ele>
        <time>2012-07-29T15:09:24Z</time>
      </trkpt>
      <trkpt lat="44.80262" lon="-0.3181">
        <ele>86</ele>
        <time>2012-07-29T15:09:30Z</time>
      </trkpt>
      <trkpt lat="44.80266" lon="-0.31826">
        <ele>86</ele>
        <time>2012-07-29T15:09:40Z</time>
      </trkpt>
      <trkpt lat="44.80273" lon="-0.31839">
        <ele>86</ele>
        <time>2012-07-29T15:09:45Z</time>
      </trkpt>
      <trkpt lat="44.80273" lon="-0.31853">
        <ele>86</ele>
        <time>2012-07-29T15:09:51Z</time>
      </trkpt>
      <trkpt lat="44.80273" lon="-0.31866">
        <ele>87</ele>
        <time>2012-07-29T15:10:01Z</time>
      </trkpt>
      <trkpt lat="44.80279" lon="-0.31878">
        <ele>86</ele>
        <time>2012-07-29T15:10:12Z</time>
      </trkpt>
      <trkpt lat="44.80286" lon="-0.31887">
        <ele>85</ele>
        <time>2012-07-29T15:10:18Z</time>
      </trkpt>
      <trkpt lat="44.80297" lon="-0.31895">
        <ele>84</ele>
        <time>2012-07-29T15:10:22Z</time>
      </trkpt>
      <trkpt lat="44.80307" lon="-0.31901">
        <ele>83</ele>
        <time>2012-07-29T15:10:26Z</time>
      </trkpt>
      <trkpt lat="44.80317" lon="-0.31898">
        <ele>81</ele>
        <time>2012-07-29T15:10:30Z</time>
      </trkpt>
      <trkpt lat="44.80317" lon="-0.31885">
        <ele>80</ele>
        <time>2012-07-29T15:10:36Z</time>
      </trkpt>
      <trkpt lat="44.80325" lon="-0.31876">
        <ele>80</ele>
        <time>2012-07-29T15:10:42Z</time>
      </trkpt>
      <trkpt lat="44.8033" lon="-0.31864">
        <ele>79</ele>
        <time>2012-07-29T15:10:47Z</time>
      </trkpt>
      <trkpt lat="44.80337" lon="-0.31852">
        <ele>79</ele>
        <time>2012-07-29T15:10:53Z</time>
      </trkpt>
      <trkpt lat="44.80346" lon="-0.31847">
        <ele>78</ele>
        <time>2012-07-29T15:10:57Z</time>
      </trkpt>
      <trkpt lat="44.80356" lon="-0.31839">
        <ele>77</ele>
        <time>2012-07-29T15:11:02Z</time>
      </trkpt>
      <trkpt lat="44.80365" lon="-0.3184">
        <ele>76</ele>
        <time>2012-07-29T15:13:05Z</time>
      </trkpt>
      <trkpt lat="44.80376" lon="-0.31842">
        <ele>76</ele>
        <time>2012-07-29T15:13:12Z</time>
      </trkpt>
      <trkpt lat="44.80388" lon="-0.31841">
        <ele>75</ele>
        <time>2012-07-29T15:13:16Z</time>
      </trkpt>
      <trkpt lat="44.80397" lon="-0.3184">
        <ele>75</ele>
        <time>2012-07-29T15:13:19Z</time>
      </trkpt>
      <trkpt lat="44.80408" lon="-0.31837">
        <ele>74</ele>
        <time>2012-07-29T15:13:22Z</time>
      </trkpt>
      <trkpt lat="44.80419" lon="-0.31835">
        <ele>74</ele>
        <time>2012-07-29T15:13:25Z</time>
      </trkpt>
      <trkpt lat="44.80429" lon="-0.31834">
        <ele>73</ele>
        <time>2012-07-29T15:13:28Z</time>
      </trkpt>
      <trkpt lat="44.80442" lon="-0.31831">
        <ele>73</ele>
        <time>2012-07-29T15:13:31Z</time>
      </trkpt>
      <trkpt lat="44.80454" lon="-0.31828">
        <ele>72</ele>
        <time>2012-07-29T15:13:34Z</time>
      </trkpt>
      <trkpt lat="44.80468" lon="-0.31825">
        <ele>72</ele>
        <time>2012-07-29T15:13:37Z</time>
      </trkpt>
      <trkpt lat="44.80479" lon="-0.31821">
        <ele>71</ele>
        <time>2012-07-29T15:13:40Z</time>
      </trkpt>
      <trkpt lat="44.80488" lon="-0.31817">
        <ele>71</ele>
        <time>2012-07-29T15:13:45Z</time>
      </trkpt>
      <trkpt lat="44.80495" lon="-0.31828">
        <ele>71</ele>
        <time>2012-07-29T15:13:52Z</time>
      </trkpt>
      <trkpt lat="44.80498" lon="-0.31844">
        <ele>71</ele>
        <time>2012-07-29T15:13:56Z</time>
      </trkpt>
      <trkpt lat="44.805" lon="-0.31858">
        <ele>71</ele>
        <time>2012-07-29T15:14:00Z</time>
      </trkpt>
      <trkpt lat="44.80503" lon="-0.31874">
        <ele>71</ele>
        <time>2012-07-29T15:14:04Z</time>
      </trkpt>
      <trkpt lat="44.80505" lon="-0.31889">
        <ele>71</ele>
        <time>2012-07-29T15:14:08Z</time>
      </trkpt>
      <trkpt lat="44.80507" lon="-0.31906">
        <ele>71</ele>
        <time>2012-07-29T15:14:12Z</time>
      </trkpt>
      <trkpt lat="44.80511" lon="-0.31921">
        <ele>71</ele>
        <time>2012-07-29T15:14:16Z</time>
      </trkpt>
      <trkpt lat="44.80512" lon="-0.31937">
        <ele>71</ele>
        <time>2012-07-29T15:14:20Z</time>
      </trkpt>
      <trkpt lat="44.80513" lon="-0.31952">
        <ele>72</ele>
        <time>2012-07-29T15:14:23Z</time>
      </trkpt>
      <trkpt lat="44.80514" lon="-0.31969">
        <ele>72</ele>
        <time>2012-07-29T15:14:26Z</time>
      </trkpt>
      <trkpt lat="44.80515" lon="-0.31985">
        <ele>72</ele>
        <time>2012-07-29T15:14:29Z</time>
      </trkpt>
      <trkpt lat="44.80518" lon="-0.32003">
        <ele>72</ele>
        <time>2012-07-29T15:14:32Z</time>
      </trkpt>
      <trkpt lat="44.80521" lon="-0.32019">
        <ele>72</ele>
        <time>2012-07-29T15:14:35Z</time>
      </trkpt>
      <trkpt lat="44.80526" lon="-0.32031">
        <ele>73</ele>
        <time>2012-07-29T15:14:38Z</time>
      </trkpt>
      <trkpt lat="44.80532" lon="-0.32044">
        <ele>73</ele>
        <time>2012-07-29T15:14:43Z</time>
      </trkpt>
      <trkpt lat="44.8053" lon="-0.32057">
        <ele>73</ele>
        <time>2012-07-29T15:14:49Z</time>
      </trkpt>
      <trkpt lat="44.80526" lon="-0.32069">
        <ele>74</ele>
        <time>2012-07-29T15:14:54Z</time>
      </trkpt>
      <trkpt lat="44.8053" lon="-0.32082">
        <ele>74</ele>
        <time>2012-07-29T15:14:57Z</time>
      </trkpt>
      <trkpt lat="44.80536" lon="-0.32099">
        <ele>75</ele>
        <time>2012-07-29T15:15:01Z</time>
      </trkpt>
      <trkpt lat="44.80541" lon="-0.32111">
        <ele>75</ele>
        <time>2012-07-29T15:15:04Z</time>
      </trkpt>
      <trkpt lat="44.80547" lon="-0.32121">
        <ele>76</ele>
        <time>2012-07-29T15:15:07Z</time>
      </trkpt>
      <trkpt lat="44.80552" lon="-0.32133">
        <ele>76</ele>
        <time>2012-07-29T15:15:10Z</time>
      </trkpt>
      <trkpt lat="44.80557" lon="-0.32146">
        <ele>76</ele>
        <time>2012-07-29T15:15:14Z</time>
      </trkpt>
      <trkpt lat="44.80565" lon="-0.32158">
        <ele>76</ele>
        <time>2012-07-29T15:15:19Z</time>
      </trkpt>
      <trkpt lat="44.80575" lon="-0.32162">
        <ele>75</ele>
        <time>2012-07-29T15:15:22Z</time>
      </trkpt>
      <trkpt lat="44.80586" lon="-0.32163">
        <ele>74</ele>
        <time>2012-07-29T15:15:25Z</time>
      </trkpt>
      <trkpt lat="44.80598" lon="-0.3216">
        <ele>74</ele>
        <time>2012-07-29T15:15:28Z</time>
      </trkpt>
      <trkpt lat="44.80607" lon="-0.32156">
        <ele>74</ele>
        <time>2012-07-29T15:15:30Z</time>
      </trkpt>
      <trkpt lat="44.80616" lon="-0.32152">
        <ele>73</ele>
        <time>2012-07-29T15:15:32Z</time>
      </trkpt>
      <trkpt lat="44.80626" lon="-0.32147">
        <ele>73</ele>
        <time>2012-07-29T15:15:34Z</time>
      </trkpt>
      <trkpt lat="44.80635" lon="-0.32142">
        <ele>73</ele>
        <time>2012-07-29T15:15:36Z</time>
      </trkpt>
      <trkpt lat="44.80644" lon="-0.32135">
        <ele>72</ele>
        <time>2012-07-29T15:15:38Z</time>
      </trkpt>
      <trkpt lat="44.80655" lon="-0.32127">
        <ele>72</ele>
        <time>2012-07-29T15:15:40Z</time>
      </trkpt>
      <trkpt lat="44.80666" lon="-0.32119">
        <ele>72</ele>
        <time>2012-07-29T15:15:42Z</time>
      </trkpt>
      <trkpt lat="44.80678" lon="-0.3211">
        <ele>72</ele>
        <time>2012-07-29T15:15:44Z</time>
      </trkpt>
      <trkpt lat="44.8069" lon="-0.32103">
        <ele>72</ele>
        <time>2012-07-29T15:15:46Z</time>
      </trkpt>
      <trkpt lat="44.80702" lon="-0.32098">
        <ele>72</ele>
        <time>2012-07-29T15:15:48Z</time>
      </trkpt>
      <trkpt lat="44.80714" lon="-0.32095">
        <ele>72</ele>
        <time>2012-07-29T15:15:50Z</time>
      </trkpt>
      <trkpt lat="44.80727" lon="-0.32094">
        <ele>72</ele>
        <time>2012-07-29T15:15:52Z</time>
      </trkpt>
      <trkpt lat="44.80738" lon="-0.32095">
        <ele>73</ele>
        <time>2012-07-29T15:15:54Z</time>
      </trkpt>
      <trkpt lat="44.8075" lon="-0.32098">
        <ele>73</ele>
        <time>2012-07-29T15:15:56Z</time>
      </trkpt>
      <trkpt lat="44.8076" lon="-0.321">
        <ele>74</ele>
        <time>2012-07-29T15:15:58Z</time>
      </trkpt>
      <trkpt lat="44.80773" lon="-0.32106">
        <ele>74</ele>
        <time>2012-07-29T15:16:01Z</time>
      </trkpt>
      <trkpt lat="44.80782" lon="-0.3211">
        <ele>75</ele>
        <time>2012-07-29T15:16:03Z</time>
      </trkpt>
      <trkpt lat="44.80792" lon="-0.32116">
        <ele>75</ele>
        <time>2012-07-29T15:16:05Z</time>
      </trkpt>
      <trkpt lat="44.80806" lon="-0.32121">
        <ele>75</ele>
        <time>2012-07-29T15:16:08Z</time>
      </trkpt>
      <trkpt lat="44.80815" lon="-0.32125">
        <ele>75</ele>
        <time>2012-07-29T15:16:10Z</time>
      </trkpt>
      <trkpt lat="44.80824" lon="-0.3213">
        <ele>75</ele>
        <time>2012-07-29T15:16:12Z</time>
      </trkpt>
      <trkpt lat="44.80836" lon="-0.32137">
        <ele>75</ele>
        <time>2012-07-29T15:16:15Z</time>
      </trkpt>
      <trkpt lat="44.80847" lon="-0.32149">
        <ele>75</ele>
        <time>2012-07-29T15:16:18Z</time>
      </trkpt>
      <trkpt lat="44.80855" lon="-0.32161">
        <ele>75</ele>
        <time>2012-07-29T15:16:21Z</time>
      </trkpt>
      <trkpt lat="44.8086" lon="-0.32174">
        <ele>75</ele>
        <time>2012-07-29T15:16:24Z</time>
      </trkpt>
      <trkpt lat="44.8087" lon="-0.32186">
        <ele>75</ele>
        <time>2012-07-29T15:16:28Z</time>
      </trkpt>
      <trkpt lat="44.80882" lon="-0.32186">
        <ele>74</ele>
        <time>2012-07-29T15:16:31Z</time>
      </trkpt>
      <trkpt lat="44.80894" lon="-0.32182">
        <ele>74</ele>
        <time>2012-07-29T15:16:34Z</time>
      </trkpt>
      <trkpt lat="44.80905" lon="-0.32177">
        <ele>74</ele>
        <time>2012-07-29T15:16:37Z</time>
      </trkpt>
      <trkpt lat="44.80913" lon="-0.32171">
        <ele>74</ele>
        <time>2012-07-29T15:16:39Z</time>
      </trkpt>
      <trkpt lat="44.80922" lon="-0.32163">
        <ele>74</ele>
        <time>2012-07-29T15:16:41Z</time>
      </trkpt>
      <trkpt lat="44.80929" lon="-0.32155">
        <ele>74</ele>
        <time>2012-07-29T15:16:43Z</time>
      </trkpt>
      <trkpt lat="44.8094" lon="-0.32143">
        <ele>74</ele>
        <time>2012-07-29T15:16:46Z</time>
      </trkpt>
      <trkpt lat="44.80947" lon="-0.32132">
        <ele>74</ele>
        <time>2012-07-29T15:16:48Z</time>
      </trkpt>
      <trkpt lat="44.80954" lon="-0.32121">
        <ele>74</ele>
        <time>2012-07-29T15:16:50Z</time>
      </trkpt>
      <trkpt lat="44.80961" lon="-0.32109">
        <ele>74</ele>
        <time>2012-07-29T15:16:52Z</time>
      </trkpt>
      <trkpt lat="44.80968" lon="-0.32097">
        <ele>74</ele>
        <time>2012-07-29T15:16:54Z</time>
      </trkpt>
      <trkpt lat="44.80975" lon="-0.32084">
        <ele>73</ele>
        <time>2012-07-29T15:16:56Z</time>
      </trkpt>
      <trkpt lat="44.80982" lon="-0.32073">
        <ele>73</ele>
        <time>2012-07-29T15:16:58Z</time>
      </trkpt>
      <trkpt lat="44.80989" lon="-0.32061">
        <ele>73</ele>
        <time>2012-07-29T15:17:00Z</time>
      </trkpt>
      <trkpt lat="44.80997" lon="-0.32049">
        <ele>73</ele>
        <time>2012-07-29T15:17:02Z</time>
      </trkpt>
      <trkpt lat="44.81004" lon="-0.32038">
        <ele>72</ele>
        <time>2012-07-29T15:17:04Z</time>
      </trkpt>
      <trkpt lat="44.81012" lon="-0.32027">
        <ele>72</ele>
        <time>2012-07-29T15:17:06Z</time>
      </trkpt>
      <trkpt lat="44.8102" lon="-0.32018">
        <ele>72</ele>
        <time>2012-07-29T15:17:08Z</time>
      </trkpt>
      <trkpt lat="44.81028" lon="-0.32007">
        <ele>72</ele>
        <time>2012-07-29T15:17:11Z</time>
      </trkpt>
      <trkpt lat="44.81044" lon="-0.32028">
        <ele>71</ele>
        <time>2012-07-29T15:17:20Z</time>
      </trkpt>
      <trkpt lat="44.81045" lon="-0.32043">
        <ele>71</ele>
        <time>2012-07-29T15:17:22Z</time>
      </trkpt>
      <trkpt lat="44.8105" lon="-0.32055">
        <ele>70</ele>
        <time>2012-07-29T15:17:25Z</time>
      </trkpt>
      <trkpt lat="44.81056" lon="-0.32072">
        <ele>70</ele>
        <time>2012-07-29T15:17:29Z</time>
      </trkpt>
      <trkpt lat="44.8106" lon="-0.32085">
        <ele>70</ele>
        <time>2012-07-29T15:17:32Z</time>
      </trkpt>
      <trkpt lat="44.8106" lon="-0.32102">
        <ele>69</ele>
        <time>2012-07-29T15:17:35Z</time>
      </trkpt>
      <trkpt lat="44.81061" lon="-0.32118">
        <ele>69</ele>
        <time>2012-07-29T15:17:38Z</time>
      </trkpt>
      <trkpt lat="44.81062" lon="-0.32136">
        <ele>69</ele>
        <time>2012-07-29T15:17:41Z</time>
      </trkpt>
      <trkpt lat="44.81059" lon="-0.32153">
        <ele>69</ele>
        <time>2012-07-29T15:17:44Z</time>
      </trkpt>
      <trkpt lat="44.81056" lon="-0.3217">
        <ele>69</ele>
        <time>2012-07-29T15:17:47Z</time>
      </trkpt>
      <trkpt lat="44.81055" lon="-0.32188">
        <ele>69</ele>
        <time>2012-07-29T15:17:50Z</time>
      </trkpt>
      <trkpt lat="44.81054" lon="-0.32201">
        <ele>69</ele>
        <time>2012-07-29T15:17:52Z</time>
      </trkpt>
      <trkpt lat="44.81054" lon="-0.32218">
        <ele>68</ele>
        <time>2012-07-29T15:17:55Z</time>
      </trkpt>
      <trkpt lat="44.81052" lon="-0.32232">
        <ele>68</ele>
        <time>2012-07-29T15:17:57Z</time>
      </trkpt>
      <trkpt lat="44.81049" lon="-0.32246">
        <ele>68</ele>
        <time>2012-07-29T15:17:59Z</time>
      </trkpt>
      <trkpt lat="44.81048" lon="-0.32259">
        <ele>68</ele>
        <time>2012-07-29T15:18:01Z</time>
      </trkpt>
      <trkpt lat="44.81047" lon="-0.32278">
        <ele>69</ele>
        <time>2012-07-29T15:18:04Z</time>
      </trkpt>
      <trkpt lat="44.81045" lon="-0.32293">
        <ele>69</ele>
        <time>2012-07-29T15:18:06Z</time>
      </trkpt>
      <trkpt lat="44.81044" lon="-0.32306">
        <ele>69</ele>
        <time>2012-07-29T15:18:08Z</time>
      </trkpt>
      <trkpt lat="44.81043" lon="-0.32321">
        <ele>69</ele>
        <time>2012-07-29T15:18:10Z</time>
      </trkpt>
      <trkpt lat="44.81045" lon="-0.32337">
        <ele>69</ele>
        <time>2012-07-29T15:18:13Z</time>
      </trkpt>
      <trkpt lat="44.8105" lon="-0.32349">
        <ele>69</ele>
        <time>2012-07-29T15:18:16Z</time>
      </trkpt>
      <trkpt lat="44.81055" lon="-0.32361">
        <ele>69</ele>
        <time>2012-07-29T15:18:19Z</time>
      </trkpt>
      <trkpt lat="44.81062" lon="-0.32374">
        <ele>69</ele>
        <time>2012-07-29T15:18:23Z</time>
      </trkpt>
      <trkpt lat="44.8107" lon="-0.32387">
        <ele>70</ele>
        <time>2012-07-29T15:18:27Z</time>
      </trkpt>
      <trkpt lat="44.81075" lon="-0.324">
        <ele>70</ele>
        <time>2012-07-29T15:18:32Z</time>
      </trkpt>
      <trkpt lat="44.81077" lon="-0.32414">
        <ele>71</ele>
        <time>2012-07-29T15:18:36Z</time>
      </trkpt>
      <trkpt lat="44.8108" lon="-0.32429">
        <ele>71</ele>
        <time>2012-07-29T15:18:41Z</time>
      </trkpt>
      <trkpt lat="44.81087" lon="-0.32439">
        <ele>72</ele>
        <time>2012-07-29T15:18:45Z</time>
      </trkpt>
      <trkpt lat="44.81094" lon="-0.32447">
        <ele>73</ele>
        <time>2012-07-29T15:18:49Z</time>
      </trkpt>
      <trkpt lat="44.81103" lon="-0.32458">
        <ele>74</ele>
        <time>2012-07-29T15:18:53Z</time>
      </trkpt>
      <trkpt lat="44.8111" lon="-0.32471">
        <ele>74</ele>
        <time>2012-07-29T15:18:58Z</time>
      </trkpt>
      <trkpt lat="44.81114" lon="-0.32483">
        <ele>75</ele>
        <time>2012-07-29T15:19:02Z</time>
      </trkpt>
      <trkpt lat="44.81121" lon="-0.32492">
        <ele>76</ele>
        <time>2012-07-29T15:19:07Z</time>
      </trkpt>
      <trkpt lat="44.81129" lon="-0.32502">
        <ele>77</ele>
        <time>2012-07-29T15:19:13Z</time>
      </trkpt>
      <trkpt lat="44.81135" lon="-0.32515">
        <ele>78</ele>
        <time>2012-07-29T15:19:19Z</time>
      </trkpt>
      <trkpt lat="44.81142" lon="-0.32526">
        <ele>79</ele>
        <time>2012-07-29T15:19:24Z</time>
      </trkpt>
      <trkpt lat="44.81148" lon="-0.32539">
        <ele>80</ele>
        <time>2012-07-29T15:19:30Z</time>
      </trkpt>
      <trkpt lat="44.81155" lon="-0.3255">
        <ele>80</ele>
        <time>2012-07-29T15:19:36Z</time>
      </trkpt>
      <trkpt lat="44.81158" lon="-0.32563">
        <ele>81</ele>
        <time>2012-07-29T15:19:42Z</time>
      </trkpt>
      <trkpt lat="44.81158" lon="-0.32577">
        <ele>83</ele>
        <time>2012-07-29T15:19:47Z</time>
      </trkpt>
      <trkpt lat="44.8115" lon="-0.32586">
        <ele>84</ele>
        <time>2012-07-29T15:19:54Z</time>
      </trkpt>
      <trkpt lat="44.81142" lon="-0.32594">
        <ele>85</ele>
        <time>2012-07-29T15:19:58Z</time>
      </trkpt>
      <trkpt lat="44.81133" lon="-0.32599">
        <ele>85</ele>
        <time>2012-07-29T15:20:03Z</time>
      </trkpt>
      <trkpt lat="44.81121" lon="-0.32607">
        <ele>86</ele>
        <time>2012-07-29T15:20:08Z</time>
      </trkpt>
      <trkpt lat="44.81111" lon="-0.32612">
        <ele>87</ele>
        <time>2012-07-29T15:20:12Z</time>
      </trkpt>
      <trkpt lat="44.811" lon="-0.32616">
        <ele>87</ele>
        <time>2012-07-29T15:20:17Z</time>
      </trkpt>
      <trkpt lat="44.81091" lon="-0.32622">
        <ele>88</ele>
        <time>2012-07-29T15:20:21Z</time>
      </trkpt>
      <trkpt lat="44.8108" lon="-0.32628">
        <ele>88</ele>
        <time>2012-07-29T15:20:26Z</time>
      </trkpt>
      <trkpt lat="44.81072" lon="-0.32634">
        <ele>88</ele>
        <time>2012-07-29T15:20:36Z</time>
      </trkpt>
      <trkpt lat="44.81073" lon="-0.32648">
        <ele>89</ele>
        <time>2012-07-29T15:21:30Z</time>
      </trkpt>
      <trkpt lat="44.81074" lon="-0.32662">
        <ele>90</ele>
        <time>2012-07-29T15:21:40Z</time>
      </trkpt>
      <trkpt lat="44.81074" lon="-0.32675">
        <ele>91</ele>
        <time>2012-07-29T15:21:48Z</time>
      </trkpt>
      <trkpt lat="44.81077" lon="-0.32689">
        <ele>92</ele>
        <time>2012-07-29T15:21:56Z</time>
      </trkpt>
      <trkpt lat="44.81082" lon="-0.32701">
        <ele>93</ele>
        <time>2012-07-29T15:22:01Z</time>
      </trkpt>
      <trkpt lat="44.81084" lon="-0.32716">
        <ele>94</ele>
        <time>2012-07-29T15:22:13Z</time>
      </trkpt>
      <trkpt lat="44.81086" lon="-0.32729">
        <ele>94</ele>
        <time>2012-07-29T15:22:18Z</time>
      </trkpt>
      <trkpt lat="44.81083" lon="-0.32746">
        <ele>95</ele>
        <time>2012-07-29T15:22:23Z</time>
      </trkpt>
      <trkpt lat="44.8108" lon="-0.32762">
        <ele>96</ele>
        <time>2012-07-29T15:22:28Z</time>
      </trkpt>
      <trkpt lat="44.81083" lon="-0.32775">
        <ele>96</ele>
        <time>2012-07-29T15:22:33Z</time>
      </trkpt>
      <trkpt lat="44.81093" lon="-0.32778">
        <ele>97</ele>
        <time>2012-07-29T15:22:39Z</time>
      </trkpt>
      <trkpt lat="44.81103" lon="-0.32775">
        <ele>97</ele>
        <time>2012-07-29T15:22:43Z</time>
      </trkpt>
      <trkpt lat="44.81116" lon="-0.32773">
        <ele>97</ele>
        <time>2012-07-29T15:22:47Z</time>
      </trkpt>
      <trkpt lat="44.81125" lon="-0.32772">
        <ele>97</ele>
        <time>2012-07-29T15:22:51Z</time>
      </trkpt>
      <trkpt lat="44.81137" lon="-0.3277">
        <ele>97</ele>
        <time>2012-07-29T15:22:55Z</time>
      </trkpt>
      <trkpt lat="44.81148" lon="-0.32768">
        <ele>97</ele>
        <time>2012-07-29T15:23:00Z</time>
      </trkpt>
      <trkpt lat="44.81156" lon="-0.32762">
        <ele>97</ele>
        <time>2012-07-29T15:23:05Z</time>
      </trkpt>
      <trkpt lat="44.81158" lon="-0.32747">
        <ele>97</ele>
        <time>2012-07-29T15:23:09Z</time>
      </trkpt>
      <trkpt lat="44.81162" lon="-0.32731">
        <ele>96</ele>
        <time>2012-07-29T15:23:13Z</time>
      </trkpt>
      <trkpt lat="44.81163" lon="-0.32715">
        <ele>94</ele>
        <time>2012-07-29T15:23:17Z</time>
      </trkpt>
      <trkpt lat="44.81166" lon="-0.327">
        <ele>93</ele>
        <time>2012-07-29T15:23:20Z</time>
      </trkpt>
      <trkpt lat="44.81172" lon="-0.32689">
        <ele>92</ele>
        <time>2012-07-29T15:23:23Z</time>
      </trkpt>
      <trkpt lat="44.81185" lon="-0.32689">
        <ele>92</ele>
        <time>2012-07-29T15:23:26Z</time>
      </trkpt>
      <trkpt lat="44.81198" lon="-0.32692">
        <ele>91</ele>
        <time>2012-07-29T15:23:29Z</time>
      </trkpt>
      <trkpt lat="44.81208" lon="-0.32695">
        <ele>92</ele>
        <time>2012-07-29T15:23:31Z</time>
      </trkpt>
      <trkpt lat="44.8122" lon="-0.32698">
        <ele>92</ele>
        <time>2012-07-29T15:23:34Z</time>
      </trkpt>
      <trkpt lat="44.81233" lon="-0.32701">
        <ele>92</ele>
        <time>2012-07-29T15:23:37Z</time>
      </trkpt>
      <trkpt lat="44.81246" lon="-0.32703">
        <ele>93</ele>
        <time>2012-07-29T15:23:40Z</time>
      </trkpt>
      <trkpt lat="44.81258" lon="-0.32707">
        <ele>93</ele>
        <time>2012-07-29T15:23:43Z</time>
      </trkpt>
      <trkpt lat="44.8127" lon="-0.32709">
        <ele>94</ele>
        <time>2012-07-29T15:23:46Z</time>
      </trkpt>
      <trkpt lat="44.81281" lon="-0.32711">
        <ele>94</ele>
        <time>2012-07-29T15:23:49Z</time>
      </trkpt>
      <trkpt lat="44.81291" lon="-0.32713">
        <ele>94</ele>
        <time>2012-07-29T15:23:52Z</time>
      </trkpt>
      <trkpt lat="44.81302" lon="-0.32715">
        <ele>95</ele>
        <time>2012-07-29T15:23:55Z</time>
      </trkpt>
      <trkpt lat="44.81312" lon="-0.32718">
        <ele>95</ele>
        <time>2012-07-29T15:23:58Z</time>
      </trkpt>
      <trkpt lat="44.81321" lon="-0.32718">
        <ele>96</ele>
        <time>2012-07-29T15:24:01Z</time>
      </trkpt>
      <trkpt lat="44.81333" lon="-0.32721">
        <ele>96</ele>
        <time>2012-07-29T15:24:05Z</time>
      </trkpt>
      <trkpt lat="44.81344" lon="-0.32722">
        <ele>96</ele>
        <time>2012-07-29T15:24:09Z</time>
      </trkpt>
      <trkpt lat="44.81353" lon="-0.32727">
        <ele>96</ele>
        <time>2012-07-29T15:24:13Z</time>
      </trkpt>
      <trkpt lat="44.81357" lon="-0.32741">
        <ele>96</ele>
        <time>2012-07-29T15:24:17Z</time>
      </trkpt>
      <trkpt lat="44.81354" lon="-0.32754">
        <ele>97</ele>
        <time>2012-07-29T15:24:21Z</time>
      </trkpt>
      <trkpt lat="44.81351" lon="-0.32769">
        <ele>97</ele>
        <time>2012-07-29T15:24:26Z</time>
      </trkpt>
      <trkpt lat="44.81348" lon="-0.32784">
        <ele>98</ele>
        <time>2012-07-29T15:24:31Z</time>
      </trkpt>
      <trkpt lat="44.81346" lon="-0.32798">
        <ele>98</ele>
        <time>2012-07-29T15:24:36Z</time>
      </trkpt>
      <trkpt lat="44.81351" lon="-0.3281">
        <ele>98</ele>
        <time>2012-07-29T15:24:42Z</time>
      </trkpt>
      <trkpt lat="44.8136" lon="-0.32815">
        <ele>98</ele>
        <time>2012-07-29T15:24:49Z</time>
      </trkpt>
      <trkpt lat="44.81371" lon="-0.32819">
        <ele>98</ele>
        <time>2012-07-29T15:24:57Z</time>
      </trkpt>
      <trkpt lat="44.81382" lon="-0.32823">
        <ele>98</ele>
        <time>2012-07-29T15:25:03Z</time>
      </trkpt>
      <trkpt lat="44.81392" lon="-0.32826">
        <ele>98</ele>
        <time>2012-07-29T15:25:08Z</time>
      </trkpt>
      <trkpt lat="44.81403" lon="-0.32828">
        <ele>98</ele>
        <time>2012-07-29T15:25:14Z</time>
      </trkpt>
      <trkpt lat="44.81412" lon="-0.32831">
        <ele>97</ele>
        <time>2012-07-29T15:25:21Z</time>
      </trkpt>
      <trkpt lat="44.81424" lon="-0.32833">
        <ele>97</ele>
        <time>2012-07-29T15:26:07Z</time>
      </trkpt>
      <trkpt lat="44.81434" lon="-0.32829">
        <ele>97</ele>
        <time>2012-07-29T15:26:11Z</time>
      </trkpt>
      <trkpt lat="44.81438" lon="-0.32816">
        <ele>96</ele>
        <time>2012-07-29T15:26:15Z</time>
      </trkpt>
      <trkpt lat="44.81448" lon="-0.32816">
        <ele>96</ele>
        <time>2012-07-29T15:26:19Z</time>
      </trkpt>
      <trkpt lat="44.81459" lon="-0.32817">
        <ele>96</ele>
        <time>2012-07-29T15:27:05Z</time>
      </trkpt>
      <trkpt lat="44.81469" lon="-0.32819">
        <ele>96</ele>
        <time>2012-07-29T15:27:08Z</time>
      </trkpt>
      <trkpt lat="44.81478" lon="-0.32821">
        <ele>96</ele>
        <time>2012-07-29T15:27:12Z</time>
      </trkpt>
      <trkpt lat="44.81489" lon="-0.32823">
        <ele>96</ele>
        <time>2012-07-29T15:27:16Z</time>
      </trkpt>
      <trkpt lat="44.81501" lon="-0.32823">
        <ele>96</ele>
        <time>2012-07-29T15:27:20Z</time>
      </trkpt>
      <trkpt lat="44.81513" lon="-0.32825">
        <ele>96</ele>
        <time>2012-07-29T15:27:24Z</time>
      </trkpt>
      <trkpt lat="44.81522" lon="-0.32826">
        <ele>95</ele>
        <time>2012-07-29T15:27:27Z</time>
      </trkpt>
      <trkpt lat="44.81532" lon="-0.32829">
        <ele>94</ele>
        <time>2012-07-29T15:27:30Z</time>
      </trkpt>
      <trkpt lat="44.81535" lon="-0.32845">
        <ele>95</ele>
        <time>2012-07-29T15:27:35Z</time>
      </trkpt>
      <trkpt lat="44.81532" lon="-0.3286">
        <ele>95</ele>
        <time>2012-07-29T15:27:38Z</time>
      </trkpt>
      <trkpt lat="44.81529" lon="-0.32877">
        <ele>96</ele>
        <time>2012-07-29T15:27:41Z</time>
      </trkpt>
      <trkpt lat="44.81525" lon="-0.32894">
        <ele>97</ele>
        <time>2012-07-29T15:27:44Z</time>
      </trkpt>
      <trkpt lat="44.81522" lon="-0.32909">
        <ele>97</ele>
        <time>2012-07-29T15:27:47Z</time>
      </trkpt>
      <trkpt lat="44.8152" lon="-0.32923">
        <ele>97</ele>
        <time>2012-07-29T15:27:50Z</time>
      </trkpt>
      <trkpt lat="44.81518" lon="-0.32937">
        <ele>98</ele>
        <time>2012-07-29T15:27:53Z</time>
      </trkpt>
      <trkpt lat="44.81516" lon="-0.32952">
        <ele>98</ele>
        <time>2012-07-29T15:27:58Z</time>
      </trkpt>
      <trkpt lat="44.81513" lon="-0.32965">
        <ele>98</ele>
        <time>2012-07-29T15:28:03Z</time>
      </trkpt>
      <trkpt lat="44.81509" lon="-0.32976">
        <ele>98</ele>
        <time>2012-07-29T15:28:47Z</time>
      </trkpt>
      <trkpt lat="44.81499" lon="-0.32983">
        <ele>98</ele>
        <time>2012-07-29T15:28:54Z</time>
      </trkpt>
      <trkpt lat="44.81489" lon="-0.32978">
        <ele>99</ele>
        <time>2012-07-29T15:28:58Z</time>
      </trkpt>
      <trkpt lat="44.81481" lon="-0.32989">
        <ele>99</ele>
        <time>2012-07-29T15:29:03Z</time>
      </trkpt>
      <trkpt lat="44.81478" lon="-0.33004">
        <ele>99</ele>
        <time>2012-07-29T15:29:06Z</time>
      </trkpt>
      <trkpt lat="44.81477" lon="-0.33019">
        <ele>99</ele>
        <time>2012-07-29T15:29:09Z</time>
      </trkpt>
      <trkpt lat="44.81474" lon="-0.33036">
        <ele>98</ele>
        <time>2012-07-29T15:29:12Z</time>
      </trkpt>
      <trkpt lat="44.81471" lon="-0.33056">
        <ele>98</ele>
        <time>2012-07-29T15:29:15Z</time>
      </trkpt>
      <trkpt lat="44.81469" lon="-0.3307">
        <ele>97</ele>
        <time>2012-07-29T15:29:17Z</time>
      </trkpt>
      <trkpt lat="44.81467" lon="-0.33085">
        <ele>97</ele>
        <time>2012-07-29T15:29:19Z</time>
      </trkpt>
      <trkpt lat="44.81465" lon="-0.33099">
        <ele>96</ele>
        <time>2012-07-29T15:29:21Z</time>
      </trkpt>
      <trkpt lat="44.81463" lon="-0.33113">
        <ele>95</ele>
        <time>2012-07-29T15:29:23Z</time>
      </trkpt>
      <trkpt lat="44.81461" lon="-0.33126">
        <ele>95</ele>
        <time>2012-07-29T15:29:25Z</time>
      </trkpt>
      <trkpt lat="44.81458" lon="-0.33142">
        <ele>94</ele>
        <time>2012-07-29T15:29:28Z</time>
      </trkpt>
      <trkpt lat="44.81456" lon="-0.33159">
        <ele>93</ele>
        <time>2012-07-29T15:29:32Z</time>
      </trkpt>
      <trkpt lat="44.81452" lon="-0.33174">
        <ele>92</ele>
        <time>2012-07-29T15:29:35Z</time>
      </trkpt>
      <trkpt lat="44.81442" lon="-0.33187">
        <ele>90</ele>
        <time>2012-07-29T15:29:38Z</time>
      </trkpt>
      <trkpt lat="44.81433" lon="-0.33194">
        <ele>88</ele>
        <time>2012-07-29T15:29:40Z</time>
      </trkpt>
      <trkpt lat="44.81423" lon="-0.33205">
        <ele>86</ele>
        <time>2012-07-29T15:29:43Z</time>
      </trkpt>
      <trkpt lat="44.81419" lon="-0.3322">
        <ele>85</ele>
        <time>2012-07-29T15:29:46Z</time>
      </trkpt>
      <trkpt lat="44.81419" lon="-0.33238">
        <ele>83</ele>
        <time>2012-07-29T15:29:49Z</time>
      </trkpt>
      <trkpt lat="44.81421" lon="-0.33252">
        <ele>83</ele>
        <time>2012-07-29T15:29:52Z</time>
      </trkpt>
      <trkpt lat="44.81426" lon="-0.33265">
        <ele>82</ele>
        <time>2012-07-29T15:29:55Z</time>
      </trkpt>
      <trkpt lat="44.8143" lon="-0.33278">
        <ele>82</ele>
        <time>2012-07-29T15:29:58Z</time>
      </trkpt>
      <trkpt lat="44.81433" lon="-0.33296">
        <ele>81</ele>
        <time>2012-07-29T15:30:01Z</time>
      </trkpt>
      <trkpt lat="44.81434" lon="-0.3331">
        <ele>80</ele>
        <time>2012-07-29T15:30:03Z</time>
      </trkpt>
      <trkpt lat="44.81435" lon="-0.33323">
        <ele>78</ele>
        <time>2012-07-29T15:30:05Z</time>
      </trkpt>
      <trkpt lat="44.81436" lon="-0.33337">
        <ele>77</ele>
        <time>2012-07-29T15:30:07Z</time>
      </trkpt>
      <trkpt lat="44.8144" lon="-0.33353">
        <ele>76</ele>
        <time>2012-07-29T15:30:10Z</time>
      </trkpt>
      <trkpt lat="44.81451" lon="-0.33356">
        <ele>76</ele>
        <time>2012-07-29T15:30:14Z</time>
      </trkpt>
      <trkpt lat="44.81461" lon="-0.33357">
        <ele>76</ele>
        <time>2012-07-29T15:30:17Z</time>
      </trkpt>
      <trkpt lat="44.81472" lon="-0.33359">
        <ele>75</ele>
        <time>2012-07-29T15:30:20Z</time>
      </trkpt>
      <trkpt lat="44.81485" lon="-0.3336">
        <ele>75</ele>
        <time>2012-07-29T15:30:23Z</time>
      </trkpt>
      <trkpt lat="44.81497" lon="-0.33362">
        <ele>74</ele>
        <time>2012-07-29T15:30:26Z</time>
      </trkpt>
      <trkpt lat="44.81507" lon="-0.33363">
        <ele>74</ele>
        <time>2012-07-29T15:30:28Z</time>
      </trkpt>
      <trkpt lat="44.81517" lon="-0.33363">
        <ele>73</ele>
        <time>2012-07-29T15:30:30Z</time>
      </trkpt>
      <trkpt lat="44.81527" lon="-0.33364">
        <ele>73</ele>
        <time>2012-07-29T15:30:32Z</time>
      </trkpt>
      <trkpt lat="44.81538" lon="-0.33365">
        <ele>72</ele>
        <time>2012-07-29T15:30:34Z</time>
      </trkpt>
      <trkpt lat="44.81547" lon="-0.33366">
        <ele>71</ele>
        <time>2012-07-29T15:30:36Z</time>
      </trkpt>
      <trkpt lat="44.81555" lon="-0.33358">
        <ele>71</ele>
        <time>2012-07-29T15:30:41Z</time>
      </trkpt>
      <trkpt lat="44.8155" lon="-0.33346">
        <ele>72</ele>
        <time>2012-07-29T15:30:47Z</time>
      </trkpt>
      <trkpt lat="44.81545" lon="-0.33333">
        <ele>73</ele>
        <time>2012-07-29T15:30:53Z</time>
      </trkpt>
      <trkpt lat="44.81541" lon="-0.3332">
        <ele>74</ele>
        <time>2012-07-29T15:30:58Z</time>
      </trkpt>
      <trkpt lat="44.81537" lon="-0.33308">
        <ele>75</ele>
        <time>2012-07-29T15:31:05Z</time>
      </trkpt>
      <trkpt lat="44.81531" lon="-0.33295">
        <ele>77</ele>
        <time>2012-07-29T15:31:30Z</time>
      </trkpt>
      <trkpt lat="44.81529" lon="-0.33283">
        <ele>78</ele>
        <time>2012-07-29T15:31:37Z</time>
      </trkpt>
      <trkpt lat="44.81524" lon="-0.33271">
        <ele>80</ele>
        <time>2012-07-29T15:31:44Z</time>
      </trkpt>
      <trkpt lat="44.81521" lon="-0.33257">
        <ele>81</ele>
        <time>2012-07-29T15:31:52Z</time>
      </trkpt>
      <trkpt lat="44.8152" lon="-0.33244">
        <ele>83</ele>
        <time>2012-07-29T15:32:01Z</time>
      </trkpt>
      <trkpt lat="44.81517" lon="-0.33231">
        <ele>84</ele>
        <time>2012-07-29T15:32:08Z</time>
      </trkpt>
      <trkpt lat="44.81515" lon="-0.33218">
        <ele>86</ele>
        <time>2012-07-29T15:32:16Z</time>
      </trkpt>
      <trkpt lat="44.81514" lon="-0.33204">
        <ele>87</ele>
        <time>2012-07-29T15:32:25Z</time>
      </trkpt>
      <trkpt lat="44.81513" lon="-0.33189">
        <ele>88</ele>
        <time>2012-07-29T15:32:33Z</time>
      </trkpt>
      <trkpt lat="44.81512" lon="-0.33176">
        <ele>89</ele>
        <time>2012-07-29T15:32:42Z</time>
      </trkpt>
      <trkpt lat="44.81509" lon="-0.33163">
        <ele>90</ele>
        <time>2012-07-29T15:33:04Z</time>
      </trkpt>
      <trkpt lat="44.81501" lon="-0.33154">
        <ele>92</ele>
        <time>2012-07-29T15:33:15Z</time>
      </trkpt>
      <trkpt lat="44.81492" lon="-0.33153">
        <ele>92</ele>
        <time>2012-07-29T15:33:21Z</time>
      </trkpt>
      <trkpt lat="44.81482" lon="-0.33153">
        <ele>93</ele>
        <time>2012-07-29T15:33:27Z</time>
      </trkpt>
      <trkpt lat="44.81471" lon="-0.33151">
        <ele>93</ele>
        <time>2012-07-29T15:33:33Z</time>
      </trkpt>
      <trkpt lat="44.81461" lon="-0.33145">
        <ele>94</ele>
        <time>2012-07-29T15:33:39Z</time>
      </trkpt>
      <trkpt lat="44.81455" lon="-0.33133">
        <ele>94</ele>
        <time>2012-07-29T15:33:45Z</time>
      </trkpt>
      <trkpt lat="44.81459" lon="-0.33118">
        <ele>95</ele>
        <time>2012-07-29T15:33:51Z</time>
      </trkpt>
      <trkpt lat="44.81456" lon="-0.33105">
        <ele>96</ele>
        <time>2012-07-29T15:33:57Z</time>
      </trkpt>
      <trkpt lat="44.81447" lon="-0.33099">
        <ele>96</ele>
        <time>2012-07-29T15:34:01Z</time>
      </trkpt>
      <trkpt lat="44.81438" lon="-0.33095">
        <ele>95</ele>
        <time>2012-07-29T15:34:04Z</time>
      </trkpt>
      <trkpt lat="44.8143" lon="-0.33091">
        <ele>95</ele>
        <time>2012-07-29T15:34:07Z</time>
      </trkpt>
      <trkpt lat="44.81421" lon="-0.33087">
        <ele>95</ele>
        <time>2012-07-29T15:34:10Z</time>
      </trkpt>
      <trkpt lat="44.81412" lon="-0.33081">
        <ele>95</ele>
        <time>2012-07-29T15:34:13Z</time>
      </trkpt>
      <trkpt lat="44.81404" lon="-0.33073">
        <ele>95</ele>
        <time>2012-07-29T15:34:16Z</time>
      </trkpt>
      <trkpt lat="44.81396" lon="-0.33067">
        <ele>94</ele>
        <time>2012-07-29T15:34:19Z</time>
      </trkpt>
      <trkpt lat="44.81389" lon="-0.33058">
        <ele>94</ele>
        <time>2012-07-29T15:34:23Z</time>
      </trkpt>
      <trkpt lat="44.81379" lon="-0.33054">
        <ele>93</ele>
        <time>2012-07-29T15:34:30Z</time>
      </trkpt>
      <trkpt lat="44.81372" lon="-0.33068">
        <ele>91</ele>
        <time>2012-07-29T15:34:35Z</time>
      </trkpt>
      <trkpt lat="44.81368" lon="-0.33086">
        <ele>89</ele>
        <time>2012-07-29T15:34:39Z</time>
      </trkpt>
      <trkpt lat="44.81361" lon="-0.33103">
        <ele>86</ele>
        <time>2012-07-29T15:34:42Z</time>
      </trkpt>
      <trkpt lat="44.81357" lon="-0.33115">
        <ele>84</ele>
        <time>2012-07-29T15:34:44Z</time>
      </trkpt>
      <trkpt lat="44.81353" lon="-0.33132">
        <ele>82</ele>
        <time>2012-07-29T15:34:47Z</time>
      </trkpt>
      <trkpt lat="44.81349" lon="-0.33144">
        <ele>80</ele>
        <time>2012-07-29T15:34:50Z</time>
      </trkpt>
      <trkpt lat="44.81344" lon="-0.33161">
        <ele>77</ele>
        <time>2012-07-29T15:34:54Z</time>
      </trkpt>
      <trkpt lat="44.81341" lon="-0.33177">
        <ele>76</ele>
        <time>2012-07-29T15:34:58Z</time>
      </trkpt>
      <trkpt lat="44.81336" lon="-0.33191">
        <ele>74</ele>
        <time>2012-07-29T15:35:02Z</time>
      </trkpt>
      <trkpt lat="44.81332" lon="-0.33204">
        <ele>73</ele>
        <time>2012-07-29T15:35:04Z</time>
      </trkpt>
      <trkpt lat="44.81327" lon="-0.33218">
        <ele>72</ele>
        <time>2012-07-29T15:35:07Z</time>
      </trkpt>
      <trkpt lat="44.81325" lon="-0.33234">
        <ele>71</ele>
        <time>2012-07-29T15:35:10Z</time>
      </trkpt>
      <trkpt lat="44.81326" lon="-0.33249">
        <ele>71</ele>
        <time>2012-07-29T15:35:14Z</time>
      </trkpt>
      <trkpt lat="44.81325" lon="-0.33264">
        <ele>70</ele>
        <time>2012-07-29T15:35:17Z</time>
      </trkpt>
      <trkpt lat="44.81328" lon="-0.33277">
        <ele>70</ele>
        <time>2012-07-29T15:35:19Z</time>
      </trkpt>
      <trkpt lat="44.81329" lon="-0.33293">
        <ele>69</ele>
        <time>2012-07-29T15:35:21Z</time>
      </trkpt>
      <trkpt lat="44.81331" lon="-0.33306">
        <ele>68</ele>
        <time>2012-07-29T15:35:23Z</time>
      </trkpt>
      <trkpt lat="44.81334" lon="-0.33322">
        <ele>68</ele>
        <time>2012-07-29T15:35:27Z</time>
      </trkpt>
      <trkpt lat="44.81334" lon="-0.33337">
        <ele>67</ele>
        <time>2012-07-29T15:35:31Z</time>
      </trkpt>
      <trkpt lat="44.81334" lon="-0.33354">
        <ele>66</ele>
        <time>2012-07-29T15:35:35Z</time>
      </trkpt>
      <trkpt lat="44.81333" lon="-0.33368">
        <ele>65</ele>
        <time>2012-07-29T15:35:38Z</time>
      </trkpt>
      <trkpt lat="44.81333" lon="-0.33381">
        <ele>65</ele>
        <time>2012-07-29T15:35:42Z</time>
      </trkpt>
      <trkpt lat="44.81333" lon="-0.33397">
        <ele>64</ele>
        <time>2012-07-29T15:35:47Z</time>
      </trkpt>
      <trkpt lat="44.8133" lon="-0.3341">
        <ele>63</ele>
        <time>2012-07-29T15:35:52Z</time>
      </trkpt>
      <trkpt lat="44.81323" lon="-0.33424">
        <ele>62</ele>
        <time>2012-07-29T15:35:58Z</time>
      </trkpt>
      <trkpt lat="44.81317" lon="-0.33434">
        <ele>62</ele>
        <time>2012-07-29T15:36:02Z</time>
      </trkpt>
      <trkpt lat="44.81314" lon="-0.33447">
        <ele>61</ele>
        <time>2012-07-29T15:36:10Z</time>
      </trkpt>
      <trkpt lat="44.81314" lon="-0.3346">
        <ele>61</ele>
        <time>2012-07-29T15:36:21Z</time>
      </trkpt>
      <trkpt lat="44.81309" lon="-0.33472">
        <ele>60</ele>
        <time>2012-07-29T15:36:32Z</time>
      </trkpt>
      <trkpt lat="44.81302" lon="-0.33481">
        <ele>60</ele>
        <time>2012-07-29T15:36:39Z</time>
      </trkpt>
      <trkpt lat="44.81298" lon="-0.33495">
        <ele>60</ele>
        <time>2012-07-29T15:36:45Z</time>
      </trkpt>
      <trkpt lat="44.81295" lon="-0.33511">
        <ele>59</ele>
        <time>2012-07-29T15:36:49Z</time>
      </trkpt>
      <trkpt lat="44.81288" lon="-0.33531">
        <ele>59</ele>
        <time>2012-07-29T15:36:54Z</time>
      </trkpt>
      <trkpt lat="44.81283" lon="-0.33548">
        <ele>59</ele>
        <time>2012-07-29T15:36:56Z</time>
      </trkpt>
      <trkpt lat="44.81287" lon="-0.33563">
        <ele>59</ele>
        <time>2012-07-29T15:37:03Z</time>
      </trkpt>
      <trkpt lat="44.81277" lon="-0.33566">
        <ele>60</ele>
        <time>2012-07-29T15:37:27Z</time>
      </trkpt>
      <trkpt lat="44.81266" lon="-0.33569">
        <ele>60</ele>
        <time>2012-07-29T15:37:34Z</time>
      </trkpt>
      <trkpt lat="44.81256" lon="-0.33575">
        <ele>61</ele>
        <time>2012-07-29T15:37:40Z</time>
      </trkpt>
      <trkpt lat="44.81247" lon="-0.33578">
        <ele>61</ele>
        <time>2012-07-29T15:37:45Z</time>
      </trkpt>
      <trkpt lat="44.81244" lon="-0.33592">
        <ele>62</ele>
        <time>2012-07-29T15:37:52Z</time>
      </trkpt>
      <trkpt lat="44.8124" lon="-0.33605">
        <ele>62</ele>
        <time>2012-07-29T15:37:57Z</time>
      </trkpt>
      <trkpt lat="44.81238" lon="-0.33619">
        <ele>63</ele>
        <time>2012-07-29T15:38:03Z</time>
      </trkpt>
      <trkpt lat="44.81234" lon="-0.33633">
        <ele>63</ele>
        <time>2012-07-29T15:38:08Z</time>
      </trkpt>
      <trkpt lat="44.81231" lon="-0.33647">
        <ele>64</ele>
        <time>2012-07-29T15:38:13Z</time>
      </trkpt>
      <trkpt lat="44.8123" lon="-0.33662">
        <ele>65</ele>
        <time>2012-07-29T15:38:19Z</time>
      </trkpt>
      <trkpt lat="44.81227" lon="-0.33674">
        <ele>65</ele>
        <time>2012-07-29T15:38:30Z</time>
      </trkpt>
      <trkpt lat="44.81224" lon="-0.33687">
        <ele>66</ele>
        <time>2012-07-29T15:38:50Z</time>
      </trkpt>
      <trkpt lat="44.81222" lon="-0.337">
        <ele>67</ele>
        <time>2012-07-29T15:39:06Z</time>
      </trkpt>
      <trkpt lat="44.81217" lon="-0.33712">
        <ele>68</ele>
        <time>2012-07-29T15:39:11Z</time>
      </trkpt>
      <trkpt lat="44.81213" lon="-0.33725">
        <ele>69</ele>
        <time>2012-07-29T15:39:15Z</time>
      </trkpt>
      <trkpt lat="44.81213" lon="-0.3374">
        <ele>70</ele>
        <time>2012-07-29T15:39:20Z</time>
      </trkpt>
      <trkpt lat="44.81213" lon="-0.33756">
        <ele>71</ele>
        <time>2012-07-29T15:39:25Z</time>
      </trkpt>
      <trkpt lat="44.81212" lon="-0.3377">
        <ele>72</ele>
        <time>2012-07-29T15:39:29Z</time>
      </trkpt>
      <trkpt lat="44.81213" lon="-0.33785">
        <ele>74</ele>
        <time>2012-07-29T15:39:34Z</time>
      </trkpt>
      <trkpt lat="44.81213" lon="-0.33798">
        <ele>75</ele>
        <time>2012-07-29T15:39:38Z</time>
      </trkpt>
      <trkpt lat="44.81213" lon="-0.33812">
        <ele>77</ele>
        <time>2012-07-29T15:39:43Z</time>
      </trkpt>
      <trkpt lat="44.81213" lon="-0.33825">
        <ele>78</ele>
        <time>2012-07-29T15:39:49Z</time>
      </trkpt>
      <trkpt lat="44.81213" lon="-0.33839">
        <ele>79</ele>
        <time>2012-07-29T15:39:55Z</time>
      </trkpt>
      <trkpt lat="44.81213" lon="-0.33852">
        <ele>81</ele>
        <time>2012-07-29T15:40:01Z</time>
      </trkpt>
      <trkpt lat="44.81211" lon="-0.33866">
        <ele>82</ele>
        <time>2012-07-29T15:40:09Z</time>
      </trkpt>
      <trkpt lat="44.81208" lon="-0.33879">
        <ele>84</ele>
        <time>2012-07-29T15:40:17Z</time>
      </trkpt>
      <trkpt lat="44.81205" lon="-0.33893">
        <ele>85</ele>
        <time>2012-07-29T15:40:24Z</time>
      </trkpt>
      <trkpt lat="44.81203" lon="-0.33907">
        <ele>86</ele>
        <time>2012-07-29T15:40:32Z</time>
      </trkpt>
      <trkpt lat="44.812" lon="-0.33921">
        <ele>88</ele>
        <time>2012-07-29T15:40:39Z</time>
      </trkpt>
      <trkpt lat="44.81199" lon="-0.33935">
        <ele>89</ele>
        <time>2012-07-29T15:40:46Z</time>
      </trkpt>
      <trkpt lat="44.81196" lon="-0.33947">
        <ele>90</ele>
        <time>2012-07-29T15:40:53Z</time>
      </trkpt>
      <trkpt lat="44.81194" lon="-0.3396">
        <ele>91</ele>
        <time>2012-07-29T15:41:01Z</time>
      </trkpt>
      <trkpt lat="44.81192" lon="-0.33973">
        <ele>91</ele>
        <time>2012-07-29T15:41:08Z</time>
      </trkpt>
      <trkpt lat="44.8119" lon="-0.33988">
        <ele>92</ele>
        <time>2012-07-29T15:41:15Z</time>
      </trkpt>
      <trkpt lat="44.81188" lon="-0.34001">
        <ele>93</ele>
        <time>2012-07-29T15:41:21Z</time>
      </trkpt>
      <trkpt lat="44.81187" lon="-0.34016">
        <ele>93</ele>
        <time>2012-07-29T15:41:28Z</time>
      </trkpt>
      <trkpt lat="44.81185" lon="-0.34029">
        <ele>93</ele>
        <time>2012-07-29T15:41:34Z</time>
      </trkpt>
      <trkpt lat="44.81181" lon="-0.34041">
        <ele>93</ele>
        <time>2012-07-29T15:41:40Z</time>
      </trkpt>
      <trkpt lat="44.81172" lon="-0.34035">
        <ele>94</ele>
        <time>2012-07-29T15:41:48Z</time>
      </trkpt>
      <trkpt lat="44.81164" lon="-0.34027">
        <ele>94</ele>
        <time>2012-07-29T15:41:55Z</time>
      </trkpt>
      <trkpt lat="44.81156" lon="-0.34018">
        <ele>95</ele>
        <time>2012-07-29T15:42:02Z</time>
      </trkpt>
      <trkpt lat="44.81148" lon="-0.3401">
        <ele>95</ele>
        <time>2012-07-29T15:42:09Z</time>
      </trkpt>
      <trkpt lat="44.81139" lon="-0.34004">
        <ele>96</ele>
        <time>2012-07-29T15:42:15Z</time>
      </trkpt>
      <trkpt lat="44.8113" lon="-0.33998">
        <ele>96</ele>
        <time>2012-07-29T15:42:19Z</time>
      </trkpt>
      <trkpt lat="44.81121" lon="-0.3399">
        <ele>96</ele>
        <time>2012-07-29T15:42:24Z</time>
      </trkpt>
      <trkpt lat="44.81112" lon="-0.33983">
        <ele>95</ele>
        <time>2012-07-29T15:42:29Z</time>
      </trkpt>
      <trkpt lat="44.81103" lon="-0.33977">
        <ele>95</ele>
        <time>2012-07-29T15:42:36Z</time>
      </trkpt>
      <trkpt lat="44.81093" lon="-0.33973">
        <ele>95</ele>
        <time>2012-07-29T15:42:42Z</time>
      </trkpt>
      <trkpt lat="44.81084" lon="-0.33966">
        <ele>95</ele>
        <time>2012-07-29T15:43:34Z</time>
      </trkpt>
      <trkpt lat="44.81075" lon="-0.33959">
        <ele>95</ele>
        <time>2012-07-29T15:43:39Z</time>
      </trkpt>
      <trkpt lat="44.81065" lon="-0.33953">
        <ele>95</ele>
        <time>2012-07-29T15:43:43Z</time>
      </trkpt>
      <trkpt lat="44.81056" lon="-0.33947">
        <ele>95</ele>
        <time>2012-07-29T15:43:46Z</time>
      </trkpt>
      <trkpt lat="44.81047" lon="-0.33942">
        <ele>95</ele>
        <time>2012-07-29T15:43:49Z</time>
      </trkpt>
      <trkpt lat="44.81036" lon="-0.33938">
        <ele>95</ele>
        <time>2012-07-29T15:43:52Z</time>
      </trkpt>
      <trkpt lat="44.81025" lon="-0.33934">
        <ele>96</ele>
        <time>2012-07-29T15:43:55Z</time>
      </trkpt>
      <trkpt lat="44.81015" lon="-0.33932">
        <ele>96</ele>
        <time>2012-07-29T15:43:58Z</time>
      </trkpt>
      <trkpt lat="44.81004" lon="-0.3393">
        <ele>96</ele>
        <time>2012-07-29T15:44:01Z</time>
      </trkpt>
      <trkpt lat="44.80994" lon="-0.33928">
        <ele>96</ele>
        <time>2012-07-29T15:44:04Z</time>
      </trkpt>
      <trkpt lat="44.80984" lon="-0.33927">
        <ele>96</ele>
        <time>2012-07-29T15:44:07Z</time>
      </trkpt>
      <trkpt lat="44.80974" lon="-0.33925">
        <ele>96</ele>
        <time>2012-07-29T15:44:10Z</time>
      </trkpt>
      <trkpt lat="44.80964" lon="-0.33925">
        <ele>96</ele>
        <time>2012-07-29T15:44:13Z</time>
      </trkpt>
      <trkpt lat="44.80954" lon="-0.33925">
        <ele>96</ele>
        <time>2012-07-29T15:44:16Z</time>
      </trkpt>
      <trkpt lat="44.80944" lon="-0.33925">
        <ele>95</ele>
        <time>2012-07-29T15:44:20Z</time>
      </trkpt>
      <trkpt lat="44.80935" lon="-0.33929">
        <ele>95</ele>
        <time>2012-07-29T15:44:23Z</time>
      </trkpt>
      <trkpt lat="44.80922" lon="-0.33931">
        <ele>94</ele>
        <time>2012-07-29T15:44:26Z</time>
      </trkpt>
      <trkpt lat="44.8091" lon="-0.33931">
        <ele>94</ele>
        <time>2012-07-29T15:44:29Z</time>
      </trkpt>
      <trkpt lat="44.80897" lon="-0.33926">
        <ele>94</ele>
        <time>2012-07-29T15:44:32Z</time>
      </trkpt>
      <trkpt lat="44.80885" lon="-0.33918">
        <ele>94</ele>
        <time>2012-07-29T15:44:35Z</time>
      </trkpt>
      <trkpt lat="44.80874" lon="-0.33911">
        <ele>94</ele>
        <time>2012-07-29T15:44:38Z</time>
      </trkpt>
      <trkpt lat="44.80863" lon="-0.33907">
        <ele>94</ele>
        <time>2012-07-29T15:44:41Z</time>
      </trkpt>
      <trkpt lat="44.80852" lon="-0.33902">
        <ele>94</ele>
        <time>2012-07-29T15:44:44Z</time>
      </trkpt>
      <trkpt lat="44.80841" lon="-0.339">
        <ele>94</ele>
        <time>2012-07-29T15:44:47Z</time>
      </trkpt>
      <trkpt lat="44.8083" lon="-0.33899">
        <ele>94</ele>
        <time>2012-07-29T15:44:50Z</time>
      </trkpt>
      <trkpt lat="44.80821" lon="-0.33907">
        <ele>94</ele>
        <time>2012-07-29T15:44:53Z</time>
      </trkpt>
      <trkpt lat="44.80807" lon="-0.33933">
        <ele>92</ele>
        <time>2012-07-29T15:44:58Z</time>
      </trkpt>
      <trkpt lat="44.80799" lon="-0.33946">
        <ele>90</ele>
        <time>2012-07-29T15:45:00Z</time>
      </trkpt>
      <trkpt lat="44.80793" lon="-0.33957">
        <ele>89</ele>
        <time>2012-07-29T15:45:02Z</time>
      </trkpt>
      <trkpt lat="44.80785" lon="-0.33968">
        <ele>88</ele>
        <time>2012-07-29T15:45:04Z</time>
      </trkpt>
      <trkpt lat="44.80777" lon="-0.33979">
        <ele>87</ele>
        <time>2012-07-29T15:45:06Z</time>
      </trkpt>
      <trkpt lat="44.80771" lon="-0.33991">
        <ele>86</ele>
        <time>2012-07-29T15:45:08Z</time>
      </trkpt>
      <trkpt lat="44.80765" lon="-0.34004">
        <ele>85</ele>
        <time>2012-07-29T15:45:10Z</time>
      </trkpt>
      <trkpt lat="44.80761" lon="-0.34017">
        <ele>84</ele>
        <time>2012-07-29T15:45:12Z</time>
      </trkpt>
      <trkpt lat="44.80756" lon="-0.34031">
        <ele>82</ele>
        <time>2012-07-29T15:45:14Z</time>
      </trkpt>
      <trkpt lat="44.8075" lon="-0.34044">
        <ele>80</ele>
        <time>2012-07-29T15:45:16Z</time>
      </trkpt>
      <trkpt lat="44.80743" lon="-0.34055">
        <ele>79</ele>
        <time>2012-07-29T15:45:18Z</time>
      </trkpt>
      <trkpt lat="44.80734" lon="-0.34068">
        <ele>78</ele>
        <time>2012-07-29T15:45:20Z</time>
      </trkpt>
      <trkpt lat="44.80723" lon="-0.34081">
        <ele>76</ele>
        <time>2012-07-29T15:45:22Z</time>
      </trkpt>
      <trkpt lat="44.80713" lon="-0.34101">
        <ele>75</ele>
        <time>2012-07-29T15:45:24Z</time>
      </trkpt>
      <trkpt lat="44.80706" lon="-0.34118">
        <ele>73</ele>
        <time>2012-07-29T15:45:26Z</time>
      </trkpt>
      <trkpt lat="44.807" lon="-0.34134">
        <ele>72</ele>
        <time>2012-07-29T15:45:28Z</time>
      </trkpt>
      <trkpt lat="44.80695" lon="-0.34151">
        <ele>70</ele>
        <time>2012-07-29T15:45:30Z</time>
      </trkpt>
      <trkpt lat="44.8069" lon="-0.34169">
        <ele>69</ele>
        <time>2012-07-29T15:45:32Z</time>
      </trkpt>
      <trkpt lat="44.80685" lon="-0.34188">
        <ele>68</ele>
        <time>2012-07-29T15:45:34Z</time>
      </trkpt>
      <trkpt lat="44.80679" lon="-0.34206">
        <ele>67</ele>
        <time>2012-07-29T15:45:36Z</time>
      </trkpt>
      <trkpt lat="44.80672" lon="-0.34224">
        <ele>66</ele>
        <time>2012-07-29T15:45:38Z</time>
      </trkpt>
      <trkpt lat="44.80666" lon="-0.34241">
        <ele>66</ele>
        <time>2012-07-29T15:45:40Z</time>
      </trkpt>
      <trkpt lat="44.80659" lon="-0.34256">
        <ele>64</ele>
        <time>2012-07-29T15:45:42Z</time>
      </trkpt>
      <trkpt lat="44.80653" lon="-0.34272">
        <ele>63</ele>
        <time>2012-07-29T15:45:44Z</time>
      </trkpt>
      <trkpt lat="44.80649" lon="-0.34284">
        <ele>61</ele>
        <time>2012-07-29T15:45:46Z</time>
      </trkpt>
      <trkpt lat="44.80643" lon="-0.34297">
        <ele>60</ele>
        <time>2012-07-29T15:45:48Z</time>
      </trkpt>
      <trkpt lat="44.80635" lon="-0.34309">
        <ele>59</ele>
        <time>2012-07-29T15:45:50Z</time>
      </trkpt>
      <trkpt lat="44.80628" lon="-0.34318">
        <ele>58</ele>
        <time>2012-07-29T15:45:52Z</time>
      </trkpt>
      <trkpt lat="44.80617" lon="-0.34328">
        <ele>56</ele>
        <time>2012-07-29T15:45:55Z</time>
      </trkpt>
      <trkpt lat="44.80606" lon="-0.34333">
        <ele>54</ele>
        <time>2012-07-29T15:45:59Z</time>
      </trkpt>
      <trkpt lat="44.80599" lon="-0.34345">
        <ele>52</ele>
        <time>2012-07-29T15:46:02Z</time>
      </trkpt>
      <trkpt lat="44.80594" lon="-0.34359">
        <ele>50</ele>
        <time>2012-07-29T15:46:05Z</time>
      </trkpt>
      <trkpt lat="44.80587" lon="-0.34374">
        <ele>49</ele>
        <time>2012-07-29T15:46:08Z</time>
      </trkpt>
      <trkpt lat="44.80581" lon="-0.34391">
        <ele>47</ele>
        <time>2012-07-29T15:46:11Z</time>
      </trkpt>
      <trkpt lat="44.80575" lon="-0.34405">
        <ele>45</ele>
        <time>2012-07-29T15:46:13Z</time>
      </trkpt>
      <trkpt lat="44.80568" lon="-0.34416">
        <ele>44</ele>
        <time>2012-07-29T15:46:15Z</time>
      </trkpt>
      <trkpt lat="44.80558" lon="-0.3443">
        <ele>43</ele>
        <time>2012-07-29T15:46:17Z</time>
      </trkpt>
      <trkpt lat="44.80549" lon="-0.34442">
        <ele>42</ele>
        <time>2012-07-29T15:46:19Z</time>
      </trkpt>
      <trkpt lat="44.80541" lon="-0.34456">
        <ele>42</ele>
        <time>2012-07-29T15:46:21Z</time>
      </trkpt>
      <trkpt lat="44.80534" lon="-0.34471">
        <ele>41</ele>
        <time>2012-07-29T15:46:24Z</time>
      </trkpt>
      <trkpt lat="44.80525" lon="-0.34485">
        <ele>41</ele>
        <time>2012-07-29T15:46:27Z</time>
      </trkpt>
      <trkpt lat="44.80519" lon="-0.345">
        <ele>41</ele>
        <time>2012-07-29T15:46:30Z</time>
      </trkpt>
      <trkpt lat="44.80516" lon="-0.34512">
        <ele>42</ele>
        <time>2012-07-29T15:46:35Z</time>
      </trkpt>
      <trkpt lat="44.80506" lon="-0.34519">
        <ele>42</ele>
        <time>2012-07-29T15:46:44Z</time>
      </trkpt>
      <trkpt lat="44.80498" lon="-0.34527">
        <ele>42</ele>
        <time>2012-07-29T15:46:49Z</time>
      </trkpt>
      <trkpt lat="44.80488" lon="-0.34535">
        <ele>43</ele>
        <time>2012-07-29T15:46:53Z</time>
      </trkpt>
      <trkpt lat="44.80478" lon="-0.34546">
        <ele>43</ele>
        <time>2012-07-29T15:46:57Z</time>
      </trkpt>
      <trkpt lat="44.80468" lon="-0.34552">
        <ele>44</ele>
        <time>2012-07-29T15:47:00Z</time>
      </trkpt>
      <trkpt lat="44.80458" lon="-0.34556">
        <ele>44</ele>
        <time>2012-07-29T15:47:03Z</time>
      </trkpt>
      <trkpt lat="44.80447" lon="-0.34568">
        <ele>45</ele>
        <time>2012-07-29T15:47:06Z</time>
      </trkpt>
      <trkpt lat="44.80436" lon="-0.34578">
        <ele>45</ele>
        <time>2012-07-29T15:47:09Z</time>
      </trkpt>
      <trkpt lat="44.80429" lon="-0.34587">
        <ele>45</ele>
        <time>2012-07-29T15:47:12Z</time>
      </trkpt>
      <trkpt lat="44.80426" lon="-0.346">
        <ele>46</ele>
        <time>2012-07-29T15:47:58Z</time>
      </trkpt>
      <trkpt lat="44.80435" lon="-0.34605">
        <ele>45</ele>
        <time>2012-07-29T15:50:30Z</time>
      </trkpt>
      <trkpt lat="44.80442" lon="-0.34618">
        <ele>45</ele>
        <time>2012-07-29T15:50:35Z</time>
      </trkpt>
      <trkpt lat="44.80447" lon="-0.3463">
        <ele>45</ele>
        <time>2012-07-29T15:50:39Z</time>
      </trkpt>
      <trkpt lat="44.80452" lon="-0.34644">
        <ele>45</ele>
        <time>2012-07-29T15:50:43Z</time>
      </trkpt>
      <trkpt lat="44.80458" lon="-0.34657">
        <ele>45</ele>
        <time>2012-07-29T15:50:46Z</time>
      </trkpt>
      <trkpt lat="44.80465" lon="-0.34671">
        <ele>45</ele>
        <time>2012-07-29T15:50:50Z</time>
      </trkpt>
      <trkpt lat="44.8047" lon="-0.34686">
        <ele>45</ele>
        <time>2012-07-29T15:50:54Z</time>
      </trkpt>
      <trkpt lat="44.80475" lon="-0.347">
        <ele>45</ele>
        <time>2012-07-29T15:50:58Z</time>
      </trkpt>
      <trkpt lat="44.8048" lon="-0.34715">
        <ele>45</ele>
        <time>2012-07-29T15:51:02Z</time>
      </trkpt>
      <trkpt lat="44.80486" lon="-0.34726">
        <ele>45</ele>
        <time>2012-07-29T15:51:06Z</time>
      </trkpt>
      <trkpt lat="44.80493" lon="-0.34738">
        <ele>44</ele>
        <time>2012-07-29T15:51:10Z</time>
      </trkpt>
      <trkpt lat="44.80498" lon="-0.34752">
        <ele>44</ele>
        <time>2012-07-29T15:51:14Z</time>
      </trkpt>
      <trkpt lat="44.80492" lon="-0.34765">
        <ele>44</ele>
        <time>2012-07-29T15:51:18Z</time>
      </trkpt>
      <trkpt lat="44.80484" lon="-0.34776">
        <ele>45</ele>
        <time>2012-07-29T15:51:22Z</time>
      </trkpt>
      <trkpt lat="44.80475" lon="-0.34786">
        <ele>45</ele>
        <time>2012-07-29T15:51:26Z</time>
      </trkpt>
      <trkpt lat="44.80468" lon="-0.34795">
        <ele>45</ele>
        <time>2012-07-29T15:51:30Z</time>
      </trkpt>
      <trkpt lat="44.8046" lon="-0.34802">
        <ele>46</ele>
        <time>2012-07-29T15:51:34Z</time>
      </trkpt>
      <trkpt lat="44.8045" lon="-0.34808">
        <ele>46</ele>
        <time>2012-07-29T15:51:42Z</time>
      </trkpt>
      <trkpt lat="44.8044" lon="-0.34817">
        <ele>47</ele>
        <time>2012-07-29T15:51:46Z</time>
      </trkpt>
      <trkpt lat="44.80436" lon="-0.3483">
        <ele>47</ele>
        <time>2012-07-29T15:51:50Z</time>
      </trkpt>
      <trkpt lat="44.80435" lon="-0.34851">
        <ele>48</ele>
        <time>2012-07-29T15:51:57Z</time>
      </trkpt>
      <trkpt lat="44.80431" lon="-0.34864">
        <ele>48</ele>
        <time>2012-07-29T15:52:00Z</time>
      </trkpt>
      <trkpt lat="44.80429" lon="-0.3488">
        <ele>49</ele>
        <time>2012-07-29T15:52:05Z</time>
      </trkpt>
      <trkpt lat="44.80423" lon="-0.34894">
        <ele>50</ele>
        <time>2012-07-29T15:52:10Z</time>
      </trkpt>
      <trkpt lat="44.8042" lon="-0.34909">
        <ele>50</ele>
        <time>2012-07-29T15:52:18Z</time>
      </trkpt>
      <trkpt lat="44.80415" lon="-0.34923">
        <ele>51</ele>
        <time>2012-07-29T15:52:23Z</time>
      </trkpt>
      <trkpt lat="44.80412" lon="-0.34938">
        <ele>52</ele>
        <time>2012-07-29T15:52:28Z</time>
      </trkpt>
      <trkpt lat="44.80406" lon="-0.34952">
        <ele>53</ele>
        <time>2012-07-29T15:52:34Z</time>
      </trkpt>
      <trkpt lat="44.804" lon="-0.34962">
        <ele>53</ele>
        <time>2012-07-29T15:52:42Z</time>
      </trkpt>
      <trkpt lat="44.80397" lon="-0.34977">
        <ele>54</ele>
        <time>2012-07-29T15:52:48Z</time>
      </trkpt>
      <trkpt lat="44.80391" lon="-0.34988">
        <ele>55</ele>
        <time>2012-07-29T15:52:52Z</time>
      </trkpt>
      <trkpt lat="44.80387" lon="-0.35">
        <ele>56</ele>
        <time>2012-07-29T15:52:57Z</time>
      </trkpt>
      <trkpt lat="44.80381" lon="-0.35015">
        <ele>57</ele>
        <time>2012-07-29T15:53:05Z</time>
      </trkpt>
      <trkpt lat="44.80376" lon="-0.35026">
        <ele>57</ele>
        <time>2012-07-29T15:53:11Z</time>
      </trkpt>
      <trkpt lat="44.80362" lon="-0.35046">
        <ele>58</ele>
        <time>2012-07-29T15:54:08Z</time>
      </trkpt>
      <trkpt lat="44.80365" lon="-0.35033">
        <ele>57</ele>
        <time>2012-07-29T15:54:46Z</time>
      </trkpt>
      <trkpt lat="44.80361" lon="-0.35044">
        <ele>57</ele>
        <time>2012-07-29T15:55:34Z</time>
      </trkpt>
      <trkpt lat="44.80356" lon="-0.35058">
        <ele>58</ele>
        <time>2012-07-29T15:56:16Z</time>
      </trkpt>
      <trkpt lat="44.8035" lon="-0.35071">
        <ele>59</ele>
        <time>2012-07-29T15:56:22Z</time>
      </trkpt>
      <trkpt lat="44.80345" lon="-0.35083">
        <ele>59</ele>
        <time>2012-07-29T15:56:27Z</time>
      </trkpt>
      <trkpt lat="44.8034" lon="-0.35095">
        <ele>60</ele>
        <time>2012-07-29T15:56:32Z</time>
      </trkpt>
      <trkpt lat="44.80333" lon="-0.35108">
        <ele>61</ele>
        <time>2012-07-29T15:56:38Z</time>
      </trkpt>
      <trkpt lat="44.80327" lon="-0.35122">
        <ele>62</ele>
        <time>2012-07-29T15:56:43Z</time>
      </trkpt>
      <trkpt lat="44.80321" lon="-0.35133">
        <ele>63</ele>
        <time>2012-07-29T15:56:47Z</time>
      </trkpt>
      <trkpt lat="44.80316" lon="-0.35147">
        <ele>64</ele>
        <time>2012-07-29T15:56:52Z</time>
      </trkpt>
      <trkpt lat="44.80312" lon="-0.3516">
        <ele>65</ele>
        <time>2012-07-29T15:56:57Z</time>
      </trkpt>
      <trkpt lat="44.80303" lon="-0.35169">
        <ele>65</ele>
        <time>2012-07-29T15:57:03Z</time>
      </trkpt>
      <trkpt lat="44.803" lon="-0.35182">
        <ele>66</ele>
        <time>2012-07-29T15:57:25Z</time>
      </trkpt>
      <trkpt lat="44.803" lon="-0.35195">
        <ele>67</ele>
        <time>2012-07-29T15:58:16Z</time>
      </trkpt>
      <trkpt lat="44.80298" lon="-0.35209">
        <ele>69</ele>
        <time>2012-07-29T15:58:41Z</time>
      </trkpt>
      <trkpt lat="44.803" lon="-0.35222">
        <ele>70</ele>
        <time>2012-07-29T15:58:47Z</time>
      </trkpt>
      <trkpt lat="44.80299" lon="-0.35236">
        <ele>71</ele>
        <time>2012-07-29T15:58:53Z</time>
      </trkpt>
      <trkpt lat="44.80294" lon="-0.35249">
        <ele>72</ele>
        <time>2012-07-29T15:58:59Z</time>
      </trkpt>
      <trkpt lat="44.80292" lon="-0.35263">
        <ele>73</ele>
        <time>2012-07-29T15:59:05Z</time>
      </trkpt>
      <trkpt lat="44.80293" lon="-0.35276">
        <ele>74</ele>
        <time>2012-07-29T15:59:11Z</time>
      </trkpt>
      <trkpt lat="44.80292" lon="-0.35289">
        <ele>75</ele>
        <time>2012-07-29T15:59:19Z</time>
      </trkpt>
      <trkpt lat="44.80287" lon="-0.35301">
        <ele>76</ele>
        <time>2012-07-29T15:59:26Z</time>
      </trkpt>
      <trkpt lat="44.80285" lon="-0.35315">
        <ele>78</ele>
        <time>2012-07-29T15:59:32Z</time>
      </trkpt>
      <trkpt lat="44.80281" lon="-0.35328">
        <ele>79</ele>
        <time>2012-07-29T15:59:39Z</time>
      </trkpt>
      <trkpt lat="44.80278" lon="-0.35342">
        <ele>81</ele>
        <time>2012-07-29T15:59:48Z</time>
      </trkpt>
      <trkpt lat="44.80278" lon="-0.35356">
        <ele>82</ele>
        <time>2012-07-29T15:59:56Z</time>
      </trkpt>
      <trkpt lat="44.80278" lon="-0.35369">
        <ele>83</ele>
        <time>2012-07-29T16:00:05Z</time>
      </trkpt>
      <trkpt lat="44.80278" lon="-0.35383">
        <ele>84</ele>
        <time>2012-07-29T16:00:14Z</time>
      </trkpt>
      <trkpt lat="44.80271" lon="-0.35392">
        <ele>85</ele>
        <time>2012-07-29T16:00:22Z</time>
      </trkpt>
      <trkpt lat="44.80262" lon="-0.35398">
        <ele>86</ele>
        <time>2012-07-29T16:00:29Z</time>
      </trkpt>
      <trkpt lat="44.80254" lon="-0.35406">
        <ele>87</ele>
        <time>2012-07-29T16:00:37Z</time>
      </trkpt>
      <trkpt lat="44.80246" lon="-0.35413">
        <ele>88</ele>
        <time>2012-07-29T16:00:43Z</time>
      </trkpt>
      <trkpt lat="44.80238" lon="-0.35423">
        <ele>90</ele>
        <time>2012-07-29T16:00:50Z</time>
      </trkpt>
      <trkpt lat="44.80232" lon="-0.35434">
        <ele>90</ele>
        <time>2012-07-29T16:00:57Z</time>
      </trkpt>
      <trkpt lat="44.80227" lon="-0.35447">
        <ele>90</ele>
        <time>2012-07-29T16:01:03Z</time>
      </trkpt>
      <trkpt lat="44.80221" lon="-0.3546">
        <ele>90</ele>
        <time>2012-07-29T16:01:08Z</time>
      </trkpt>
      <trkpt lat="44.80213" lon="-0.3547">
        <ele>90</ele>
        <time>2012-07-29T16:01:13Z</time>
      </trkpt>
      <trkpt lat="44.80204" lon="-0.3548">
        <ele>91</ele>
        <time>2012-07-29T16:01:17Z</time>
      </trkpt>
      <trkpt lat="44.80195" lon="-0.3549">
        <ele>91</ele>
        <time>2012-07-29T16:01:21Z</time>
      </trkpt>
      <trkpt lat="44.80188" lon="-0.35501">
        <ele>91</ele>
        <time>2012-07-29T16:01:25Z</time>
      </trkpt>
      <trkpt lat="44.80181" lon="-0.35511">
        <ele>91</ele>
        <time>2012-07-29T16:01:29Z</time>
      </trkpt>
      <trkpt lat="44.80175" lon="-0.35523">
        <ele>91</ele>
        <time>2012-07-29T16:01:33Z</time>
      </trkpt>
      <trkpt lat="44.80167" lon="-0.35537">
        <ele>91</ele>
        <time>2012-07-29T16:01:37Z</time>
      </trkpt>
      <trkpt lat="44.80156" lon="-0.35548">
        <ele>91</ele>
        <time>2012-07-29T16:01:40Z</time>
      </trkpt>
      <trkpt lat="44.80146" lon="-0.3556">
        <ele>91</ele>
        <time>2012-07-29T16:01:43Z</time>
      </trkpt>
      <trkpt lat="44.80135" lon="-0.3557">
        <ele>91</ele>
        <time>2012-07-29T16:01:46Z</time>
      </trkpt>
      <trkpt lat="44.80122" lon="-0.35579">
        <ele>92</ele>
        <time>2012-07-29T16:01:49Z</time>
      </trkpt>
      <trkpt lat="44.80111" lon="-0.35589">
        <ele>92</ele>
        <time>2012-07-29T16:01:52Z</time>
      </trkpt>
      <trkpt lat="44.80101" lon="-0.35601">
        <ele>93</ele>
        <time>2012-07-29T16:01:55Z</time>
      </trkpt>
      <trkpt lat="44.80094" lon="-0.3561">
        <ele>93</ele>
        <time>2012-07-29T16:01:57Z</time>
      </trkpt>
      <trkpt lat="44.80083" lon="-0.35624">
        <ele>93</ele>
        <time>2012-07-29T16:02:00Z</time>
      </trkpt>
      <trkpt lat="44.80076" lon="-0.35633">
        <ele>93</ele>
        <time>2012-07-29T16:02:02Z</time>
      </trkpt>
      <trkpt lat="44.80066" lon="-0.35643">
        <ele>93</ele>
        <time>2012-07-29T16:02:05Z</time>
      </trkpt>
      <trkpt lat="44.80058" lon="-0.35652">
        <ele>94</ele>
        <time>2012-07-29T16:02:08Z</time>
      </trkpt>
      <trkpt lat="44.80049" lon="-0.35661">
        <ele>94</ele>
        <time>2012-07-29T16:02:11Z</time>
      </trkpt>
      <trkpt lat="44.80041" lon="-0.3567">
        <ele>94</ele>
        <time>2012-07-29T16:02:14Z</time>
      </trkpt>
      <trkpt lat="44.80033" lon="-0.3568">
        <ele>95</ele>
        <time>2012-07-29T16:02:17Z</time>
      </trkpt>
      <trkpt lat="44.80023" lon="-0.35689">
        <ele>95</ele>
        <time>2012-07-29T16:02:20Z</time>
      </trkpt>
      <trkpt lat="44.80016" lon="-0.35698">
        <ele>96</ele>
        <time>2012-07-29T16:02:23Z</time>
      </trkpt>
      <trkpt lat="44.80008" lon="-0.35706">
        <ele>96</ele>
        <time>2012-07-29T16:02:26Z</time>
      </trkpt>
      <trkpt lat="44.80001" lon="-0.35715">
        <ele>97</ele>
        <time>2012-07-29T16:02:29Z</time>
      </trkpt>
      <trkpt lat="44.79991" lon="-0.35727">
        <ele>97</ele>
        <time>2012-07-29T16:02:32Z</time>
      </trkpt>
      <trkpt lat="44.79982" lon="-0.35739">
        <ele>97</ele>
        <time>2012-07-29T16:02:35Z</time>
      </trkpt>
      <trkpt lat="44.79975" lon="-0.35749">
        <ele>97</ele>
        <time>2012-07-29T16:02:38Z</time>
      </trkpt>
      <trkpt lat="44.79968" lon="-0.35758">
        <ele>97</ele>
        <time>2012-07-29T16:02:41Z</time>
      </trkpt>
      <trkpt lat="44.79957" lon="-0.3577">
        <ele>97</ele>
        <time>2012-07-29T16:02:45Z</time>
      </trkpt>
      <trkpt lat="44.79948" lon="-0.35778">
        <ele>97</ele>
        <time>2012-07-29T16:02:48Z</time>
      </trkpt>
      <trkpt lat="44.79939" lon="-0.35784">
        <ele>97</ele>
        <time>2012-07-29T16:02:51Z</time>
      </trkpt>
      <trkpt lat="44.79929" lon="-0.35792">
        <ele>97</ele>
        <time>2012-07-29T16:02:54Z</time>
      </trkpt>
      <trkpt lat="44.79921" lon="-0.35798">
        <ele>97</ele>
        <time>2012-07-29T16:02:57Z</time>
      </trkpt>
      <trkpt lat="44.79912" lon="-0.35808">
        <ele>97</ele>
        <time>2012-07-29T16:03:01Z</time>
      </trkpt>
      <trkpt lat="44.79908" lon="-0.35822">
        <ele>97</ele>
        <time>2012-07-29T16:03:05Z</time>
      </trkpt>
      <trkpt lat="44.79912" lon="-0.35837">
        <ele>97</ele>
        <time>2012-07-29T16:03:09Z</time>
      </trkpt>
      <trkpt lat="44.79918" lon="-0.35848">
        <ele>97</ele>
        <time>2012-07-29T16:03:13Z</time>
      </trkpt>
      <trkpt lat="44.79925" lon="-0.35861">
        <ele>97</ele>
        <time>2012-07-29T16:03:17Z</time>
      </trkpt>
      <trkpt lat="44.79932" lon="-0.35873">
        <ele>97</ele>
        <time>2012-07-29T16:03:21Z</time>
      </trkpt>
      <trkpt lat="44.79935" lon="-0.35887">
        <ele>97</ele>
        <time>2012-07-29T16:04:08Z</time>
      </trkpt>
      <trkpt lat="44.79941" lon="-0.359">
        <ele>96</ele>
        <time>2012-07-29T16:04:14Z</time>
      </trkpt>
      <trkpt lat="44.7994" lon="-0.35915">
        <ele>96</ele>
        <time>2012-07-29T16:04:18Z</time>
      </trkpt>
      <trkpt lat="44.79931" lon="-0.35924">
        <ele>96</ele>
        <time>2012-07-29T16:04:23Z</time>
      </trkpt>
      <trkpt lat="44.79921" lon="-0.35929">
        <ele>97</ele>
        <time>2012-07-29T16:04:28Z</time>
      </trkpt>
      <trkpt lat="44.79912" lon="-0.35934">
        <ele>97</ele>
        <time>2012-07-29T16:04:33Z</time>
      </trkpt>
      <trkpt lat="44.79902" lon="-0.3594">
        <ele>97</ele>
        <time>2012-07-29T16:04:39Z</time>
      </trkpt>
      <trkpt lat="44.79891" lon="-0.35941">
        <ele>97</ele>
        <time>2012-07-29T16:04:45Z</time>
      </trkpt>
      <trkpt lat="44.79881" lon="-0.35944">
        <ele>97</ele>
        <time>2012-07-29T16:04:49Z</time>
      </trkpt>
      <trkpt lat="44.79872" lon="-0.35945">
        <ele>97</ele>
        <time>2012-07-29T16:04:53Z</time>
      </trkpt>
      <trkpt lat="44.79862" lon="-0.35948">
        <ele>97</ele>
        <time>2012-07-29T16:04:57Z</time>
      </trkpt>
      <trkpt lat="44.79851" lon="-0.35951">
        <ele>97</ele>
        <time>2012-07-29T16:05:01Z</time>
      </trkpt>
      <trkpt lat="44.79841" lon="-0.35952">
        <ele>97</ele>
        <time>2012-07-29T16:05:04Z</time>
      </trkpt>
      <trkpt lat="44.79831" lon="-0.35955">
        <ele>97</ele>
        <time>2012-07-29T16:05:07Z</time>
      </trkpt>
      <trkpt lat="44.79819" lon="-0.35958">
        <ele>97</ele>
        <time>2012-07-29T16:05:11Z</time>
      </trkpt>
      <trkpt lat="44.79808" lon="-0.35961">
        <ele>97</ele>
        <time>2012-07-29T16:05:14Z</time>
      </trkpt>
      <trkpt lat="44.79797" lon="-0.35962">
        <ele>97</ele>
        <time>2012-07-29T16:05:17Z</time>
      </trkpt>
      <trkpt lat="44.79787" lon="-0.35964">
        <ele>97</ele>
        <time>2012-07-29T16:05:20Z</time>
      </trkpt>
      <trkpt lat="44.79776" lon="-0.35967">
        <ele>97</ele>
        <time>2012-07-29T16:05:23Z</time>
      </trkpt>
      <trkpt lat="44.79765" lon="-0.35969">
        <ele>97</ele>
        <time>2012-07-29T16:05:26Z</time>
      </trkpt>
      <trkpt lat="44.79754" lon="-0.3597">
        <ele>97</ele>
        <time>2012-07-29T16:05:29Z</time>
      </trkpt>
      <trkpt lat="44.79742" lon="-0.35973">
        <ele>98</ele>
        <time>2012-07-29T16:05:32Z</time>
      </trkpt>
      <trkpt lat="44.7973" lon="-0.35976">
        <ele>98</ele>
        <time>2012-07-29T16:05:35Z</time>
      </trkpt>
      <trkpt lat="44.79718" lon="-0.35979">
        <ele>98</ele>
        <time>2012-07-29T16:05:38Z</time>
      </trkpt>
      <trkpt lat="44.79706" lon="-0.35984">
        <ele>98</ele>
        <time>2012-07-29T16:05:41Z</time>
      </trkpt>
      <trkpt lat="44.79695" lon="-0.35989">
        <ele>99</ele>
        <time>2012-07-29T16:05:44Z</time>
      </trkpt>
      <trkpt lat="44.79684" lon="-0.35996">
        <ele>99</ele>
        <time>2012-07-29T16:05:47Z</time>
      </trkpt>
      <trkpt lat="44.79673" lon="-0.36001">
        <ele>99</ele>
        <time>2012-07-29T16:05:50Z</time>
      </trkpt>
      <trkpt lat="44.79663" lon="-0.36006">
        <ele>99</ele>
        <time>2012-07-29T16:05:53Z</time>
      </trkpt>
      <trkpt lat="44.79651" lon="-0.36012">
        <ele>99</ele>
        <time>2012-07-29T16:05:56Z</time>
      </trkpt>
      <trkpt lat="44.7964" lon="-0.36016">
        <ele>100</ele>
        <time>2012-07-29T16:05:59Z</time>
      </trkpt>
      <trkpt lat="44.79628" lon="-0.3602">
        <ele>100</ele>
        <time>2012-07-29T16:06:02Z</time>
      </trkpt>
      <trkpt lat="44.79617" lon="-0.36024">
        <ele>100</ele>
        <time>2012-07-29T16:06:05Z</time>
      </trkpt>
      <trkpt lat="44.79606" lon="-0.36027">
        <ele>100</ele>
        <time>2012-07-29T16:06:08Z</time>
      </trkpt>
      <trkpt lat="44.79594" lon="-0.36031">
        <ele>100</ele>
        <time>2012-07-29T16:06:11Z</time>
      </trkpt>
      <trkpt lat="44.79581" lon="-0.36032">
        <ele>100</ele>
        <time>2012-07-29T16:06:14Z</time>
      </trkpt>
      <trkpt lat="44.7957" lon="-0.36035">
        <ele>100</ele>
        <time>2012-07-29T16:06:17Z</time>
      </trkpt>
      <trkpt lat="44.79558" lon="-0.36036">
        <ele>99</ele>
        <time>2012-07-29T16:06:20Z</time>
      </trkpt>
      <trkpt lat="44.79545" lon="-0.36037">
        <ele>99</ele>
        <time>2012-07-29T16:06:23Z</time>
      </trkpt>
      <trkpt lat="44.79532" lon="-0.36038">
        <ele>100</ele>
        <time>2012-07-29T16:06:26Z</time>
      </trkpt>
      <trkpt lat="44.79519" lon="-0.3604">
        <ele>100</ele>
        <time>2012-07-29T16:06:29Z</time>
      </trkpt>
      <trkpt lat="44.79506" lon="-0.3604">
        <ele>100</ele>
        <time>2012-07-29T16:06:32Z</time>
      </trkpt>
      <trkpt lat="44.79494" lon="-0.3604">
        <ele>100</ele>
        <time>2012-07-29T16:06:35Z</time>
      </trkpt>
      <trkpt lat="44.79483" lon="-0.36041">
        <ele>100</ele>
        <time>2012-07-29T16:06:38Z</time>
      </trkpt>
      <trkpt lat="44.79471" lon="-0.36042">
        <ele>101</ele>
        <time>2012-07-29T16:06:41Z</time>
      </trkpt>
      <trkpt lat="44.79459" lon="-0.36043">
        <ele>101</ele>
        <time>2012-07-29T16:06:44Z</time>
      </trkpt>
      <trkpt lat="44.79448" lon="-0.36044">
        <ele>101</ele>
        <time>2012-07-29T16:06:47Z</time>
      </trkpt>
      <trkpt lat="44.79438" lon="-0.36042">
        <ele>102</ele>
        <time>2012-07-29T16:06:50Z</time>
      </trkpt>
      <trkpt lat="44.79426" lon="-0.3604">
        <ele>102</ele>
        <time>2012-07-29T16:06:54Z</time>
      </trkpt>
      <trkpt lat="44.79416" lon="-0.36039">
        <ele>102</ele>
        <time>2012-07-29T16:06:58Z</time>
      </trkpt>
      <trkpt lat="44.79405" lon="-0.36036">
        <ele>103</ele>
        <time>2012-07-29T16:07:02Z</time>
      </trkpt>
      <trkpt lat="44.79396" lon="-0.36031">
        <ele>103</ele>
        <time>2012-07-29T16:07:06Z</time>
      </trkpt>
      <trkpt lat="44.79387" lon="-0.36024">
        <ele>104</ele>
        <time>2012-07-29T16:07:12Z</time>
      </trkpt>
      <trkpt lat="44.79388" lon="-0.36007">
        <ele>104</ele>
        <time>2012-07-29T16:07:17Z</time>
      </trkpt>
      <trkpt lat="44.79391" lon="-0.35992">
        <ele>104</ele>
        <time>2012-07-29T16:07:20Z</time>
      </trkpt>
      <trkpt lat="44.79397" lon="-0.35975">
        <ele>104</ele>
        <time>2012-07-29T16:07:23Z</time>
      </trkpt>
      <trkpt lat="44.79401" lon="-0.35957">
        <ele>103</ele>
        <time>2012-07-29T16:07:26Z</time>
      </trkpt>
      <trkpt lat="44.79403" lon="-0.35943">
        <ele>103</ele>
        <time>2012-07-29T16:07:28Z</time>
      </trkpt>
      <trkpt lat="44.79406" lon="-0.35929">
        <ele>103</ele>
        <time>2012-07-29T16:07:30Z</time>
      </trkpt>
      <trkpt lat="44.7941" lon="-0.35915">
        <ele>103</ele>
        <time>2012-07-29T16:07:32Z</time>
      </trkpt>
      <trkpt lat="44.79413" lon="-0.35899">
        <ele>102</ele>
        <time>2012-07-29T16:07:34Z</time>
      </trkpt>
      <trkpt lat="44.79416" lon="-0.35883">
        <ele>102</ele>
        <time>2012-07-29T16:07:36Z</time>
      </trkpt>
      <trkpt lat="44.79419" lon="-0.35866">
        <ele>101</ele>
        <time>2012-07-29T16:07:38Z</time>
      </trkpt>
      <trkpt lat="44.79422" lon="-0.35849">
        <ele>101</ele>
        <time>2012-07-29T16:07:40Z</time>
      </trkpt>
      <trkpt lat="44.79425" lon="-0.35832">
        <ele>100</ele>
        <time>2012-07-29T16:07:42Z</time>
      </trkpt>
      <trkpt lat="44.79428" lon="-0.35815">
        <ele>100</ele>
        <time>2012-07-29T16:07:44Z</time>
      </trkpt>
      <trkpt lat="44.79432" lon="-0.35797">
        <ele>99</ele>
        <time>2012-07-29T16:07:46Z</time>
      </trkpt>
      <trkpt lat="44.79435" lon="-0.3578">
        <ele>98</ele>
        <time>2012-07-29T16:07:48Z</time>
      </trkpt>
      <trkpt lat="44.7944" lon="-0.35764">
        <ele>97</ele>
        <time>2012-07-29T16:07:50Z</time>
      </trkpt>
      <trkpt lat="44.79443" lon="-0.35748">
        <ele>97</ele>
        <time>2012-07-29T16:07:52Z</time>
      </trkpt>
      <trkpt lat="44.79446" lon="-0.35734">
        <ele>97</ele>
        <time>2012-07-29T16:07:54Z</time>
      </trkpt>
      <trkpt lat="44.79451" lon="-0.35721">
        <ele>97</ele>
        <time>2012-07-29T16:07:56Z</time>
      </trkpt>
      <trkpt lat="44.79455" lon="-0.35706">
        <ele>96</ele>
        <time>2012-07-29T16:07:58Z</time>
      </trkpt>
      <trkpt lat="44.79458" lon="-0.35692">
        <ele>96</ele>
        <time>2012-07-29T16:08:00Z</time>
      </trkpt>
      <trkpt lat="44.79462" lon="-0.35678">
        <ele>96</ele>
        <time>2012-07-29T16:08:02Z</time>
      </trkpt>
      <trkpt lat="44.79466" lon="-0.35664">
        <ele>97</ele>
        <time>2012-07-29T16:08:04Z</time>
      </trkpt>
      <trkpt lat="44.79467" lon="-0.35649">
        <ele>97</ele>
        <time>2012-07-29T16:08:06Z</time>
      </trkpt>
      <trkpt lat="44.7947" lon="-0.35634">
        <ele>97</ele>
        <time>2012-07-29T16:08:08Z</time>
      </trkpt>
      <trkpt lat="44.79473" lon="-0.35621">
        <ele>97</ele>
        <time>2012-07-29T16:08:10Z</time>
      </trkpt>
      <trkpt lat="44.79474" lon="-0.35606">
        <ele>98</ele>
        <time>2012-07-29T16:08:12Z</time>
      </trkpt>
      <trkpt lat="44.79476" lon="-0.35591">
        <ele>98</ele>
        <time>2012-07-29T16:08:14Z</time>
      </trkpt>
      <trkpt lat="44.79478" lon="-0.35577">
        <ele>99</ele>
        <time>2012-07-29T16:08:16Z</time>
      </trkpt>
      <trkpt lat="44.79478" lon="-0.35563">
        <ele>99</ele>
        <time>2012-07-29T16:08:18Z</time>
      </trkpt>
      <trkpt lat="44.79479" lon="-0.35543">
        <ele>99</ele>
        <time>2012-07-29T16:08:21Z</time>
      </trkpt>
      <trkpt lat="44.7948" lon="-0.35524">
        <ele>99</ele>
        <time>2012-07-29T16:08:24Z</time>
      </trkpt>
      <trkpt lat="44.7948" lon="-0.35506">
        <ele>99</ele>
        <time>2012-07-29T16:08:27Z</time>
      </trkpt>
      <trkpt lat="44.79481" lon="-0.35489">
        <ele>99</ele>
        <time>2012-07-29T16:08:30Z</time>
      </trkpt>
      <trkpt lat="44.79482" lon="-0.35472">
        <ele>100</ele>
        <time>2012-07-29T16:08:33Z</time>
      </trkpt>
      <trkpt lat="44.79482" lon="-0.35457">
        <ele>100</ele>
        <time>2012-07-29T16:08:36Z</time>
      </trkpt>
      <trkpt lat="44.79475" lon="-0.35448">
        <ele>100</ele>
        <time>2012-07-29T16:08:39Z</time>
      </trkpt>
      <trkpt lat="44.79465" lon="-0.3545">
        <ele>100</ele>
        <time>2012-07-29T16:08:42Z</time>
      </trkpt>
      <trkpt lat="44.79454" lon="-0.35454">
        <ele>100</ele>
        <time>2012-07-29T16:08:45Z</time>
      </trkpt>
      <trkpt lat="44.79443" lon="-0.35458">
        <ele>100</ele>
        <time>2012-07-29T16:08:48Z</time>
      </trkpt>
      <trkpt lat="44.7943" lon="-0.35464">
        <ele>101</ele>
        <time>2012-07-29T16:08:51Z</time>
      </trkpt>
      <trkpt lat="44.79419" lon="-0.35467">
        <ele>101</ele>
        <time>2012-07-29T16:08:54Z</time>
      </trkpt>
      <trkpt lat="44.79407" lon="-0.35472">
        <ele>101</ele>
        <time>2012-07-29T16:08:57Z</time>
      </trkpt>
      <trkpt lat="44.79393" lon="-0.35476">
        <ele>101</ele>
        <time>2012-07-29T16:09:00Z</time>
      </trkpt>
      <trkpt lat="44.79381" lon="-0.35481">
        <ele>101</ele>
        <time>2012-07-29T16:09:03Z</time>
      </trkpt>
      <trkpt lat="44.79369" lon="-0.35486">
        <ele>101</ele>
        <time>2012-07-29T16:09:06Z</time>
      </trkpt>
      <trkpt lat="44.79357" lon="-0.3549">
        <ele>101</ele>
        <time>2012-07-29T16:09:09Z</time>
      </trkpt>
      <trkpt lat="44.79345" lon="-0.35494">
        <ele>101</ele>
        <time>2012-07-29T16:09:12Z</time>
      </trkpt>
      <trkpt lat="44.79332" lon="-0.35499">
        <ele>101</ele>
        <time>2012-07-29T16:09:15Z</time>
      </trkpt>
      <trkpt lat="44.7932" lon="-0.35503">
        <ele>101</ele>
        <time>2012-07-29T16:09:18Z</time>
      </trkpt>
      <trkpt lat="44.79308" lon="-0.35508">
        <ele>101</ele>
        <time>2012-07-29T16:09:21Z</time>
      </trkpt>
      <trkpt lat="44.79295" lon="-0.35511">
        <ele>101</ele>
        <time>2012-07-29T16:09:24Z</time>
      </trkpt>
      <trkpt lat="44.79283" lon="-0.35516">
        <ele>101</ele>
        <time>2012-07-29T16:09:27Z</time>
      </trkpt>
      <trkpt lat="44.79271" lon="-0.3552">
        <ele>101</ele>
        <time>2012-07-29T16:09:30Z</time>
      </trkpt>
      <trkpt lat="44.79259" lon="-0.35525">
        <ele>101</ele>
        <time>2012-07-29T16:09:33Z</time>
      </trkpt>
      <trkpt lat="44.79247" lon="-0.35528">
        <ele>101</ele>
        <time>2012-07-29T16:09:36Z</time>
      </trkpt>
      <trkpt lat="44.79235" lon="-0.35533">
        <ele>101</ele>
        <time>2012-07-29T16:09:39Z</time>
      </trkpt>
      <trkpt lat="44.79223" lon="-0.35537">
        <ele>102</ele>
        <time>2012-07-29T16:09:42Z</time>
      </trkpt>
      <trkpt lat="44.79211" lon="-0.35541">
        <ele>102</ele>
        <time>2012-07-29T16:09:45Z</time>
      </trkpt>
      <trkpt lat="44.79198" lon="-0.35545">
        <ele>102</ele>
        <time>2012-07-29T16:09:48Z</time>
      </trkpt>
      <trkpt lat="44.79184" lon="-0.35547">
        <ele>102</ele>
        <time>2012-07-29T16:09:51Z</time>
      </trkpt>
      <trkpt lat="44.7917" lon="-0.35548">
        <ele>101</ele>
        <time>2012-07-29T16:09:54Z</time>
      </trkpt>
      <trkpt lat="44.7916" lon="-0.3555">
        <ele>101</ele>
        <time>2012-07-29T16:09:56Z</time>
      </trkpt>
      <trkpt lat="44.79151" lon="-0.35551">
        <ele>101</ele>
        <time>2012-07-29T16:09:58Z</time>
      </trkpt>
      <trkpt lat="44.79141" lon="-0.35552">
        <ele>101</ele>
        <time>2012-07-29T16:10:00Z</time>
      </trkpt>
      <trkpt lat="44.79131" lon="-0.35553">
        <ele>101</ele>
        <time>2012-07-29T16:10:02Z</time>
      </trkpt>
      <trkpt lat="44.7912" lon="-0.35554">
        <ele>101</ele>
        <time>2012-07-29T16:10:04Z</time>
      </trkpt>
      <trkpt lat="44.7911" lon="-0.35554">
        <ele>101</ele>
        <time>2012-07-29T16:10:06Z</time>
      </trkpt>
      <trkpt lat="44.791" lon="-0.35554">
        <ele>101</ele>
        <time>2012-07-29T16:10:08Z</time>
      </trkpt>
      <trkpt lat="44.79089" lon="-0.35555">
        <ele>100</ele>
        <time>2012-07-29T16:10:10Z</time>
      </trkpt>
      <trkpt lat="44.79079" lon="-0.35556">
        <ele>100</ele>
        <time>2012-07-29T16:10:12Z</time>
      </trkpt>
      <trkpt lat="44.79068" lon="-0.35559">
        <ele>99</ele>
        <time>2012-07-29T16:10:14Z</time>
      </trkpt>
      <trkpt lat="44.79059" lon="-0.35563">
        <ele>99</ele>
        <time>2012-07-29T16:10:16Z</time>
      </trkpt>
      <trkpt lat="44.79049" lon="-0.35562">
        <ele>99</ele>
        <time>2012-07-29T16:10:19Z</time>
      </trkpt>
      <trkpt lat="44.79041" lon="-0.35551">
        <ele>98</ele>
        <time>2012-07-29T16:10:23Z</time>
      </trkpt>
      <trkpt lat="44.79034" lon="-0.35541">
        <ele>98</ele>
        <time>2012-07-29T16:10:26Z</time>
      </trkpt>
      <trkpt lat="44.79025" lon="-0.35529">
        <ele>97</ele>
        <time>2012-07-29T16:10:30Z</time>
      </trkpt>
      <trkpt lat="44.79018" lon="-0.35519">
        <ele>97</ele>
        <time>2012-07-29T16:10:33Z</time>
      </trkpt>
      <trkpt lat="44.79009" lon="-0.35508">
        <ele>97</ele>
        <time>2012-07-29T16:10:37Z</time>
      </trkpt>
      <trkpt lat="44.79002" lon="-0.35497">
        <ele>96</ele>
        <time>2012-07-29T16:10:40Z</time>
      </trkpt>
      <trkpt lat="44.78993" lon="-0.35488">
        <ele>96</ele>
        <time>2012-07-29T16:10:43Z</time>
      </trkpt>
      <trkpt lat="44.78987" lon="-0.35475">
        <ele>96</ele>
        <time>2012-07-29T16:10:46Z</time>
      </trkpt>
      <trkpt lat="44.78981" lon="-0.35465">
        <ele>96</ele>
        <time>2012-07-29T16:10:49Z</time>
      </trkpt>
      <trkpt lat="44.78975" lon="-0.35454">
        <ele>96</ele>
        <time>2012-07-29T16:10:53Z</time>
      </trkpt>
      <trkpt lat="44.78967" lon="-0.35443">
        <ele>96</ele>
        <time>2012-07-29T16:10:57Z</time>
      </trkpt>
      <trkpt lat="44.7896" lon="-0.35431">
        <ele>96</ele>
        <time>2012-07-29T16:11:01Z</time>
      </trkpt>
      <trkpt lat="44.78951" lon="-0.35419">
        <ele>96</ele>
        <time>2012-07-29T16:11:05Z</time>
      </trkpt>
      <trkpt lat="44.78942" lon="-0.35407">
        <ele>96</ele>
        <time>2012-07-29T16:11:09Z</time>
      </trkpt>
      <trkpt lat="44.78934" lon="-0.35397">
        <ele>96</ele>
        <time>2012-07-29T16:11:13Z</time>
      </trkpt>
      <trkpt lat="44.78925" lon="-0.35406">
        <ele>95</ele>
        <time>2012-07-29T16:11:20Z</time>
      </trkpt>
      <trkpt lat="44.7892" lon="-0.3542">
        <ele>95</ele>
        <time>2012-07-29T16:11:24Z</time>
      </trkpt>
      <trkpt lat="44.78911" lon="-0.35427">
        <ele>94</ele>
        <time>2012-07-29T16:11:36Z</time>
      </trkpt>
      <trkpt lat="44.789" lon="-0.35424">
        <ele>94</ele>
        <time>2012-07-29T16:11:42Z</time>
      </trkpt>
      <trkpt lat="44.78891" lon="-0.35418">
        <ele>94</ele>
        <time>2012-07-29T16:11:46Z</time>
      </trkpt>
      <trkpt lat="44.7888" lon="-0.35413">
        <ele>94</ele>
        <time>2012-07-29T16:11:51Z</time>
      </trkpt>
      <trkpt lat="44.78871" lon="-0.35404">
        <ele>92</ele>
        <time>2012-07-29T16:11:55Z</time>
      </trkpt>
      <trkpt lat="44.78862" lon="-0.35396">
        <ele>92</ele>
        <time>2012-07-29T16:11:59Z</time>
      </trkpt>
      <trkpt lat="44.78855" lon="-0.35385">
        <ele>91</ele>
        <time>2012-07-29T16:12:03Z</time>
      </trkpt>
      <trkpt lat="44.7885" lon="-0.35372">
        <ele>91</ele>
        <time>2012-07-29T16:12:07Z</time>
      </trkpt>
      <trkpt lat="44.78844" lon="-0.35359">
        <ele>91</ele>
        <time>2012-07-29T16:12:10Z</time>
      </trkpt>
      <trkpt lat="44.78839" lon="-0.35344">
        <ele>91</ele>
        <time>2012-07-29T16:12:13Z</time>
      </trkpt>
      <trkpt lat="44.78834" lon="-0.35332">
        <ele>90</ele>
        <time>2012-07-29T16:12:15Z</time>
      </trkpt>
      <trkpt lat="44.78827" lon="-0.35317">
        <ele>89</ele>
        <time>2012-07-29T16:12:18Z</time>
      </trkpt>
      <trkpt lat="44.78816" lon="-0.35303">
        <ele>88</ele>
        <time>2012-07-29T16:12:21Z</time>
      </trkpt>
      <trkpt lat="44.78807" lon="-0.35294">
        <ele>87</ele>
        <time>2012-07-29T16:12:23Z</time>
      </trkpt>
      <trkpt lat="44.78798" lon="-0.35285">
        <ele>86</ele>
        <time>2012-07-29T16:12:25Z</time>
      </trkpt>
      <trkpt lat="44.78787" lon="-0.35272">
        <ele>85</ele>
        <time>2012-07-29T16:12:27Z</time>
      </trkpt>
      <trkpt lat="44.78778" lon="-0.35262">
        <ele>84</ele>
        <time>2012-07-29T16:12:29Z</time>
      </trkpt>
      <trkpt lat="44.78769" lon="-0.35251">
        <ele>83</ele>
        <time>2012-07-29T16:12:31Z</time>
      </trkpt>
      <trkpt lat="44.78761" lon="-0.35242">
        <ele>82</ele>
        <time>2012-07-29T16:12:33Z</time>
      </trkpt>
      <trkpt lat="44.78754" lon="-0.35234">
        <ele>81</ele>
        <time>2012-07-29T16:12:35Z</time>
      </trkpt>
      <trkpt lat="44.78745" lon="-0.35227">
        <ele>80</ele>
        <time>2012-07-29T16:12:37Z</time>
      </trkpt>
      <trkpt lat="44.78734" lon="-0.35219">
        <ele>78</ele>
        <time>2012-07-29T16:12:40Z</time>
      </trkpt>
      <trkpt lat="44.78723" lon="-0.35208">
        <ele>76</ele>
        <time>2012-07-29T16:12:43Z</time>
      </trkpt>
      <trkpt lat="44.78716" lon="-0.35197">
        <ele>74</ele>
        <time>2012-07-29T16:12:45Z</time>
      </trkpt>
      <trkpt lat="44.78711" lon="-0.35186">
        <ele>73</ele>
        <time>2012-07-29T16:12:47Z</time>
      </trkpt>
      <trkpt lat="44.78704" lon="-0.35174">
        <ele>72</ele>
        <time>2012-07-29T16:12:51Z</time>
      </trkpt>
      <trkpt lat="44.78697" lon="-0.35164">
        <ele>71</ele>
        <time>2012-07-29T16:12:57Z</time>
      </trkpt>
      <trkpt lat="44.7869" lon="-0.35156">
        <ele>70</ele>
        <time>2012-07-29T16:13:16Z</time>
      </trkpt>
      <trkpt lat="44.78681" lon="-0.35148">
        <ele>70</ele>
        <time>2012-07-29T16:13:21Z</time>
      </trkpt>
      <trkpt lat="44.78671" lon="-0.3515">
        <ele>69</ele>
        <time>2012-07-29T16:13:26Z</time>
      </trkpt>
      <trkpt lat="44.78662" lon="-0.35144">
        <ele>69</ele>
        <time>2012-07-29T16:13:37Z</time>
      </trkpt>
      <trkpt lat="44.78655" lon="-0.35133">
        <ele>70</ele>
        <time>2012-07-29T16:13:51Z</time>
      </trkpt>
      <trkpt lat="44.78645" lon="-0.35129">
        <ele>71</ele>
        <time>2012-07-29T16:13:57Z</time>
      </trkpt>
      <trkpt lat="44.78636" lon="-0.35122">
        <ele>72</ele>
        <time>2012-07-29T16:14:02Z</time>
      </trkpt>
      <trkpt lat="44.78626" lon="-0.35119">
        <ele>73</ele>
        <time>2012-07-29T16:14:07Z</time>
      </trkpt>
      <trkpt lat="44.78618" lon="-0.3511">
        <ele>75</ele>
        <time>2012-07-29T16:14:13Z</time>
      </trkpt>
      <trkpt lat="44.78611" lon="-0.35099">
        <ele>77</ele>
        <time>2012-07-29T16:14:20Z</time>
      </trkpt>
      <trkpt lat="44.78603" lon="-0.35089">
        <ele>78</ele>
        <time>2012-07-29T16:14:28Z</time>
      </trkpt>
      <trkpt lat="44.78594" lon="-0.35079">
        <ele>80</ele>
        <time>2012-07-29T16:14:35Z</time>
      </trkpt>
      <trkpt lat="44.78587" lon="-0.35069">
        <ele>81</ele>
        <time>2012-07-29T16:14:43Z</time>
      </trkpt>
      <trkpt lat="44.78578" lon="-0.35062">
        <ele>82</ele>
        <time>2012-07-29T16:14:51Z</time>
      </trkpt>
      <trkpt lat="44.78568" lon="-0.35054">
        <ele>83</ele>
        <time>2012-07-29T16:15:03Z</time>
      </trkpt>
      <trkpt lat="44.78562" lon="-0.35042">
        <ele>84</ele>
        <time>2012-07-29T16:15:11Z</time>
      </trkpt>
      <trkpt lat="44.78554" lon="-0.35034">
        <ele>85</ele>
        <time>2012-07-29T16:15:20Z</time>
      </trkpt>
      <trkpt lat="44.78546" lon="-0.35026">
        <ele>86</ele>
        <time>2012-07-29T16:15:28Z</time>
      </trkpt>
      <trkpt lat="44.78537" lon="-0.35021">
        <ele>87</ele>
        <time>2012-07-29T16:15:36Z</time>
      </trkpt>
      <trkpt lat="44.7853" lon="-0.35011">
        <ele>88</ele>
        <time>2012-07-29T16:15:44Z</time>
      </trkpt>
      <trkpt lat="44.78525" lon="-0.34998">
        <ele>89</ele>
        <time>2012-07-29T16:15:53Z</time>
      </trkpt>
      <trkpt lat="44.78518" lon="-0.34989">
        <ele>89</ele>
        <time>2012-07-29T16:15:59Z</time>
      </trkpt>
      <trkpt lat="44.78509" lon="-0.34983">
        <ele>90</ele>
        <time>2012-07-29T16:16:06Z</time>
      </trkpt>
      <trkpt lat="44.785" lon="-0.34974">
        <ele>90</ele>
        <time>2012-07-29T16:16:14Z</time>
      </trkpt>
      <trkpt lat="44.78493" lon="-0.34966">
        <ele>91</ele>
        <time>2012-07-29T16:16:20Z</time>
      </trkpt>
      <trkpt lat="44.78484" lon="-0.34959">
        <ele>92</ele>
        <time>2012-07-29T16:16:27Z</time>
      </trkpt>
      <trkpt lat="44.78474" lon="-0.34952">
        <ele>92</ele>
        <time>2012-07-29T16:16:33Z</time>
      </trkpt>
      <trkpt lat="44.78466" lon="-0.34945">
        <ele>92</ele>
        <time>2012-07-29T16:16:38Z</time>
      </trkpt>
      <trkpt lat="44.78456" lon="-0.3494">
        <ele>93</ele>
        <time>2012-07-29T16:16:44Z</time>
      </trkpt>
      <trkpt lat="44.78447" lon="-0.34936">
        <ele>93</ele>
        <time>2012-07-29T16:16:49Z</time>
      </trkpt>
      <trkpt lat="44.78436" lon="-0.34932">
        <ele>93</ele>
        <time>2012-07-29T16:16:53Z</time>
      </trkpt>
      <trkpt lat="44.78425" lon="-0.34927">
        <ele>94</ele>
        <time>2012-07-29T16:16:56Z</time>
      </trkpt>
      <trkpt lat="44.78415" lon="-0.34923">
        <ele>95</ele>
        <time>2012-07-29T16:17:01Z</time>
      </trkpt>
      <trkpt lat="44.78404" lon="-0.34919">
        <ele>95</ele>
        <time>2012-07-29T16:17:07Z</time>
      </trkpt>
      <trkpt lat="44.78392" lon="-0.34916">
        <ele>96</ele>
        <time>2012-07-29T16:17:13Z</time>
      </trkpt>
      <trkpt lat="44.78381" lon="-0.34914">
        <ele>96</ele>
        <time>2012-07-29T16:17:17Z</time>
      </trkpt>
      <trkpt lat="44.78372" lon="-0.34911">
        <ele>96</ele>
        <time>2012-07-29T16:17:21Z</time>
      </trkpt>
      <trkpt lat="44.78362" lon="-0.34909">
        <ele>96</ele>
        <time>2012-07-29T16:17:25Z</time>
      </trkpt>
      <trkpt lat="44.78351" lon="-0.34905">
        <ele>96</ele>
        <time>2012-07-29T16:17:30Z</time>
      </trkpt>
      <trkpt lat="44.78341" lon="-0.34901">
        <ele>96</ele>
        <time>2012-07-29T16:17:35Z</time>
      </trkpt>
      <trkpt lat="44.78332" lon="-0.34897">
        <ele>96</ele>
        <time>2012-07-29T16:18:57Z</time>
      </trkpt>
      <trkpt lat="44.78321" lon="-0.34893">
        <ele>96</ele>
        <time>2012-07-29T16:19:04Z</time>
      </trkpt>
      <trkpt lat="44.78311" lon="-0.34887">
        <ele>96</ele>
        <time>2012-07-29T16:19:10Z</time>
      </trkpt>
      <trkpt lat="44.78302" lon="-0.34882">
        <ele>96</ele>
        <time>2012-07-29T16:19:14Z</time>
      </trkpt>
      <trkpt lat="44.78292" lon="-0.34875">
        <ele>96</ele>
        <time>2012-07-29T16:19:18Z</time>
      </trkpt>
      <trkpt lat="44.78283" lon="-0.3487">
        <ele>96</ele>
        <time>2012-07-29T16:19:21Z</time>
      </trkpt>
      <trkpt lat="44.78272" lon="-0.34865">
        <ele>96</ele>
        <time>2012-07-29T16:19:24Z</time>
      </trkpt>
      <trkpt lat="44.78264" lon="-0.34858">
        <ele>96</ele>
        <time>2012-07-29T16:19:27Z</time>
      </trkpt>
      <trkpt lat="44.78255" lon="-0.34853">
        <ele>96</ele>
        <time>2012-07-29T16:19:30Z</time>
      </trkpt>
      <trkpt lat="44.78246" lon="-0.34847">
        <ele>96</ele>
        <time>2012-07-29T16:19:33Z</time>
      </trkpt>
      <trkpt lat="44.78236" lon="-0.34845">
        <ele>97</ele>
        <time>2012-07-29T16:19:37Z</time>
      </trkpt>
      <trkpt lat="44.78228" lon="-0.34853">
        <ele>97</ele>
        <time>2012-07-29T16:19:41Z</time>
      </trkpt>
      <trkpt lat="44.78219" lon="-0.34861">
        <ele>97</ele>
        <time>2012-07-29T16:19:46Z</time>
      </trkpt>
      <trkpt lat="44.7821" lon="-0.34868">
        <ele>98</ele>
        <time>2012-07-29T16:19:50Z</time>
      </trkpt>
      <trkpt lat="44.782" lon="-0.34874">
        <ele>98</ele>
        <time>2012-07-29T16:19:54Z</time>
      </trkpt>
      <trkpt lat="44.7819" lon="-0.34882">
        <ele>98</ele>
        <time>2012-07-29T16:19:58Z</time>
      </trkpt>
      <trkpt lat="44.7818" lon="-0.34888">
        <ele>99</ele>
        <time>2012-07-29T16:20:02Z</time>
      </trkpt>
      <trkpt lat="44.78171" lon="-0.34892">
        <ele>99</ele>
        <time>2012-07-29T16:20:05Z</time>
      </trkpt>
      <trkpt lat="44.7816" lon="-0.349">
        <ele>100</ele>
        <time>2012-07-29T16:20:09Z</time>
      </trkpt>
      <trkpt lat="44.78151" lon="-0.34906">
        <ele>100</ele>
        <time>2012-07-29T16:20:12Z</time>
      </trkpt>
      <trkpt lat="44.78141" lon="-0.34912">
        <ele>100</ele>
        <time>2012-07-29T16:20:16Z</time>
      </trkpt>
      <trkpt lat="44.7813" lon="-0.34919">
        <ele>101</ele>
        <time>2012-07-29T16:20:20Z</time>
      </trkpt>
      <trkpt lat="44.78121" lon="-0.34926">
        <ele>101</ele>
        <time>2012-07-29T16:20:23Z</time>
      </trkpt>
      <trkpt lat="44.78113" lon="-0.34931">
        <ele>101</ele>
        <time>2012-07-29T16:20:26Z</time>
      </trkpt>
      <trkpt lat="44.78103" lon="-0.34936">
        <ele>101</ele>
        <time>2012-07-29T16:20:29Z</time>
      </trkpt>
      <trkpt lat="44.78094" lon="-0.34942">
        <ele>101</ele>
        <time>2012-07-29T16:20:32Z</time>
      </trkpt>
      <trkpt lat="44.78084" lon="-0.34948">
        <ele>101</ele>
        <time>2012-07-29T16:20:35Z</time>
      </trkpt>
      <trkpt lat="44.78074" lon="-0.34953">
        <ele>101</ele>
        <time>2012-07-29T16:20:38Z</time>
      </trkpt>
      <trkpt lat="44.78064" lon="-0.34957">
        <ele>101</ele>
        <time>2012-07-29T16:20:41Z</time>
      </trkpt>
      <trkpt lat="44.78053" lon="-0.34962">
        <ele>102</ele>
        <time>2012-07-29T16:20:44Z</time>
      </trkpt>
      <trkpt lat="44.78042" lon="-0.34965">
        <ele>102</ele>
        <time>2012-07-29T16:20:47Z</time>
      </trkpt>
      <trkpt lat="44.78031" lon="-0.34967">
        <ele>102</ele>
        <time>2012-07-29T16:20:50Z</time>
      </trkpt>
      <trkpt lat="44.7802" lon="-0.3497">
        <ele>102</ele>
        <time>2012-07-29T16:20:53Z</time>
      </trkpt>
      <trkpt lat="44.78008" lon="-0.34973">
        <ele>103</ele>
        <time>2012-07-29T16:20:56Z</time>
      </trkpt>
      <trkpt lat="44.77997" lon="-0.34976">
        <ele>103</ele>
        <time>2012-07-29T16:20:59Z</time>
      </trkpt>
      <trkpt lat="44.77985" lon="-0.3498">
        <ele>103</ele>
        <time>2012-07-29T16:21:02Z</time>
      </trkpt>
      <trkpt lat="44.77974" lon="-0.34983">
        <ele>103</ele>
        <time>2012-07-29T16:21:05Z</time>
      </trkpt>
      <trkpt lat="44.77962" lon="-0.34986">
        <ele>103</ele>
        <time>2012-07-29T16:21:08Z</time>
      </trkpt>
      <trkpt lat="44.77952" lon="-0.34991">
        <ele>103</ele>
        <time>2012-07-29T16:21:11Z</time>
      </trkpt>
      <trkpt lat="44.77942" lon="-0.35001">
        <ele>103</ele>
        <time>2012-07-29T16:21:14Z</time>
      </trkpt>
      <trkpt lat="44.77934" lon="-0.35013">
        <ele>103</ele>
        <time>2012-07-29T16:21:17Z</time>
      </trkpt>
      <trkpt lat="44.77928" lon="-0.35027">
        <ele>103</ele>
        <time>2012-07-29T16:21:20Z</time>
      </trkpt>
      <trkpt lat="44.77923" lon="-0.35041">
        <ele>103</ele>
        <time>2012-07-29T16:21:23Z</time>
      </trkpt>
      <trkpt lat="44.77915" lon="-0.35051">
        <ele>103</ele>
        <time>2012-07-29T16:21:26Z</time>
      </trkpt>
      <trkpt lat="44.77905" lon="-0.35057">
        <ele>103</ele>
        <time>2012-07-29T16:21:29Z</time>
      </trkpt>
      <trkpt lat="44.77893" lon="-0.35056">
        <ele>103</ele>
        <time>2012-07-29T16:21:32Z</time>
      </trkpt>
      <trkpt lat="44.77882" lon="-0.35052">
        <ele>103</ele>
        <time>2012-07-29T16:21:35Z</time>
      </trkpt>
      <trkpt lat="44.77871" lon="-0.35049">
        <ele>102</ele>
        <time>2012-07-29T16:21:38Z</time>
      </trkpt>
      <trkpt lat="44.7786" lon="-0.35045">
        <ele>102</ele>
        <time>2012-07-29T16:21:41Z</time>
      </trkpt>
      <trkpt lat="44.77849" lon="-0.35041">
        <ele>102</ele>
        <time>2012-07-29T16:21:44Z</time>
      </trkpt>
      <trkpt lat="44.77836" lon="-0.35038">
        <ele>102</ele>
        <time>2012-07-29T16:21:47Z</time>
      </trkpt>
      <trkpt lat="44.77823" lon="-0.35036">
        <ele>102</ele>
        <time>2012-07-29T16:21:50Z</time>
      </trkpt>
      <trkpt lat="44.77813" lon="-0.35035">
        <ele>102</ele>
        <time>2012-07-29T16:21:52Z</time>
      </trkpt>
      <trkpt lat="44.778" lon="-0.35035">
        <ele>102</ele>
        <time>2012-07-29T16:21:55Z</time>
      </trkpt>
      <trkpt lat="44.77787" lon="-0.35036">
        <ele>102</ele>
        <time>2012-07-29T16:21:58Z</time>
      </trkpt>
      <trkpt lat="44.77773" lon="-0.35038">
        <ele>101</ele>
        <time>2012-07-29T16:22:01Z</time>
      </trkpt>
      <trkpt lat="44.77765" lon="-0.35046">
        <ele>101</ele>
        <time>2012-07-29T16:22:05Z</time>
      </trkpt>
      <trkpt lat="44.77754" lon="-0.35047">
        <ele>101</ele>
        <time>2012-07-29T16:22:13Z</time>
      </trkpt>
      <trkpt lat="44.77744" lon="-0.3504">
        <ele>101</ele>
        <time>2012-07-29T16:22:16Z</time>
      </trkpt>
      <trkpt lat="44.77732" lon="-0.35031">
        <ele>100</ele>
        <time>2012-07-29T16:22:19Z</time>
      </trkpt>
      <trkpt lat="44.77724" lon="-0.35024">
        <ele>100</ele>
        <time>2012-07-29T16:22:21Z</time>
      </trkpt>
      <trkpt lat="44.77712" lon="-0.35015">
        <ele>100</ele>
        <time>2012-07-29T16:22:24Z</time>
      </trkpt>
      <trkpt lat="44.777" lon="-0.35005">
        <ele>100</ele>
        <time>2012-07-29T16:22:27Z</time>
      </trkpt>
      <trkpt lat="44.77692" lon="-0.35">
        <ele>99</ele>
        <time>2012-07-29T16:22:29Z</time>
      </trkpt>
      <trkpt lat="44.77683" lon="-0.34994">
        <ele>99</ele>
        <time>2012-07-29T16:22:31Z</time>
      </trkpt>
      <trkpt lat="44.77672" lon="-0.34988">
        <ele>98</ele>
        <time>2012-07-29T16:22:34Z</time>
      </trkpt>
      <trkpt lat="44.77663" lon="-0.34985">
        <ele>98</ele>
        <time>2012-07-29T16:22:37Z</time>
      </trkpt>
      <trkpt lat="44.77651" lon="-0.34982">
        <ele>97</ele>
        <time>2012-07-29T16:22:41Z</time>
      </trkpt>
      <trkpt lat="44.77642" lon="-0.34976">
        <ele>97</ele>
        <time>2012-07-29T16:22:45Z</time>
      </trkpt>
      <trkpt lat="44.77632" lon="-0.34976">
        <ele>96</ele>
        <time>2012-07-29T16:23:14Z</time>
      </trkpt>
      <trkpt lat="44.77631" lon="-0.34962">
        <ele>97</ele>
        <time>2012-07-29T16:26:38Z</time>
      </trkpt>
      <trkpt lat="44.77628" lon="-0.3495">
        <ele>97</ele>
        <time>2012-07-29T16:26:44Z</time>
      </trkpt>
      <trkpt lat="44.77619" lon="-0.34944">
        <ele>98</ele>
        <time>2012-07-29T16:26:54Z</time>
      </trkpt>
      <trkpt lat="44.7762" lon="-0.3493">
        <ele>98</ele>
        <time>2012-07-29T16:27:01Z</time>
      </trkpt>
      <trkpt lat="44.77622" lon="-0.34915">
        <ele>98</ele>
        <time>2012-07-29T16:27:07Z</time>
      </trkpt>
      <trkpt lat="44.77624" lon="-0.349">
        <ele>99</ele>
        <time>2012-07-29T16:27:12Z</time>
      </trkpt>
      <trkpt lat="44.77624" lon="-0.34884">
        <ele>99</ele>
        <time>2012-07-29T16:27:17Z</time>
      </trkpt>
      <trkpt lat="44.77624" lon="-0.34871">
        <ele>100</ele>
        <time>2012-07-29T16:27:21Z</time>
      </trkpt>
      <trkpt lat="44.77626" lon="-0.34856">
        <ele>100</ele>
        <time>2012-07-29T16:27:26Z</time>
      </trkpt>
      <trkpt lat="44.77628" lon="-0.34841">
        <ele>100</ele>
        <time>2012-07-29T16:27:31Z</time>
      </trkpt>
      <trkpt lat="44.77629" lon="-0.34826">
        <ele>101</ele>
        <time>2012-07-29T16:27:36Z</time>
      </trkpt>
      <trkpt lat="44.77629" lon="-0.34812">
        <ele>101</ele>
        <time>2012-07-29T16:27:40Z</time>
      </trkpt>
      <trkpt lat="44.77629" lon="-0.34798">
        <ele>101</ele>
        <time>2012-07-29T16:27:44Z</time>
      </trkpt>
      <trkpt lat="44.77628" lon="-0.34784">
        <ele>101</ele>
        <time>2012-07-29T16:27:48Z</time>
      </trkpt>
      <trkpt lat="44.77627" lon="-0.34768">
        <ele>102</ele>
        <time>2012-07-29T16:27:52Z</time>
      </trkpt>
      <trkpt lat="44.77625" lon="-0.3475">
        <ele>102</ele>
        <time>2012-07-29T16:27:56Z</time>
      </trkpt>
      <trkpt lat="44.77624" lon="-0.34734">
        <ele>102</ele>
        <time>2012-07-29T16:28:00Z</time>
      </trkpt>
      <trkpt lat="44.77621" lon="-0.34718">
        <ele>102</ele>
        <time>2012-07-29T16:28:04Z</time>
      </trkpt>
      <trkpt lat="44.77617" lon="-0.34702">
        <ele>102</ele>
        <time>2012-07-29T16:28:08Z</time>
      </trkpt>
      <trkpt lat="44.7761" lon="-0.34692">
        <ele>103</ele>
        <time>2012-07-29T16:28:11Z</time>
      </trkpt>
      <trkpt lat="44.77602" lon="-0.34681">
        <ele>103</ele>
        <time>2012-07-29T16:28:14Z</time>
      </trkpt>
      <trkpt lat="44.77595" lon="-0.34671">
        <ele>103</ele>
        <time>2012-07-29T16:28:17Z</time>
      </trkpt>
      <trkpt lat="44.77586" lon="-0.34662">
        <ele>103</ele>
        <time>2012-07-29T16:28:21Z</time>
      </trkpt>
      <trkpt lat="44.77576" lon="-0.34658">
        <ele>104</ele>
        <time>2012-07-29T16:28:25Z</time>
      </trkpt>
      <trkpt lat="44.77568" lon="-0.34647">
        <ele>104</ele>
        <time>2012-07-29T16:28:29Z</time>
      </trkpt>
      <trkpt lat="44.77561" lon="-0.34638">
        <ele>104</ele>
        <time>2012-07-29T16:28:32Z</time>
      </trkpt>
      <trkpt lat="44.7755" lon="-0.34631">
        <ele>104</ele>
        <time>2012-07-29T16:28:35Z</time>
      </trkpt>
      <trkpt lat="44.77538" lon="-0.34626">
        <ele>104</ele>
        <time>2012-07-29T16:28:38Z</time>
      </trkpt>
      <trkpt lat="44.77526" lon="-0.3462">
        <ele>104</ele>
        <time>2012-07-29T16:28:41Z</time>
      </trkpt>
      <trkpt lat="44.77514" lon="-0.34615">
        <ele>105</ele>
        <time>2012-07-29T16:28:44Z</time>
      </trkpt>
      <trkpt lat="44.77502" lon="-0.34609">
        <ele>105</ele>
        <time>2012-07-29T16:28:47Z</time>
      </trkpt>
      <trkpt lat="44.7749" lon="-0.34603">
        <ele>105</ele>
        <time>2012-07-29T16:28:50Z</time>
      </trkpt>
      <trkpt lat="44.77478" lon="-0.34598">
        <ele>105</ele>
        <time>2012-07-29T16:28:53Z</time>
      </trkpt>
      <trkpt lat="44.77469" lon="-0.34594">
        <ele>105</ele>
        <time>2012-07-29T16:28:55Z</time>
      </trkpt>
      <trkpt lat="44.77457" lon="-0.34589">
        <ele>105</ele>
        <time>2012-07-29T16:28:58Z</time>
      </trkpt>
      <trkpt lat="44.77444" lon="-0.34582">
        <ele>105</ele>
        <time>2012-07-29T16:29:01Z</time>
      </trkpt>
      <trkpt lat="44.7743" lon="-0.34579">
        <ele>105</ele>
        <time>2012-07-29T16:29:04Z</time>
      </trkpt>
      <trkpt lat="44.77418" lon="-0.3458">
        <ele>105</ele>
        <time>2012-07-29T16:29:07Z</time>
      </trkpt>
      <trkpt lat="44.77409" lon="-0.34583">
        <ele>105</ele>
        <time>2012-07-29T16:29:09Z</time>
      </trkpt>
      <trkpt lat="44.77398" lon="-0.34591">
        <ele>105</ele>
        <time>2012-07-29T16:29:12Z</time>
      </trkpt>
      <trkpt lat="44.77388" lon="-0.346">
        <ele>105</ele>
        <time>2012-07-29T16:29:15Z</time>
      </trkpt>
      <trkpt lat="44.77378" lon="-0.3461">
        <ele>105</ele>
        <time>2012-07-29T16:29:18Z</time>
      </trkpt>
      <trkpt lat="44.77369" lon="-0.3462">
        <ele>105</ele>
        <time>2012-07-29T16:29:21Z</time>
      </trkpt>
      <trkpt lat="44.7736" lon="-0.34632">
        <ele>104</ele>
        <time>2012-07-29T16:29:24Z</time>
      </trkpt>
      <trkpt lat="44.77355" lon="-0.34647">
        <ele>104</ele>
        <time>2012-07-29T16:29:27Z</time>
      </trkpt>
      <trkpt lat="44.77352" lon="-0.3466">
        <ele>104</ele>
        <time>2012-07-29T16:29:29Z</time>
      </trkpt>
      <trkpt lat="44.7734" lon="-0.34671">
        <ele>104</ele>
        <time>2012-07-29T16:29:32Z</time>
      </trkpt>
      <trkpt lat="44.77328" lon="-0.34662">
        <ele>104</ele>
        <time>2012-07-29T16:29:54Z</time>
      </trkpt>
      <trkpt lat="44.77322" lon="-0.34652">
        <ele>104</ele>
        <time>2012-07-29T16:30:13Z</time>
      </trkpt>
      <trkpt lat="44.7732" lon="-0.34638">
        <ele>104</ele>
        <time>2012-07-29T16:31:40Z</time>
      </trkpt>
      <trkpt lat="44.77313" lon="-0.34628">
        <ele>104</ele>
        <time>2012-07-29T16:31:45Z</time>
      </trkpt>
      <trkpt lat="44.77306" lon="-0.34617">
        <ele>105</ele>
        <time>2012-07-29T16:31:48Z</time>
      </trkpt>
      <trkpt lat="44.77299" lon="-0.34603">
        <ele>105</ele>
        <time>2012-07-29T16:31:51Z</time>
      </trkpt>
      <trkpt lat="44.77292" lon="-0.34594">
        <ele>105</ele>
        <time>2012-07-29T16:31:54Z</time>
      </trkpt>
      <trkpt lat="44.77282" lon="-0.3459">
        <ele>105</ele>
        <time>2012-07-29T16:31:57Z</time>
      </trkpt>
      <trkpt lat="44.77272" lon="-0.34587">
        <ele>105</ele>
        <time>2012-07-29T16:32:00Z</time>
      </trkpt>
      <trkpt lat="44.77262" lon="-0.34582">
        <ele>105</ele>
        <time>2012-07-29T16:32:03Z</time>
      </trkpt>
      <trkpt lat="44.77253" lon="-0.34574">
        <ele>105</ele>
        <time>2012-07-29T16:32:06Z</time>
      </trkpt>
      <trkpt lat="44.77242" lon="-0.34567">
        <ele>105</ele>
        <time>2012-07-29T16:32:09Z</time>
      </trkpt>
      <trkpt lat="44.77232" lon="-0.34562">
        <ele>105</ele>
        <time>2012-07-29T16:32:12Z</time>
      </trkpt>
      <trkpt lat="44.77221" lon="-0.34556">
        <ele>105</ele>
        <time>2012-07-29T16:32:15Z</time>
      </trkpt>
      <trkpt lat="44.7721" lon="-0.34548">
        <ele>105</ele>
        <time>2012-07-29T16:32:18Z</time>
      </trkpt>
      <trkpt lat="44.77201" lon="-0.34544">
        <ele>105</ele>
        <time>2012-07-29T16:32:20Z</time>
      </trkpt>
      <trkpt lat="44.77189" lon="-0.34536">
        <ele>105</ele>
        <time>2012-07-29T16:32:23Z</time>
      </trkpt>
      <trkpt lat="44.77176" lon="-0.34529">
        <ele>105</ele>
        <time>2012-07-29T16:32:26Z</time>
      </trkpt>
      <trkpt lat="44.77167" lon="-0.34523">
        <ele>105</ele>
        <time>2012-07-29T16:32:28Z</time>
      </trkpt>
      <trkpt lat="44.77153" lon="-0.34515">
        <ele>105</ele>
        <time>2012-07-29T16:32:31Z</time>
      </trkpt>
      <trkpt lat="44.77144" lon="-0.3451">
        <ele>105</ele>
        <time>2012-07-29T16:32:33Z</time>
      </trkpt>
      <trkpt lat="44.77135" lon="-0.34503">
        <ele>105</ele>
        <time>2012-07-29T16:32:35Z</time>
      </trkpt>
      <trkpt lat="44.77126" lon="-0.34498">
        <ele>105</ele>
        <time>2012-07-29T16:32:37Z</time>
      </trkpt>
      <trkpt lat="44.77117" lon="-0.34493">
        <ele>105</ele>
        <time>2012-07-29T16:32:39Z</time>
      </trkpt>
      <trkpt lat="44.77108" lon="-0.34487">
        <ele>105</ele>
        <time>2012-07-29T16:32:41Z</time>
      </trkpt>
      <trkpt lat="44.77099" lon="-0.34484">
        <ele>105</ele>
        <time>2012-07-29T16:32:43Z</time>
      </trkpt>
      <trkpt lat="44.77089" lon="-0.34478">
        <ele>105</ele>
        <time>2012-07-29T16:32:45Z</time>
      </trkpt>
      <trkpt lat="44.7708" lon="-0.34473">
        <ele>105</ele>
        <time>2012-07-29T16:32:47Z</time>
      </trkpt>
      <trkpt lat="44.77071" lon="-0.34468">
        <ele>105</ele>
        <time>2012-07-29T16:32:49Z</time>
      </trkpt>
      <trkpt lat="44.77061" lon="-0.34462">
        <ele>105</ele>
        <time>2012-07-29T16:32:51Z</time>
      </trkpt>
      <trkpt lat="44.77052" lon="-0.34458">
        <ele>105</ele>
        <time>2012-07-29T16:32:53Z</time>
      </trkpt>
      <trkpt lat="44.77043" lon="-0.34453">
        <ele>105</ele>
        <time>2012-07-29T16:32:55Z</time>
      </trkpt>
      <trkpt lat="44.77034" lon="-0.34449">
        <ele>105</ele>
        <time>2012-07-29T16:32:57Z</time>
      </trkpt>
      <trkpt lat="44.77025" lon="-0.34445">
        <ele>105</ele>
        <time>2012-07-29T16:32:59Z</time>
      </trkpt>
      <trkpt lat="44.77012" lon="-0.3444">
        <ele>105</ele>
        <time>2012-07-29T16:33:02Z</time>
      </trkpt>
      <trkpt lat="44.77002" lon="-0.34438">
        <ele>105</ele>
        <time>2012-07-29T16:33:04Z</time>
      </trkpt>
      <trkpt lat="44.76993" lon="-0.34434">
        <ele>105</ele>
        <time>2012-07-29T16:33:06Z</time>
      </trkpt>
      <trkpt lat="44.76984" lon="-0.34431">
        <ele>105</ele>
        <time>2012-07-29T16:33:08Z</time>
      </trkpt>
      <trkpt lat="44.76971" lon="-0.34426">
        <ele>105</ele>
        <time>2012-07-29T16:33:11Z</time>
      </trkpt>
      <trkpt lat="44.76961" lon="-0.34422">
        <ele>104</ele>
        <time>2012-07-29T16:33:13Z</time>
      </trkpt>
      <trkpt lat="44.76952" lon="-0.34416">
        <ele>104</ele>
        <time>2012-07-29T16:33:15Z</time>
      </trkpt>
      <trkpt lat="44.7694" lon="-0.34408">
        <ele>104</ele>
        <time>2012-07-29T16:33:18Z</time>
      </trkpt>
      <trkpt lat="44.76931" lon="-0.34402">
        <ele>103</ele>
        <time>2012-07-29T16:33:20Z</time>
      </trkpt>
      <trkpt lat="44.76922" lon="-0.34396">
        <ele>103</ele>
        <time>2012-07-29T16:33:22Z</time>
      </trkpt>
      <trkpt lat="44.76913" lon="-0.34389">
        <ele>103</ele>
        <time>2012-07-29T16:33:24Z</time>
      </trkpt>
      <trkpt lat="44.76903" lon="-0.34383">
        <ele>103</ele>
        <time>2012-07-29T16:33:26Z</time>
      </trkpt>
      <trkpt lat="44.76894" lon="-0.34377">
        <ele>103</ele>
        <time>2012-07-29T16:33:28Z</time>
      </trkpt>
      <trkpt lat="44.76884" lon="-0.3437">
        <ele>103</ele>
        <time>2012-07-29T16:33:30Z</time>
      </trkpt>
      <trkpt lat="44.76874" lon="-0.34363">
        <ele>103</ele>
        <time>2012-07-29T16:33:32Z</time>
      </trkpt>
      <trkpt lat="44.76864" lon="-0.34357">
        <ele>103</ele>
        <time>2012-07-29T16:33:34Z</time>
      </trkpt>
      <trkpt lat="44.76853" lon="-0.3435">
        <ele>103</ele>
        <time>2012-07-29T16:33:36Z</time>
      </trkpt>
      <trkpt lat="44.76843" lon="-0.34344">
        <ele>102</ele>
        <time>2012-07-29T16:33:38Z</time>
      </trkpt>
      <trkpt lat="44.76833" lon="-0.34337">
        <ele>102</ele>
        <time>2012-07-29T16:33:40Z</time>
      </trkpt>
      <trkpt lat="44.76823" lon="-0.34331">
        <ele>103</ele>
        <time>2012-07-29T16:33:42Z</time>
      </trkpt>
      <trkpt lat="44.76813" lon="-0.34325">
        <ele>103</ele>
        <time>2012-07-29T16:33:44Z</time>
      </trkpt>
      <trkpt lat="44.76803" lon="-0.34318">
        <ele>103</ele>
        <time>2012-07-29T16:33:46Z</time>
      </trkpt>
      <trkpt lat="44.76794" lon="-0.34312">
        <ele>103</ele>
        <time>2012-07-29T16:33:48Z</time>
      </trkpt>
      <trkpt lat="44.76785" lon="-0.34306">
        <ele>103</ele>
        <time>2012-07-29T16:33:50Z</time>
      </trkpt>
      <trkpt lat="44.76773" lon="-0.34297">
        <ele>103</ele>
        <time>2012-07-29T16:33:53Z</time>
      </trkpt>
      <trkpt lat="44.7676" lon="-0.3429">
        <ele>103</ele>
        <time>2012-07-29T16:33:56Z</time>
      </trkpt>
      <trkpt lat="44.76748" lon="-0.34282">
        <ele>103</ele>
        <time>2012-07-29T16:33:59Z</time>
      </trkpt>
      <trkpt lat="44.76737" lon="-0.34275">
        <ele>103</ele>
        <time>2012-07-29T16:34:02Z</time>
      </trkpt>
      <trkpt lat="44.76727" lon="-0.34269">
        <ele>103</ele>
        <time>2012-07-29T16:34:05Z</time>
      </trkpt>
      <trkpt lat="44.76717" lon="-0.34262">
        <ele>103</ele>
        <time>2012-07-29T16:34:08Z</time>
      </trkpt>
      <trkpt lat="44.76708" lon="-0.34256">
        <ele>103</ele>
        <time>2012-07-29T16:34:11Z</time>
      </trkpt>
      <trkpt lat="44.76699" lon="-0.3425">
        <ele>103</ele>
        <time>2012-07-29T16:34:14Z</time>
      </trkpt>
      <trkpt lat="44.76698" lon="-0.34237">
        <ele>103</ele>
        <time>2012-07-29T16:34:17Z</time>
      </trkpt>
      <trkpt lat="44.76705" lon="-0.3422">
        <ele>102</ele>
        <time>2012-07-29T16:34:20Z</time>
      </trkpt>
      <trkpt lat="44.76708" lon="-0.34208">
        <ele>102</ele>
        <time>2012-07-29T16:34:22Z</time>
      </trkpt>
      <trkpt lat="44.76712" lon="-0.34194">
        <ele>101</ele>
        <time>2012-07-29T16:34:24Z</time>
      </trkpt>
      <trkpt lat="44.76717" lon="-0.34179">
        <ele>101</ele>
        <time>2012-07-29T16:34:26Z</time>
      </trkpt>
      <trkpt lat="44.76721" lon="-0.34165">
        <ele>100</ele>
        <time>2012-07-29T16:34:28Z</time>
      </trkpt>
      <trkpt lat="44.76725" lon="-0.34152">
        <ele>99</ele>
        <time>2012-07-29T16:34:30Z</time>
      </trkpt>
      <trkpt lat="44.7673" lon="-0.34138">
        <ele>98</ele>
        <time>2012-07-29T16:34:33Z</time>
      </trkpt>
      <trkpt lat="44.76734" lon="-0.34124">
        <ele>98</ele>
        <time>2012-07-29T16:34:36Z</time>
      </trkpt>
      <trkpt lat="44.76739" lon="-0.34107">
        <ele>97</ele>
        <time>2012-07-29T16:34:39Z</time>
      </trkpt>
      <trkpt lat="44.76742" lon="-0.34093">
        <ele>96</ele>
        <time>2012-07-29T16:34:41Z</time>
      </trkpt>
      <trkpt lat="44.76744" lon="-0.34079">
        <ele>96</ele>
        <time>2012-07-29T16:34:43Z</time>
      </trkpt>
      <trkpt lat="44.76748" lon="-0.34062">
        <ele>95</ele>
        <time>2012-07-29T16:34:45Z</time>
      </trkpt>
      <trkpt lat="44.7675" lon="-0.34044">
        <ele>94</ele>
        <time>2012-07-29T16:34:47Z</time>
      </trkpt>
      <trkpt lat="44.76751" lon="-0.34025">
        <ele>92</ele>
        <time>2012-07-29T16:34:49Z</time>
      </trkpt>
      <trkpt lat="44.76752" lon="-0.34008">
        <ele>91</ele>
        <time>2012-07-29T16:34:51Z</time>
      </trkpt>
      <trkpt lat="44.76753" lon="-0.33993">
        <ele>90</ele>
        <time>2012-07-29T16:34:53Z</time>
      </trkpt>
      <trkpt lat="44.76753" lon="-0.33975">
        <ele>88</ele>
        <time>2012-07-29T16:34:56Z</time>
      </trkpt>
      <trkpt lat="44.76746" lon="-0.33964">
        <ele>86</ele>
        <time>2012-07-29T16:35:01Z</time>
      </trkpt>
      <trkpt lat="44.76736" lon="-0.33963">
        <ele>87</ele>
        <time>2012-07-29T16:35:05Z</time>
      </trkpt>
      <trkpt lat="44.76727" lon="-0.33962">
        <ele>87</ele>
        <time>2012-07-29T16:35:09Z</time>
      </trkpt>
      <trkpt lat="44.76718" lon="-0.33958">
        <ele>86</ele>
        <time>2012-07-29T16:35:12Z</time>
      </trkpt>
      <trkpt lat="44.76705" lon="-0.33955">
        <ele>86</ele>
        <time>2012-07-29T16:35:16Z</time>
      </trkpt>
      <trkpt lat="44.76693" lon="-0.33953">
        <ele>86</ele>
        <time>2012-07-29T16:35:20Z</time>
      </trkpt>
      <trkpt lat="44.76682" lon="-0.33951">
        <ele>86</ele>
        <time>2012-07-29T16:35:23Z</time>
      </trkpt>
      <trkpt lat="44.76672" lon="-0.33948">
        <ele>86</ele>
        <time>2012-07-29T16:35:26Z</time>
      </trkpt>
      <trkpt lat="44.76662" lon="-0.33946">
        <ele>87</ele>
        <time>2012-07-29T16:35:29Z</time>
      </trkpt>
      <trkpt lat="44.76652" lon="-0.33944">
        <ele>87</ele>
        <time>2012-07-29T16:35:32Z</time>
      </trkpt>
      <trkpt lat="44.7664" lon="-0.33942">
        <ele>87</ele>
        <time>2012-07-29T16:35:35Z</time>
      </trkpt>
      <trkpt lat="44.76629" lon="-0.33939">
        <ele>87</ele>
        <time>2012-07-29T16:35:38Z</time>
      </trkpt>
      <trkpt lat="44.76618" lon="-0.33934">
        <ele>87</ele>
        <time>2012-07-29T16:35:41Z</time>
      </trkpt>
      <trkpt lat="44.76608" lon="-0.33928">
        <ele>86</ele>
        <time>2012-07-29T16:35:44Z</time>
      </trkpt>
      <trkpt lat="44.76596" lon="-0.33921">
        <ele>86</ele>
        <time>2012-07-29T16:35:47Z</time>
      </trkpt>
      <trkpt lat="44.76585" lon="-0.33916">
        <ele>85</ele>
        <time>2012-07-29T16:35:50Z</time>
      </trkpt>
      <trkpt lat="44.76574" lon="-0.33909">
        <ele>84</ele>
        <time>2012-07-29T16:35:53Z</time>
      </trkpt>
      <trkpt lat="44.76562" lon="-0.33902">
        <ele>84</ele>
        <time>2012-07-29T16:35:56Z</time>
      </trkpt>
      <trkpt lat="44.76551" lon="-0.33895">
        <ele>83</ele>
        <time>2012-07-29T16:35:59Z</time>
      </trkpt>
      <trkpt lat="44.76542" lon="-0.3389">
        <ele>83</ele>
        <time>2012-07-29T16:36:02Z</time>
      </trkpt>
      <trkpt lat="44.76533" lon="-0.33886">
        <ele>83</ele>
        <time>2012-07-29T16:36:06Z</time>
      </trkpt>
      <trkpt lat="44.76524" lon="-0.33876">
        <ele>82</ele>
        <time>2012-07-29T16:36:20Z</time>
      </trkpt>
      <trkpt lat="44.76529" lon="-0.33862">
        <ele>80</ele>
        <time>2012-07-29T16:36:28Z</time>
      </trkpt>
      <trkpt lat="44.76538" lon="-0.3385">
        <ele>79</ele>
        <time>2012-07-29T16:36:32Z</time>
      </trkpt>
      <trkpt lat="44.76542" lon="-0.33836">
        <ele>78</ele>
        <time>2012-07-29T16:36:36Z</time>
      </trkpt>
      <trkpt lat="44.76535" lon="-0.33824">
        <ele>77</ele>
        <time>2012-07-29T16:36:40Z</time>
      </trkpt>
      <trkpt lat="44.76526" lon="-0.3382">
        <ele>77</ele>
        <time>2012-07-29T16:36:44Z</time>
      </trkpt>
      <trkpt lat="44.76516" lon="-0.33822">
        <ele>77</ele>
        <time>2012-07-29T16:36:49Z</time>
      </trkpt>
      <trkpt lat="44.76506" lon="-0.33822">
        <ele>77</ele>
        <time>2012-07-29T16:36:53Z</time>
      </trkpt>
      <trkpt lat="44.76494" lon="-0.33823">
        <ele>76</ele>
        <time>2012-07-29T16:36:57Z</time>
      </trkpt>
      <trkpt lat="44.76485" lon="-0.33818">
        <ele>76</ele>
        <time>2012-07-29T16:37:01Z</time>
      </trkpt>
      <trkpt lat="44.76472" lon="-0.3381">
        <ele>75</ele>
        <time>2012-07-29T16:37:07Z</time>
      </trkpt>
      <trkpt lat="44.7646" lon="-0.33808">
        <ele>74</ele>
        <time>2012-07-29T16:37:10Z</time>
      </trkpt>
      <trkpt lat="44.76451" lon="-0.33814">
        <ele>75</ele>
        <time>2012-07-29T16:37:14Z</time>
      </trkpt>
      <trkpt lat="44.76438" lon="-0.33823">
        <ele>75</ele>
        <time>2012-07-29T16:37:19Z</time>
      </trkpt>
      <trkpt lat="44.76427" lon="-0.33832">
        <ele>74</ele>
        <time>2012-07-29T16:37:22Z</time>
      </trkpt>
      <trkpt lat="44.76417" lon="-0.33835">
        <ele>74</ele>
        <time>2012-07-29T16:37:25Z</time>
      </trkpt>
      <trkpt lat="44.76407" lon="-0.33838">
        <ele>73</ele>
        <time>2012-07-29T16:37:29Z</time>
      </trkpt>
      <trkpt lat="44.76394" lon="-0.33846">
        <ele>72</ele>
        <time>2012-07-29T16:37:33Z</time>
      </trkpt>
      <trkpt lat="44.76383" lon="-0.33856">
        <ele>72</ele>
        <time>2012-07-29T16:37:36Z</time>
      </trkpt>
      <trkpt lat="44.76375" lon="-0.33865">
        <ele>72</ele>
        <time>2012-07-29T16:37:38Z</time>
      </trkpt>
      <trkpt lat="44.76366" lon="-0.33873">
        <ele>72</ele>
        <time>2012-07-29T16:37:40Z</time>
      </trkpt>
      <trkpt lat="44.76355" lon="-0.33883">
        <ele>72</ele>
        <time>2012-07-29T16:37:43Z</time>
      </trkpt>
      <trkpt lat="44.76343" lon="-0.33893">
        <ele>72</ele>
        <time>2012-07-29T16:37:46Z</time>
      </trkpt>
      <trkpt lat="44.76332" lon="-0.33902">
        <ele>71</ele>
        <time>2012-07-29T16:37:49Z</time>
      </trkpt>
      <trkpt lat="44.76321" lon="-0.33911">
        <ele>70</ele>
        <time>2012-07-29T16:37:52Z</time>
      </trkpt>
      <trkpt lat="44.76311" lon="-0.3392">
        <ele>69</ele>
        <time>2012-07-29T16:37:55Z</time>
      </trkpt>
      <trkpt lat="44.76302" lon="-0.33927">
        <ele>70</ele>
        <time>2012-07-29T16:37:57Z</time>
      </trkpt>
      <trkpt lat="44.76294" lon="-0.33934">
        <ele>70</ele>
        <time>2012-07-29T16:37:59Z</time>
      </trkpt>
      <trkpt lat="44.76286" lon="-0.33943">
        <ele>69</ele>
        <time>2012-07-29T16:38:01Z</time>
      </trkpt>
      <trkpt lat="44.76278" lon="-0.33951">
        <ele>69</ele>
        <time>2012-07-29T16:38:03Z</time>
      </trkpt>
      <trkpt lat="44.7627" lon="-0.33958">
        <ele>69</ele>
        <time>2012-07-29T16:38:05Z</time>
      </trkpt>
      <trkpt lat="44.76259" lon="-0.33971">
        <ele>69</ele>
        <time>2012-07-29T16:38:08Z</time>
      </trkpt>
      <trkpt lat="44.7625" lon="-0.33976">
        <ele>68</ele>
        <time>2012-07-29T16:38:12Z</time>
      </trkpt>
      <trkpt lat="44.7624" lon="-0.3396">
        <ele>68</ele>
        <time>2012-07-29T16:41:54Z</time>
      </trkpt>
      <trkpt lat="44.76234" lon="-0.33949">
        <ele>68</ele>
        <time>2012-07-29T16:41:57Z</time>
      </trkpt>
      <trkpt lat="44.76227" lon="-0.33938">
        <ele>68</ele>
        <time>2012-07-29T16:42:02Z</time>
      </trkpt>
      <trkpt lat="44.76222" lon="-0.33927">
        <ele>68</ele>
        <time>2012-07-29T16:42:06Z</time>
      </trkpt>
      <trkpt lat="44.76214" lon="-0.33916">
        <ele>68</ele>
        <time>2012-07-29T16:42:11Z</time>
      </trkpt>
      <trkpt lat="44.76208" lon="-0.33902">
        <ele>69</ele>
        <time>2012-07-29T16:42:18Z</time>
      </trkpt>
      <trkpt lat="44.76206" lon="-0.33889">
        <ele>70</ele>
        <time>2012-07-29T16:42:24Z</time>
      </trkpt>
      <trkpt lat="44.76199" lon="-0.33879">
        <ele>71</ele>
        <time>2012-07-29T16:42:32Z</time>
      </trkpt>
      <trkpt lat="44.7619" lon="-0.33873">
        <ele>72</ele>
        <time>2012-07-29T16:42:39Z</time>
      </trkpt>
      <trkpt lat="44.76183" lon="-0.33861">
        <ele>72</ele>
        <time>2012-07-29T16:42:45Z</time>
      </trkpt>
      <trkpt lat="44.76178" lon="-0.33849">
        <ele>73</ele>
        <time>2012-07-29T16:42:51Z</time>
      </trkpt>
      <trkpt lat="44.76175" lon="-0.33835">
        <ele>74</ele>
        <time>2012-07-29T16:42:58Z</time>
      </trkpt>
      <trkpt lat="44.76176" lon="-0.33822">
        <ele>74</ele>
        <time>2012-07-29T16:43:05Z</time>
      </trkpt>
      <trkpt lat="44.76171" lon="-0.33809">
        <ele>75</ele>
        <time>2012-07-29T16:43:11Z</time>
      </trkpt>
      <trkpt lat="44.76163" lon="-0.338">
        <ele>76</ele>
        <time>2012-07-29T16:43:15Z</time>
      </trkpt>
      <trkpt lat="44.76165" lon="-0.33787">
        <ele>76</ele>
        <time>2012-07-29T16:43:21Z</time>
      </trkpt>
      <trkpt lat="44.76162" lon="-0.33772">
        <ele>76</ele>
        <time>2012-07-29T16:43:27Z</time>
      </trkpt>
      <trkpt lat="44.76154" lon="-0.33762">
        <ele>77</ele>
        <time>2012-07-29T16:43:34Z</time>
      </trkpt>
      <trkpt lat="44.76146" lon="-0.33754">
        <ele>78</ele>
        <time>2012-07-29T16:43:40Z</time>
      </trkpt>
      <trkpt lat="44.76136" lon="-0.33753">
        <ele>79</ele>
        <time>2012-07-29T16:43:49Z</time>
      </trkpt>
      <trkpt lat="44.76126" lon="-0.33752">
        <ele>81</ele>
        <time>2012-07-29T16:43:58Z</time>
      </trkpt>
      <trkpt lat="44.76116" lon="-0.33751">
        <ele>82</ele>
        <time>2012-07-29T16:44:05Z</time>
      </trkpt>
      <trkpt lat="44.76106" lon="-0.33753">
        <ele>84</ele>
        <time>2012-07-29T16:44:16Z</time>
      </trkpt>
      <trkpt lat="44.76097" lon="-0.33755">
        <ele>86</ele>
        <time>2012-07-29T16:44:23Z</time>
      </trkpt>
      <trkpt lat="44.76087" lon="-0.33752">
        <ele>88</ele>
        <time>2012-07-29T16:44:32Z</time>
      </trkpt>
      <trkpt lat="44.76076" lon="-0.33752">
        <ele>89</ele>
        <time>2012-07-29T16:44:43Z</time>
      </trkpt>
      <trkpt lat="44.76067" lon="-0.33752">
        <ele>91</ele>
        <time>2012-07-29T16:44:49Z</time>
      </trkpt>
      <trkpt lat="44.76057" lon="-0.33752">
        <ele>92</ele>
        <time>2012-07-29T16:44:57Z</time>
      </trkpt>
      <trkpt lat="44.76048" lon="-0.33758">
        <ele>94</ele>
        <time>2012-07-29T16:45:05Z</time>
      </trkpt>
      <trkpt lat="44.76039" lon="-0.33762">
        <ele>94</ele>
        <time>2012-07-29T16:45:14Z</time>
      </trkpt>
      <trkpt lat="44.76028" lon="-0.33765">
        <ele>95</ele>
        <time>2012-07-29T16:45:22Z</time>
      </trkpt>
      <trkpt lat="44.76019" lon="-0.33763">
        <ele>96</ele>
        <time>2012-07-29T16:45:30Z</time>
      </trkpt>
      <trkpt lat="44.76009" lon="-0.33763">
        <ele>96</ele>
        <time>2012-07-29T16:45:39Z</time>
      </trkpt>
      <trkpt lat="44.75998" lon="-0.33763">
        <ele>97</ele>
        <time>2012-07-29T16:45:47Z</time>
      </trkpt>
      <trkpt lat="44.75989" lon="-0.33764">
        <ele>97</ele>
        <time>2012-07-29T16:45:55Z</time>
      </trkpt>
      <trkpt lat="44.75978" lon="-0.33767">
        <ele>97</ele>
        <time>2012-07-29T16:46:02Z</time>
      </trkpt>
      <trkpt lat="44.75968" lon="-0.33769">
        <ele>98</ele>
        <time>2012-07-29T16:46:09Z</time>
      </trkpt>
      <trkpt lat="44.75957" lon="-0.33772">
        <ele>98</ele>
        <time>2012-07-29T16:46:15Z</time>
      </trkpt>
      <trkpt lat="44.75947" lon="-0.33773">
        <ele>98</ele>
        <time>2012-07-29T16:46:21Z</time>
      </trkpt>
      <trkpt lat="44.75937" lon="-0.3377">
        <ele>97</ele>
        <time>2012-07-29T16:46:26Z</time>
      </trkpt>
      <trkpt lat="44.75936" lon="-0.33756">
        <ele>97</ele>
        <time>2012-07-29T16:46:32Z</time>
      </trkpt>
      <trkpt lat="44.75941" lon="-0.33743">
        <ele>98</ele>
        <time>2012-07-29T16:46:37Z</time>
      </trkpt>
      <trkpt lat="44.75939" lon="-0.3373">
        <ele>98</ele>
        <time>2012-07-29T16:46:42Z</time>
      </trkpt>
      <trkpt lat="44.75936" lon="-0.33717">
        <ele>98</ele>
        <time>2012-07-29T16:46:47Z</time>
      </trkpt>
      <trkpt lat="44.75936" lon="-0.33701">
        <ele>98</ele>
        <time>2012-07-29T16:46:53Z</time>
      </trkpt>
      <trkpt lat="44.75936" lon="-0.33686">
        <ele>98</ele>
        <time>2012-07-29T16:46:58Z</time>
      </trkpt>
      <trkpt lat="44.75937" lon="-0.33673">
        <ele>99</ele>
        <time>2012-07-29T16:47:16Z</time>
      </trkpt>
      <trkpt lat="44.75939" lon="-0.33659">
        <ele>99</ele>
        <time>2012-07-29T16:47:22Z</time>
      </trkpt>
      <trkpt lat="44.7594" lon="-0.33646">
        <ele>99</ele>
        <time>2012-07-29T16:47:26Z</time>
      </trkpt>
      <trkpt lat="44.75941" lon="-0.33632">
        <ele>100</ele>
        <time>2012-07-29T16:47:30Z</time>
      </trkpt>
      <trkpt lat="44.75943" lon="-0.33617">
        <ele>100</ele>
        <time>2012-07-29T16:47:34Z</time>
      </trkpt>
      <trkpt lat="44.75944" lon="-0.336">
        <ele>100</ele>
        <time>2012-07-29T16:47:38Z</time>
      </trkpt>
      <trkpt lat="44.75944" lon="-0.33584">
        <ele>101</ele>
        <time>2012-07-29T16:47:42Z</time>
      </trkpt>
      <trkpt lat="44.75945" lon="-0.33568">
        <ele>101</ele>
        <time>2012-07-29T16:47:46Z</time>
      </trkpt>
      <trkpt lat="44.75946" lon="-0.33555">
        <ele>101</ele>
        <time>2012-07-29T16:47:49Z</time>
      </trkpt>
      <trkpt lat="44.75947" lon="-0.33541">
        <ele>101</ele>
        <time>2012-07-29T16:47:52Z</time>
      </trkpt>
      <trkpt lat="44.75948" lon="-0.33527">
        <ele>101</ele>
        <time>2012-07-29T16:47:55Z</time>
      </trkpt>
      <trkpt lat="44.7595" lon="-0.33513">
        <ele>101</ele>
        <time>2012-07-29T16:47:58Z</time>
      </trkpt>
      <trkpt lat="44.75951" lon="-0.33499">
        <ele>101</ele>
        <time>2012-07-29T16:48:01Z</time>
      </trkpt>
      <trkpt lat="44.75953" lon="-0.33483">
        <ele>101</ele>
        <time>2012-07-29T16:48:05Z</time>
      </trkpt>
      <trkpt lat="44.75954" lon="-0.33467">
        <ele>102</ele>
        <time>2012-07-29T16:48:09Z</time>
      </trkpt>
      <trkpt lat="44.75955" lon="-0.33453">
        <ele>102</ele>
        <time>2012-07-29T16:48:12Z</time>
      </trkpt>
      <trkpt lat="44.75955" lon="-0.33436">
        <ele>102</ele>
        <time>2012-07-29T16:48:16Z</time>
      </trkpt>
      <trkpt lat="44.75957" lon="-0.3342">
        <ele>103</ele>
        <time>2012-07-29T16:48:20Z</time>
      </trkpt>
      <trkpt lat="44.75957" lon="-0.33405">
        <ele>103</ele>
        <time>2012-07-29T16:48:24Z</time>
      </trkpt>
      <trkpt lat="44.75956" lon="-0.33388">
        <ele>104</ele>
        <time>2012-07-29T16:48:28Z</time>
      </trkpt>
      <trkpt lat="44.75955" lon="-0.33374">
        <ele>104</ele>
        <time>2012-07-29T16:48:31Z</time>
      </trkpt>
      <trkpt lat="44.75955" lon="-0.33359">
        <ele>104</ele>
        <time>2012-07-29T16:48:35Z</time>
      </trkpt>
      <trkpt lat="44.75955" lon="-0.33346">
        <ele>104</ele>
        <time>2012-07-29T16:48:38Z</time>
      </trkpt>
      <trkpt lat="44.75955" lon="-0.33328">
        <ele>104</ele>
        <time>2012-07-29T16:48:42Z</time>
      </trkpt>
      <trkpt lat="44.75955" lon="-0.33312">
        <ele>105</ele>
        <time>2012-07-29T16:48:46Z</time>
      </trkpt>
      <trkpt lat="44.75954" lon="-0.33296">
        <ele>105</ele>
        <time>2012-07-29T16:48:50Z</time>
      </trkpt>
      <trkpt lat="44.75955" lon="-0.3328">
        <ele>105</ele>
        <time>2012-07-29T16:48:54Z</time>
      </trkpt>
      <trkpt lat="44.75953" lon="-0.33264">
        <ele>105</ele>
        <time>2012-07-29T16:48:58Z</time>
      </trkpt>
      <trkpt lat="44.7595" lon="-0.33248">
        <ele>105</ele>
        <time>2012-07-29T16:49:02Z</time>
      </trkpt>
      <trkpt lat="44.75945" lon="-0.33234">
        <ele>105</ele>
        <time>2012-07-29T16:49:06Z</time>
      </trkpt>
      <trkpt lat="44.7594" lon="-0.33219">
        <ele>105</ele>
        <time>2012-07-29T16:49:10Z</time>
      </trkpt>
      <trkpt lat="44.75936" lon="-0.33204">
        <ele>105</ele>
        <time>2012-07-29T16:49:14Z</time>
      </trkpt>
      <trkpt lat="44.75932" lon="-0.33187">
        <ele>105</ele>
        <time>2012-07-29T16:49:18Z</time>
      </trkpt>
      <trkpt lat="44.75929" lon="-0.33173">
        <ele>105</ele>
        <time>2012-07-29T16:49:22Z</time>
      </trkpt>
      <trkpt lat="44.75925" lon="-0.3316">
        <ele>106</ele>
        <time>2012-07-29T16:49:25Z</time>
      </trkpt>
      <trkpt lat="44.75921" lon="-0.33148">
        <ele>106</ele>
        <time>2012-07-29T16:49:28Z</time>
      </trkpt>
      <trkpt lat="44.75916" lon="-0.33134">
        <ele>106</ele>
        <time>2012-07-29T16:49:31Z</time>
      </trkpt>
      <trkpt lat="44.75911" lon="-0.33121">
        <ele>106</ele>
        <time>2012-07-29T16:49:34Z</time>
      </trkpt>
      <trkpt lat="44.75904" lon="-0.33107">
        <ele>106</ele>
        <time>2012-07-29T16:49:37Z</time>
      </trkpt>
      <trkpt lat="44.75895" lon="-0.33095">
        <ele>106</ele>
        <time>2012-07-29T16:49:40Z</time>
      </trkpt>
      <trkpt lat="44.75886" lon="-0.33083">
        <ele>106</ele>
        <time>2012-07-29T16:49:43Z</time>
      </trkpt>
      <trkpt lat="44.75878" lon="-0.33073">
        <ele>106</ele>
        <time>2012-07-29T16:49:46Z</time>
      </trkpt>
      <trkpt lat="44.7587" lon="-0.33063">
        <ele>106</ele>
        <time>2012-07-29T16:49:49Z</time>
      </trkpt>
      <trkpt lat="44.75862" lon="-0.33054">
        <ele>106</ele>
        <time>2012-07-29T16:49:52Z</time>
      </trkpt>
      <trkpt lat="44.75852" lon="-0.33043">
        <ele>106</ele>
        <time>2012-07-29T16:49:56Z</time>
      </trkpt>
      <trkpt lat="44.75842" lon="-0.33036">
        <ele>106</ele>
        <time>2012-07-29T16:50:00Z</time>
      </trkpt>
      <trkpt lat="44.75833" lon="-0.33032">
        <ele>106</ele>
        <time>2012-07-29T16:50:04Z</time>
      </trkpt>
      <trkpt lat="44.75828" lon="-0.33019">
        <ele>106</ele>
        <time>2012-07-29T16:50:12Z</time>
      </trkpt>
      <trkpt lat="44.75825" lon="-0.33006">
        <ele>107</ele>
        <time>2012-07-29T16:50:18Z</time>
      </trkpt>
      <trkpt lat="44.75821" lon="-0.32992">
        <ele>107</ele>
        <time>2012-07-29T16:50:23Z</time>
      </trkpt>
      <trkpt lat="44.75817" lon="-0.32979">
        <ele>107</ele>
        <time>2012-07-29T16:50:28Z</time>
      </trkpt>
      <trkpt lat="44.75815" lon="-0.32966">
        <ele>107</ele>
        <time>2012-07-29T16:50:33Z</time>
      </trkpt>
      <trkpt lat="44.75813" lon="-0.32951">
        <ele>107</ele>
        <time>2012-07-29T16:50:39Z</time>
      </trkpt>
      <trkpt lat="44.75811" lon="-0.32938">
        <ele>107</ele>
        <time>2012-07-29T16:50:47Z</time>
      </trkpt>
      <trkpt lat="44.75804" lon="-0.32928">
        <ele>107</ele>
        <time>2012-07-29T16:50:56Z</time>
      </trkpt>
      <trkpt lat="44.75794" lon="-0.32926">
        <ele>107</ele>
        <time>2012-07-29T16:50:59Z</time>
      </trkpt>
      <trkpt lat="44.75781" lon="-0.32923">
        <ele>107</ele>
        <time>2012-07-29T16:51:02Z</time>
      </trkpt>
      <trkpt lat="44.75767" lon="-0.3292">
        <ele>107</ele>
        <time>2012-07-29T16:51:05Z</time>
      </trkpt>
      <trkpt lat="44.75757" lon="-0.32916">
        <ele>107</ele>
        <time>2012-07-29T16:51:07Z</time>
      </trkpt>
      <trkpt lat="44.75746" lon="-0.32909">
        <ele>107</ele>
        <time>2012-07-29T16:51:09Z</time>
      </trkpt>
      <trkpt lat="44.75736" lon="-0.329">
        <ele>107</ele>
        <time>2012-07-29T16:51:11Z</time>
      </trkpt>
      <trkpt lat="44.75726" lon="-0.32889">
        <ele>107</ele>
        <time>2012-07-29T16:51:13Z</time>
      </trkpt>
      <trkpt lat="44.75717" lon="-0.32879">
        <ele>107</ele>
        <time>2012-07-29T16:51:15Z</time>
      </trkpt>
      <trkpt lat="44.75708" lon="-0.32869">
        <ele>107</ele>
        <time>2012-07-29T16:51:17Z</time>
      </trkpt>
      <trkpt lat="44.75699" lon="-0.3286">
        <ele>107</ele>
        <time>2012-07-29T16:51:19Z</time>
      </trkpt>
      <trkpt lat="44.75688" lon="-0.3285">
        <ele>107</ele>
        <time>2012-07-29T16:51:22Z</time>
      </trkpt>
      <trkpt lat="44.75682" lon="-0.32834">
        <ele>107</ele>
        <time>2012-07-29T16:51:25Z</time>
      </trkpt>
      <trkpt lat="44.75685" lon="-0.3282">
        <ele>106</ele>
        <time>2012-07-29T16:51:27Z</time>
      </trkpt>
      <trkpt lat="44.75696" lon="-0.32809">
        <ele>106</ele>
        <time>2012-07-29T16:51:29Z</time>
      </trkpt>
      <trkpt lat="44.75708" lon="-0.328">
        <ele>105</ele>
        <time>2012-07-29T16:51:31Z</time>
      </trkpt>
      <trkpt lat="44.75721" lon="-0.3279">
        <ele>104</ele>
        <time>2012-07-29T16:51:33Z</time>
      </trkpt>
      <trkpt lat="44.75735" lon="-0.32776">
        <ele>104</ele>
        <time>2012-07-29T16:51:35Z</time>
      </trkpt>
      <trkpt lat="44.75747" lon="-0.32757">
        <ele>103</ele>
        <time>2012-07-29T16:51:37Z</time>
      </trkpt>
      <trkpt lat="44.75753" lon="-0.32746">
        <ele>102</ele>
        <time>2012-07-29T16:51:38Z</time>
      </trkpt>
      <trkpt lat="44.75763" lon="-0.32724">
        <ele>102</ele>
        <time>2012-07-29T16:51:40Z</time>
      </trkpt>
      <trkpt lat="44.7577" lon="-0.327">
        <ele>101</ele>
        <time>2012-07-29T16:51:42Z</time>
      </trkpt>
      <trkpt lat="44.75778" lon="-0.32675">
        <ele>101</ele>
        <time>2012-07-29T16:51:44Z</time>
      </trkpt>
      <trkpt lat="44.75786" lon="-0.32651">
        <ele>101</ele>
        <time>2012-07-29T16:51:46Z</time>
      </trkpt>
      <trkpt lat="44.7579" lon="-0.32639">
        <ele>101</ele>
        <time>2012-07-29T16:51:47Z</time>
      </trkpt>
      <trkpt lat="44.75794" lon="-0.32626">
        <ele>101</ele>
        <time>2012-07-29T16:51:48Z</time>
      </trkpt>
      <trkpt lat="44.75802" lon="-0.32602">
        <ele>102</ele>
        <time>2012-07-29T16:51:50Z</time>
      </trkpt>
      <trkpt lat="44.75811" lon="-0.32577">
        <ele>103</ele>
        <time>2012-07-29T16:51:52Z</time>
      </trkpt>
      <trkpt lat="44.75818" lon="-0.32554">
        <ele>104</ele>
        <time>2012-07-29T16:51:54Z</time>
      </trkpt>
      <trkpt lat="44.75826" lon="-0.32532">
        <ele>104</ele>
        <time>2012-07-29T16:51:56Z</time>
      </trkpt>
      <trkpt lat="44.75833" lon="-0.32507">
        <ele>104</ele>
        <time>2012-07-29T16:51:58Z</time>
      </trkpt>
      <trkpt lat="44.7584" lon="-0.32483">
        <ele>104</ele>
        <time>2012-07-29T16:52:00Z</time>
      </trkpt>
      <trkpt lat="44.75843" lon="-0.32471">
        <ele>105</ele>
        <time>2012-07-29T16:52:01Z</time>
      </trkpt>
      <trkpt lat="44.75848" lon="-0.32447">
        <ele>105</ele>
        <time>2012-07-29T16:52:03Z</time>
      </trkpt>
      <trkpt lat="44.75853" lon="-0.32423">
        <ele>105</ele>
        <time>2012-07-29T16:52:05Z</time>
      </trkpt>
      <trkpt lat="44.75857" lon="-0.324">
        <ele>105</ele>
        <time>2012-07-29T16:52:07Z</time>
      </trkpt>
      <trkpt lat="44.75861" lon="-0.32378">
        <ele>104</ele>
        <time>2012-07-29T16:52:09Z</time>
      </trkpt>
      <trkpt lat="44.75864" lon="-0.32356">
        <ele>105</ele>
        <time>2012-07-29T16:52:11Z</time>
      </trkpt>
      <trkpt lat="44.75868" lon="-0.32333">
        <ele>105</ele>
        <time>2012-07-29T16:52:13Z</time>
      </trkpt>
      <trkpt lat="44.75872" lon="-0.32312">
        <ele>106</ele>
        <time>2012-07-29T16:52:15Z</time>
      </trkpt>
      <trkpt lat="44.75877" lon="-0.32292">
        <ele>106</ele>
        <time>2012-07-29T16:52:17Z</time>
      </trkpt>
      <trkpt lat="44.75884" lon="-0.32271">
        <ele>107</ele>
        <time>2012-07-29T16:52:19Z</time>
      </trkpt>
      <trkpt lat="44.7589" lon="-0.32252">
        <ele>107</ele>
        <time>2012-07-29T16:52:21Z</time>
      </trkpt>
      <trkpt lat="44.75898" lon="-0.32233">
        <ele>107</ele>
        <time>2012-07-29T16:52:23Z</time>
      </trkpt>
      <trkpt lat="44.75905" lon="-0.32215">
        <ele>107</ele>
        <time>2012-07-29T16:52:25Z</time>
      </trkpt>
      <trkpt lat="44.75911" lon="-0.32196">
        <ele>107</ele>
        <time>2012-07-29T16:52:27Z</time>
      </trkpt>
      <trkpt lat="44.75916" lon="-0.32176">
        <ele>107</ele>
        <time>2012-07-29T16:52:29Z</time>
      </trkpt>
      <trkpt lat="44.75918" lon="-0.32155">
        <ele>107</ele>
        <time>2012-07-29T16:52:31Z</time>
      </trkpt>
      <trkpt lat="44.75921" lon="-0.32135">
        <ele>107</ele>
        <time>2012-07-29T16:52:33Z</time>
      </trkpt>
      <trkpt lat="44.75922" lon="-0.32114">
        <ele>107</ele>
        <time>2012-07-29T16:52:35Z</time>
      </trkpt>
      <trkpt lat="44.75923" lon="-0.32093">
        <ele>107</ele>
        <time>2012-07-29T16:52:37Z</time>
      </trkpt>
      <trkpt lat="44.75925" lon="-0.32073">
        <ele>107</ele>
        <time>2012-07-29T16:52:39Z</time>
      </trkpt>
      <trkpt lat="44.75926" lon="-0.32054">
        <ele>107</ele>
        <time>2012-07-29T16:52:41Z</time>
      </trkpt>
      <trkpt lat="44.75928" lon="-0.32034">
        <ele>107</ele>
        <time>2012-07-29T16:52:43Z</time>
      </trkpt>
      <trkpt lat="44.75929" lon="-0.32013">
        <ele>107</ele>
        <time>2012-07-29T16:52:45Z</time>
      </trkpt>
      <trkpt lat="44.75929" lon="-0.31994">
        <ele>107</ele>
        <time>2012-07-29T16:52:47Z</time>
      </trkpt>
      <trkpt lat="44.7593" lon="-0.31973">
        <ele>107</ele>
        <time>2012-07-29T16:52:49Z</time>
      </trkpt>
      <trkpt lat="44.75929" lon="-0.31952">
        <ele>107</ele>
        <time>2012-07-29T16:52:51Z</time>
      </trkpt>
      <trkpt lat="44.75929" lon="-0.31932">
        <ele>107</ele>
        <time>2012-07-29T16:52:53Z</time>
      </trkpt>
      <trkpt lat="44.75928" lon="-0.31912">
        <ele>107</ele>
        <time>2012-07-29T16:52:55Z</time>
      </trkpt>
      <trkpt lat="44.75927" lon="-0.3189">
        <ele>107</ele>
        <time>2012-07-29T16:52:57Z</time>
      </trkpt>
      <trkpt lat="44.75927" lon="-0.3187">
        <ele>107</ele>
        <time>2012-07-29T16:52:59Z</time>
      </trkpt>
      <trkpt lat="44.75926" lon="-0.31848">
        <ele>107</ele>
        <time>2012-07-29T16:53:01Z</time>
      </trkpt>
      <trkpt lat="44.75927" lon="-0.31827">
        <ele>107</ele>
        <time>2012-07-29T16:53:03Z</time>
      </trkpt>
      <trkpt lat="44.75929" lon="-0.31806">
        <ele>107</ele>
        <time>2012-07-29T16:53:05Z</time>
      </trkpt>
      <trkpt lat="44.75932" lon="-0.31785">
        <ele>108</ele>
        <time>2012-07-29T16:53:07Z</time>
      </trkpt>
      <trkpt lat="44.75937" lon="-0.31765">
        <ele>108</ele>
        <time>2012-07-29T16:53:09Z</time>
      </trkpt>
      <trkpt lat="44.75941" lon="-0.31745">
        <ele>109</ele>
        <time>2012-07-29T16:53:11Z</time>
      </trkpt>
      <trkpt lat="44.75945" lon="-0.31725">
        <ele>109</ele>
        <time>2012-07-29T16:53:13Z</time>
      </trkpt>
      <trkpt lat="44.75952" lon="-0.31707">
        <ele>109</ele>
        <time>2012-07-29T16:53:15Z</time>
      </trkpt>
      <trkpt lat="44.75959" lon="-0.3169">
        <ele>109</ele>
        <time>2012-07-29T16:53:17Z</time>
      </trkpt>
      <trkpt lat="44.75969" lon="-0.31675">
        <ele>109</ele>
        <time>2012-07-29T16:53:19Z</time>
      </trkpt>
      <trkpt lat="44.75978" lon="-0.31659">
        <ele>108</ele>
        <time>2012-07-29T16:53:21Z</time>
      </trkpt>
      <trkpt lat="44.75985" lon="-0.31642">
        <ele>108</ele>
        <time>2012-07-29T16:53:23Z</time>
      </trkpt>
      <trkpt lat="44.75991" lon="-0.31623">
        <ele>108</ele>
        <time>2012-07-29T16:53:25Z</time>
      </trkpt>
      <trkpt lat="44.75994" lon="-0.31604">
        <ele>108</ele>
        <time>2012-07-29T16:53:27Z</time>
      </trkpt>
      <trkpt lat="44.75996" lon="-0.31585">
        <ele>108</ele>
        <time>2012-07-29T16:53:29Z</time>
      </trkpt>
      <trkpt lat="44.75998" lon="-0.31566">
        <ele>108</ele>
        <time>2012-07-29T16:53:31Z</time>
      </trkpt>
      <trkpt lat="44.76001" lon="-0.31546">
        <ele>107</ele>
        <time>2012-07-29T16:53:33Z</time>
      </trkpt>
      <trkpt lat="44.76003" lon="-0.31526">
        <ele>107</ele>
        <time>2012-07-29T16:53:35Z</time>
      </trkpt>
      <trkpt lat="44.76005" lon="-0.31508">
        <ele>107</ele>
        <time>2012-07-29T16:53:37Z</time>
      </trkpt>
      <trkpt lat="44.76007" lon="-0.31489">
        <ele>107</ele>
        <time>2012-07-29T16:53:39Z</time>
      </trkpt>
      <trkpt lat="44.76009" lon="-0.3147">
        <ele>107</ele>
        <time>2012-07-29T16:53:41Z</time>
      </trkpt>
      <trkpt lat="44.76011" lon="-0.31451">
        <ele>108</ele>
        <time>2012-07-29T16:53:43Z</time>
      </trkpt>
      <trkpt lat="44.76013" lon="-0.31433">
        <ele>108</ele>
        <time>2012-07-29T16:53:45Z</time>
      </trkpt>
      <trkpt lat="44.76015" lon="-0.31415">
        <ele>108</ele>
        <time>2012-07-29T16:53:47Z</time>
      </trkpt>
      <trkpt lat="44.76017" lon="-0.31399">
        <ele>109</ele>
        <time>2012-07-29T16:53:49Z</time>
      </trkpt>
      <trkpt lat="44.76019" lon="-0.31383">
        <ele>109</ele>
        <time>2012-07-29T16:53:51Z</time>
      </trkpt>
      <trkpt lat="44.76016" lon="-0.31369">
        <ele>110</ele>
        <time>2012-07-29T16:53:53Z</time>
      </trkpt>
      <trkpt lat="44.76005" lon="-0.31363">
        <ele>110</ele>
        <time>2012-07-29T16:53:55Z</time>
      </trkpt>
      <trkpt lat="44.75993" lon="-0.31362">
        <ele>110</ele>
        <time>2012-07-29T16:53:57Z</time>
      </trkpt>
      <trkpt lat="44.7598" lon="-0.31361">
        <ele>110</ele>
        <time>2012-07-29T16:53:59Z</time>
      </trkpt>
      <trkpt lat="44.75966" lon="-0.31358">
        <ele>110</ele>
        <time>2012-07-29T16:54:01Z</time>
      </trkpt>
      <trkpt lat="44.75952" lon="-0.31357">
        <ele>110</ele>
        <time>2012-07-29T16:54:03Z</time>
      </trkpt>
      <trkpt lat="44.75939" lon="-0.31355">
        <ele>110</ele>
        <time>2012-07-29T16:54:05Z</time>
      </trkpt>
      <trkpt lat="44.75925" lon="-0.31353">
        <ele>110</ele>
        <time>2012-07-29T16:54:07Z</time>
      </trkpt>
      <trkpt lat="44.75911" lon="-0.3135">
        <ele>110</ele>
        <time>2012-07-29T16:54:09Z</time>
      </trkpt>
      <trkpt lat="44.75897" lon="-0.31347">
        <ele>110</ele>
        <time>2012-07-29T16:54:11Z</time>
      </trkpt>
      <trkpt lat="44.75882" lon="-0.31345">
        <ele>110</ele>
        <time>2012-07-29T16:54:13Z</time>
      </trkpt>
      <trkpt lat="44.75867" lon="-0.31342">
        <ele>110</ele>
        <time>2012-07-29T16:54:15Z</time>
      </trkpt>
      <trkpt lat="44.75852" lon="-0.3134">
        <ele>109</ele>
        <time>2012-07-29T16:54:17Z</time>
      </trkpt>
      <trkpt lat="44.75838" lon="-0.31338">
        <ele>109</ele>
        <time>2012-07-29T16:54:19Z</time>
      </trkpt>
      <trkpt lat="44.75822" lon="-0.31335">
        <ele>108</ele>
        <time>2012-07-29T16:54:21Z</time>
      </trkpt>
      <trkpt lat="44.75806" lon="-0.31331">
        <ele>108</ele>
        <time>2012-07-29T16:54:23Z</time>
      </trkpt>
      <trkpt lat="44.75791" lon="-0.31329">
        <ele>107</ele>
        <time>2012-07-29T16:54:25Z</time>
      </trkpt>
      <trkpt lat="44.75775" lon="-0.31326">
        <ele>106</ele>
        <time>2012-07-29T16:54:27Z</time>
      </trkpt>
      <trkpt lat="44.75759" lon="-0.31323">
        <ele>106</ele>
        <time>2012-07-29T16:54:29Z</time>
      </trkpt>
      <trkpt lat="44.75741" lon="-0.31321">
        <ele>105</ele>
        <time>2012-07-29T16:54:31Z</time>
      </trkpt>
      <trkpt lat="44.75722" lon="-0.31318">
        <ele>104</ele>
        <time>2012-07-29T16:54:33Z</time>
      </trkpt>
      <trkpt lat="44.75712" lon="-0.31316">
        <ele>104</ele>
        <time>2012-07-29T16:54:34Z</time>
      </trkpt>
      <trkpt lat="44.75703" lon="-0.31315">
        <ele>104</ele>
        <time>2012-07-29T16:54:35Z</time>
      </trkpt>
      <trkpt lat="44.75693" lon="-0.31314">
        <ele>104</ele>
        <time>2012-07-29T16:54:36Z</time>
      </trkpt>
      <trkpt lat="44.75676" lon="-0.31312">
        <ele>103</ele>
        <time>2012-07-29T16:54:38Z</time>
      </trkpt>
      <trkpt lat="44.75666" lon="-0.31311">
        <ele>102</ele>
        <time>2012-07-29T16:54:39Z</time>
      </trkpt>
      <trkpt lat="44.75649" lon="-0.3131">
        <ele>102</ele>
        <time>2012-07-29T16:54:41Z</time>
      </trkpt>
      <trkpt lat="44.75633" lon="-0.31303">
        <ele>102</ele>
        <time>2012-07-29T16:54:43Z</time>
      </trkpt>
      <trkpt lat="44.75617" lon="-0.31293">
        <ele>102</ele>
        <time>2012-07-29T16:54:45Z</time>
      </trkpt>
      <trkpt lat="44.75603" lon="-0.31285">
        <ele>102</ele>
        <time>2012-07-29T16:54:47Z</time>
      </trkpt>
      <trkpt lat="44.75589" lon="-0.31278">
        <ele>102</ele>
        <time>2012-07-29T16:54:49Z</time>
      </trkpt>
      <trkpt lat="44.75577" lon="-0.31274">
        <ele>102</ele>
        <time>2012-07-29T16:54:51Z</time>
      </trkpt>
      <trkpt lat="44.75567" lon="-0.31271">
        <ele>102</ele>
        <time>2012-07-29T16:54:53Z</time>
      </trkpt>
      <trkpt lat="44.75555" lon="-0.31264">
        <ele>102</ele>
        <time>2012-07-29T16:54:56Z</time>
      </trkpt>
      <trkpt lat="44.75553" lon="-0.31251">
        <ele>103</ele>
        <time>2012-07-29T16:54:59Z</time>
      </trkpt>
      <trkpt lat="44.75544" lon="-0.31246">
        <ele>102</ele>
        <time>2012-07-29T16:55:03Z</time>
      </trkpt>
      <trkpt lat="44.75533" lon="-0.31244">
        <ele>102</ele>
        <time>2012-07-29T16:55:08Z</time>
      </trkpt>
      <trkpt lat="44.75523" lon="-0.31243">
        <ele>101</ele>
        <time>2012-07-29T16:55:16Z</time>
      </trkpt>
    </trkseg>
  </trk>
</gpx>